     2.11           OBSERVATION DATA    G (GPS)             RINEX VERSION / TYPE
teqc 2010Oct21 OPUS Account 20111026 20:52:26UTC            PGM / RUN BY / DATE
N0280045                                                    MARKER NAME
1117                                                        MARKER NUMBER
CSMIDDLETON NGS                                             OBSERVER / AGENCY
0220269730 TRIMBLE 5700 NP 1.22 / SP 1.22                   REC # / TYPE / VERS
60041226 TRM41249.00 NONE                                   ANT # / TYPE
  -739371.1555 -5484470.9508  3160543.4134                  APPROX POSITION XYZ
        2.0010        0.0000        0.0000                  ANTENNA: DELTA H/E/N
     1     1                                                WAVELENGTH FACT L1/2
     5    L1    L2    C1    P1    P2                        # / TYPES OF OBSERV
    15                                                      LEAP SECONDS
  2011     8    11     0     0   30.0000000     GPS         TIME OF FIRST OBS
                                                            END OF HEADER
 11  8 11  0  0 30.0000000  0  8G17G04G02G09G28G12G10G05
 -73652545.29757 -57379394.17755  22147121.4774   22147120.8754
 -60562013.25458 -47161158.60356  20283615.4064   20283614.5704
 -40452298.43458 -31482169.47356  21058696.4534                   21058693.7114
 -32389365.28157 -25215894.83354  22369413.1724                   22369414.8054
 -83809486.12556 -65282061.51253  23348399.2814                   23348401.1914
 -13684262.36757 -10641541.22554  23067579.8134                   23067577.9844
 -27096020.54357 -21043051.35855  21719630.1174   21719629.8134
   -885243.59856   -667224.35353  24320334.2504                   24320337.3874
 11  8 11  0  1  0.0000000  0  8G17G04G02G09G28G12G10G05
 -73702814.07047 -57418564.66145  22137555.4144   22137555.0514
 -60608473.07048 -47197361.06346  20274774.3834   20274773.8874
 -40584157.67248 -31584916.89946  21033604.5474                   21033601.7894
 -32438495.46547 -25254178.13544  22360064.4144                   22360065.5554
 -83810680.74646 -65282992.45343  23348173.2424                   23348174.8484
 -13866388.03547 -10783457.27844  23032922.0084                   23032921.3524
 -27253242.44147 -21165561.88045  21689712.2034   21689712.4384
  -1081866.80546   -820436.75643  24282917.5314                   24282920.6254
 11  8 11  0  1 30.0000000  0  8G17G04G02G09G28G12G10G05
 -73752896.50847 -57457589.98245  22128025.3594   22128024.7504
 -60654438.11748 -47233177.99746  20266027.6564   20266027.0354
 -40715564.34048 -31687311.68146  21008598.6254                   21008596.1334
 -32487023.89847 -25291992.53144  22350830.0704                   22350830.0594
 -83811505.61346 -65283635.32343  23348016.4144                   23348017.8094
 -14048269.34047 -10925182.89044  22998311.6644                   22998309.7424
 -27409958.83647 -21287678.51745  21659889.9384   21659890.2774
  -1278442.20346   -973612.14643  24245511.2114                   24245512.1644
 11  8 11  0  2  0.0000000  0  8G17G04G02G09G28G12G10G05
 -73802789.65247 -57496467.81145  22118530.9454   22118530.5394
 -60699907.06248 -47268608.34646  20257374.8054   20257374.1374
 -40846514.38748 -31789350.66246  20983679.8594                   20983677.2704
 -32534949.18747 -25329336.95145  22341710.8984                   22341710.6334
 -83811958.37946 -65283988.23643  23347930.1804                   23347931.2114
 -14229900.34447 -11066713.49544  22963748.3754                   22963746.2624
 -27566162.64147 -21409395.72945  21630165.0234   21630164.5084
  -1474962.98446  -1126744.80244  24208113.9924                   24208116.1484
 11  8 11  0  2 30.0000000  0  8G17G04G02G09G28G12G10G05
 -73852494.80147 -57535199.11945  22109072.7504   22109071.5984
 -60744883.98048 -47303655.31346  20248816.1884   20248815.7384
 -40977010.28548 -31891035.75046  20958846.9454                   20958844.2734
 -32582276.08247 -25366215.08344  22332703.7664                   22332704.2114
 -83812042.86346 -65284054.14343  23347914.9384                   23347914.3094
 -14411281.00447 -11208048.98744  22929232.8204                   22929231.0084
 -27721853.21547 -21530713.00345  21600538.0164   21600537.0514
  -1671428.41846  -1279834.38044  24170727.6484                   24170730.3014
 11  8 11  0  3  0.0000000  0  8G17G04G02G09G28G12G10G05
 -73902004.83647 -57573778.36445  22099651.1174   22099650.4224
 -60789365.37548 -47338316.14746  20240352.0704   20240351.4884
 -41107045.90647 -31992362.17646  20934102.1804                   20934099.1884
 -32629000.80547 -25402624.01244  22323813.0554                   22323812.9804
 -83811754.49646 -65283829.53243  23347969.3284                   23347968.6994
 -14592402.60247 -11349182.62545  22894765.7424                   22894764.3284
 -27877021.35547 -21651623.21645  21571011.0944   21571010.5594
  -1867830.22345  -1432874.36543  24133351.8594                   24133355.3094
 11  8 11  0  3 30.0000000  0  8G17G04G02G09G28G12G10G05
 -73951324.53947 -57612209.33545  22090265.2814   22090264.9694
 -60833357.84448 -47372596.00846  20231980.8754   20231979.9654
 -41236625.90648 -32093333.58646  20909443.4614                   20909441.1254
 -32675130.64147 -25438569.37445  22315035.4224                   22315035.3984
 -83811099.13746 -65283318.92543  23348094.8984                   23348093.7734
 -14773267.02047 -11490115.88545  22860348.7974                   22860347.2344
 -28031668.73447 -21772127.64845  21541582.3204   21541581.8134
  -2064170.07846  -1585866.13043  24095990.3754                   24095993.8244
 11  8 11  0  4  0.0000000  0  8G17G04G02G09G28G12G10G05
 -74000451.75447 -57650490.30245  22080917.4614   22080916.0204
 -60876861.94548 -47406495.32346  20223701.9614   20223701.1134
 -41365748.88348 -32193948.86646  20884872.1804                   20884870.0004
 -32720666.53547 -25474051.92245  22306370.0314                   22306368.7854
 -83810077.42646 -65282522.86243  23348288.6414                   23348288.4774
 -14953870.52747 -11630845.82245  22825981.1414                   22825979.8594
 -28185790.71547 -21892222.66845  21512254.0084   21512253.3444
  -2260443.56245  -1738806.17243  24058639.8524                   24058643.8524
 11  8 11  0  4 30.0000000  0  8G17G04G02G09G28G12G10G05
 -74049389.86747 -57688623.89845  22071604.3284   22071602.7734
 -60919883.77348 -47440018.82946  20215515.0554   20215514.3204
 -41494418.34848 -32294210.75446  20860387.4924                   20860384.7194
 -32765614.94147 -25509076.68544  22297816.4144                   22297816.2114
 -83808694.37946 -65281445.24743  23348551.8524                   23348551.5594
 -15134214.37147 -11771373.42945  22791662.2274                   22791661.2034
 -28339388.09847 -22011908.92645  21483025.7504   21483025.4264
  -2456651.60246  -1891695.15143  24021302.8594                   24021305.4614
 11  8 11  0  5  0.0000000  0  8G17G04G02G09G28G12G10G05
 -74098132.39847 -57726605.11545  22062329.1644   22062327.7974
 -60962420.23848 -47473164.15046  20207420.7424   20207420.2894
 -41622629.19548 -32394115.30146  20835989.6174                   20835986.7034
 -32809973.30147 -25543641.65844  22289374.5394                   22289374.9654
 -83806946.46946 -65280083.36443  23348885.2114                   23348883.6254
 -15314290.86347 -11911692.72745  22757394.4454                   22757393.5784
 -28492452.85247 -22131180.11245  21453898.1564   21453897.2854
  -2652786.14846  -2044526.95843  23983978.3914                   23983982.4774
 11  8 11  0  5 30.0000000  0  8G17G04G02G09G28G12G10G05
 -72571263.57447 -56536837.23845  22352883.2344   22352881.4264
 -59429057.52048 -46278336.05146  20499209.7584   20499209.0554
 -40174962.35248 -31266063.19746  21111471.6094                   21111469.0514
 -31278327.88347 -24350151.79444  22580837.3284                   22580837.6844
 -82229420.14846 -64050842.18643  23649078.6484                   23649077.8364
 -13918676.82447 -10824201.24345  23022971.1804                   23022970.2074
 -27069562.20747 -21022434.14545  21724665.4534   21724664.8914
  -1273423.19946   -969698.41143  24246463.3984                   24246465.1884
 11  8 11  0  6  0.0000000  0  8G17G04G02G09G28G12G10G05
 -72619628.15647 -56574523.94845  22343679.0864   22343678.3714
 -59470642.58648 -46310740.04646  20491296.8594   20491295.9964
 -40302268.82848 -31365263.03246  21087246.0314                   21087243.1804
 -31321526.57847 -24383813.15344  22572617.7194                   22572616.8874
 -82226959.44946 -64048924.88342  23649546.5004                   23649546.7814
 -14098223.73047 -10964107.91245  22988804.6724                   22988803.8954
 -27221565.57047 -21140878.26445  21695739.6564   21695739.7154
  -1469415.60946  -1122419.52843  24209166.5634                   24209168.4734
 11  8 11  0  6 30.0000000  0  8G17G04G02G09G28G12G10G05
 -72667806.89147 -56612065.84345  22334511.2344   22334510.6884
 -59511759.43048 -46342779.14246  20483472.4924   20483471.4104
 -40429127.43448 -31464113.87446  21063105.4774                   21063102.9064
 -31364153.43747 -24417028.89744  22564505.7974                   22564505.5744
 -82224148.87146 -64046734.84842  23650081.8134                   23650081.6564
 -14277506.01647 -11103808.35145  22954688.4144                   22954687.7464
 -27373037.85947 -21258908.56945  21666915.4614   21666915.7234
  -1665336.39847  -1275084.78943  24171884.3834                   24171887.0784
 11  8 11  0  7  0.0000000  0  8G17G04G02G09G28G12G10G05
 -72715798.73447 -56649462.10745  22325378.5554   22325378.0664
 -59552410.28948 -46374455.14546  20475737.1174   20475735.9494
 -40555538.40648 -31562615.92046  21039050.3284                   21039047.6054
 -31406211.12947 -24449801.19844  22556502.3594                   22556502.5474
 -82220990.10546 -64044273.62743  23650683.0704                   23650681.9844
 -14456521.27347 -11243300.73545  22920623.0634                   22920622.1524
 -27523976.43747 -21376523.04145  21638193.0004   21638192.7624
  -1861183.10546  -1427692.37143  24134615.7344                   24134617.4884
 11  8 11  0  7 30.0000000  0  8G17G04G02G09G28G12G10G05
 -72763606.17647 -56686714.67545  22316281.2734   22316280.1604
 -59592599.99248 -46405771.80546  20468088.7814   20468088.5944
 -40681503.84848 -31660770.78646  21015080.1094                   21015077.2274
 -31447705.03547 -24482134.12644  22548605.9304                   22548606.3554
 -82217487.28546 -64041544.16442  23651349.8834                   23651348.1724
 -14635269.16047 -11382584.77744  22886607.8444                   22886607.5824
 -27674380.71547 -21493721.15145  21609571.8364   21609571.6334
  -2056955.97346  -1580242.37844  24097360.7034                   24097364.6294
 11  8 11  0  8  0.0000000  0  8G17G04G02G09G28G12G10G05
 -72811225.94547 -56723821.03745  22307220.2114   22307218.7034
 -59632327.81248 -46436728.56746  20460529.1724   20460528.5274
 -40807021.40648 -31758576.63646  20991194.5004                   20991192.2154
 -31488634.78546 -24514027.48244  22540817.8284                   22540817.8284
 -82213639.10946 -64038545.68042  23652081.3284                   23652080.1134
 -14813744.59847 -11521656.53645  22852645.9924                   22852644.4734
 -27824244.94147 -21610498.39945  21581053.2034   21581052.3484
  -2252648.43446  -1732729.75444  24060122.5634                   24060125.9144
 11  8 11  0  8 30.0000000  0  8G17G04G02G09G28G12G10G05
 -72858651.45347 -56760775.98345  22298194.9144   22298193.8634
 -59671590.23848 -46467322.67546  20453057.6564   20453056.6764
 -40932085.57048 -31856029.20546  20967395.5944                   20967392.7424
 -31528997.25847 -24545478.80544  22533137.0394                   22533137.0864
 -82209441.58246 -64035274.97342  23652879.1644                   23652879.8524
 -14991939.71547 -11660509.85145  22818736.5394                   22818735.1884
 -27973560.63747 -21726848.25045  21552640.0164   21552638.4064
  -2448252.28947  -1885148.08044  24022900.1024                   24022903.3364
 11  8 11  0  9  0.0000000  0  8G17G04G02G09G28G12G10G05
 -72905883.53147 -56797580.21745  22289207.0944   22289205.8984
 -59710390.48848 -46497556.63846  20445674.6024   20445673.1684
 -41056697.18748 -31953129.16346  20943683.5634                   20943679.9104
 -31568796.41847 -24576491.18244  22525563.5314                   22525563.4804
 -82204897.00446 -64031733.87942  23653744.7344                   23653745.0704
 -15169852.47747 -11799143.13445  22784880.6254                   22784880.2704
 -28122326.14147 -21842769.40445  21524330.9064   21524330.6174
  -2643765.61746  -2037495.91744  23985694.8134                   23985697.4184
 11  8 11  0  9 30.0000000  0  8G17G04G02G09G28G12G10G05
 -72952925.38747 -56834236.24745  22280255.1334   22280253.7544
 -59748734.61748 -46527435.19146  20438377.6094   20438377.0004
 -41180860.28548 -32049879.59046  20920055.2664                   20920052.6094
 -31608038.66447 -24607069.58944  22518095.5944                   22518095.7734
 -82200011.41045 -64027927.05942  23654673.7424                   23654675.0554
 -15347484.25047 -11937557.46745  22751078.4304                   22751078.4494
 -28270542.29347 -21958262.47345  21496125.8834   21496125.7974
  -2839189.30546  -2189773.85843  23948506.1254                   23948508.0824
 11  8 11  0 10  0.0000000  0  8G17G04G02G09G28G12G10G05
 -72999773.01247 -56870740.89745  22271340.1564   22271339.2194
 -59786621.28548 -46556957.27846  20431167.9144   20431167.3954
 -41304571.71548 -32146278.09346  20896513.7034                   20896511.2424
 -31646723.43747 -24637213.61244  22510734.4304                   22510734.6804
 -82194782.77745 -64023852.96542  23655668.9534                   23655670.7814
 -15524828.83647 -12075748.01545  22717330.9694                   22717330.6414
 -28418202.84447 -22073322.60945  21468027.1414   21468026.4844
  -3034517.19946  -2341977.15543  23911336.0394                   23911338.8554
 11  8 11  0 10 30.0000000  0  8G17G04G02G09G28G12G10G05
 -73046427.28547 -56907094.92845  22262462.0474   22262461.5274
 -59824054.57848 -46586126.07846  20424044.5234   20424043.9734
 -41427833.05948 -32242325.87546  20873057.9224                   20873055.1334
 -31684854.92647 -24666926.53244  22503478.6254                   22503478.9534
 -82189214.08645 -64019513.79742  23656728.6334                   23656731.0164
 -15701885.09447 -12213713.90845  22683638.4774                   22683637.3404
 -28565306.35947 -22187948.67345  21440033.7814   21440033.1414
  -3229748.05146  -2494104.87443  23874185.7114                   23874187.0004
 11  8 11  0 11  0.0000000  0  8G17G04G02G09G28G12G10G05
 -73092888.20747 -56943298.24545  22253621.1954   22253619.5274
 -59861037.28948 -46614943.78946  20417007.3204   20417006.8094
 -41550645.06248 -32338023.51546  20849687.6334                   20849684.6884
 -31722436.83247 -24696211.15944  22496326.4064                   22496327.3204
 -82183307.82045 -64014911.60242  23657853.7664                   23657855.4224
 -15878651.74647 -12351454.10345  22650000.7274                   22649999.6954
 -28711850.90647 -22302139.20045  21412147.9774   21412147.3014
  -3424879.16846  -2646154.86344  23837053.4924                   23837055.1484
 11  8 11  0 11 30.0000000  0  8G17G04G02G09G28G12G10G05
 -73139154.87547 -56979350.21745  22244817.0394   22244815.4924
 -59897570.92248 -46643411.54846  20410055.0704   20410054.4184
 -41673007.41848 -32433370.77646  20826403.0554                   20826400.2464
 -31759471.03547 -24725068.99444  22489279.5864                   22489279.3554
 -82177065.03545 -64010047.26242  23659042.2114                   23659042.9454
 -16055125.26247 -12488965.87945  22616418.4924                   22616417.7154
 -28857833.02047 -22415891.43345  21384368.3054   21384367.0234
  -3619907.72347  -2798124.91344  23799940.3984                   23799942.6954
 11  8 11  0 12  0.0000000  0  8G17G04G02G09G28G12G10G05
 -73185235.55947 -57015257.25145  22236048.3594   22236046.8984
 -59933666.52748 -46671537.99846  20403185.9694   20403185.7344
 -41794929.18748 -32528374.73446  20803201.9304                   20803199.2664
 -31795969.24247 -24753509.20644  22482334.3754                   22482334.3754
 -82170496.36345 -64004928.89542  23660290.2584                   23660292.7274
 -16231311.64847 -12626253.92045  22582891.2194                   22582890.3284
 -29003258.68047 -22529210.11245  21356694.5084   21356694.1914
  -3814839.29746  -2950019.40844  23762844.9844                   23762847.6764
 11  8 11  0 12 30.0000000  0  8G17G04G02G09G28G12G10G05
 -73231121.06647 -57051012.22945  22227316.3054   22227315.7384
 -59969317.84448 -46699318.25046  20396401.9614   20396401.4964
 -41916401.88348 -32623028.76446  20780086.3524                   20780083.6954
 -31831925.75047 -24781527.32944  22475491.6334                   22475492.0744
 -82163594.883 5                  23661603.891
 -16407199.96547 -12763309.71945  22549420.6564                   22549419.9654
 -29148116.54747 -22642086.34445  21329129.0004   21329128.1914
  -4009662.43446  -3101829.40244  23725771.4454                   23725773.7974
 11  8 11  0 13  0.0000000  0  8G17G04G02G09G28G12G10G05
 -73276814.78147 -57086617.71245  22218620.8204   22218619.7894
 -60004531.11348 -46726757.17146  20389700.6644   20389700.0634
 -42037429.44548 -32717335.93546  20757055.6174                   20757052.5474
 -31867347.15247 -24809128.44544  22468751.4694                   22468752.4574
 -82156366.055 5                  23662982.844
 -16582791.43747 -12900134.18545  22516006.5314                   22516006.2074
 -29292407.31647 -22754520.67345  21301671.3364   21301671.1094
  -4204378.05146  -3253555.66044  23688718.0704                   23688720.8484
 11  8 11  0 13 30.0000000  0  8G17G04G02G09G28G12G10G05
 -73322315.64847 -57122072.94845  22209962.5394   22209961.2234
 -60039308.48848 -46753856.42946  20383082.9924   20383082.2814
 -42158012.27748 -32811296.56346  20734109.6884                   20734106.3754
 -31902236.29347 -24836314.85244  22462111.5394                   22462112.2464
 -82148811.750 5                  23664420.461
 -16758083.66047 -13036725.47745  22482649.9144                   22482649.0944
 -29436128.79747 -22866511.40545  21274322.4614   21274322.1024
  -4398983.46947  -3405196.04344  23651686.0704                   23651688.8204
 11  8 11  0 14  0.0000000  0  8G17G04G02G09G28G12G10G05
 -73367624.95347 -57157378.94945  22201340.4454   22201338.8204
 -60073653.34448 -46780618.66846  20376547.3754   20376546.6374
 -42278151.52748 -32904911.54046  20711247.5944                   20711244.9774
 -31936597.02347 -24863089.47944  22455573.2584                   22455573.7814
 -82140934.496 5                  23665918.695
 -16933074.81247 -13173082.16445  22449350.1024                   22449349.7704
 -29579279.46947 -22978057.35445  21247081.5944   21247081.1174
  -4593476.23847  -3556748.64644  23614675.3444                   23614677.6994
 11  8 11  0 14 30.0000000  0  8G17G04G02G09G28G12G10G05
 -71837321.69547 -55964934.89045  22492547.5634
                                  22492547.3444
 -58532147.98448 -45579445.67346  20669886.4844                   20669885.3674
 -40822424.85948 -31770579.04646  20988263.5394                   20988260.7664
 -30395012.28147 -23661854.68644  22748927.2344   22748927.6604   23967273.195
 -15532337.78947 -12081598.73645  22715901.4844                   22715901.5824
 -28146432.96547 -21861553.53845  21519742.7424   21519742.4884
  -3212428.96546  -2480607.67244  23877479.0704                   23877481.2584
 11  8 11  0 15  0.0000000  0  8G17G04G02G09G28G12G10G05
 -71882245.98847 -55999940.85045  22483998.8754
                                  22483997.8134
 -58565635.11348 -45605539.56046  20663513.7584                   20663513.7304
 -40941678.71148 -31863504.10646  20965570.0314                   20965567.3244
 -30428325.61747 -23687813.16144  22742588.0234   22742588.5354   23968894.461
 -15706719.98847 -12217480.91045  22682718.1954                   22682717.0554
 -28288434.47747 -21972204.04945  21492721.1644   21492720.5204
  -3406689.58247  -2631979.43644  23840512.7664                   23840514.6294
 11  8 11  0 15 30.0000000  0  7G17G04G02G09G12G10G05
 -71926970.19947 -56034790.94045  22475488.0394                   22475485.9844
 -58598689.85248 -45631296.51046  20657223.8054   20657223.6374
 -41060483.18048 -31956079.00446  20942962.1724                   20942959.3244
 -30461112.96147 -23713361.78144  22736348.5004                   22736348.7704
 -15880786.73847 -12353117.29745  22649593.7814                   22649593.1094
 -28429850.43047 -22082398.27445  21465810.7734   21465809.9384
  -3600822.78947  -2783251.84044  23803570.7194                   23803571.9344
 11  8 11  0 16  0.0000000  0  7G17G04G02G09G12G10G05
 -71971500.57047 -56069489.97345  22467014.3134                   22467013.2624
 -58631321.31648 -45656723.64546  20651014.3984   20651014.0634
 -41178845.62948 -32048309.44546  20920438.4614                   20920435.5314
 -30493383.75047 -23738507.87844  22730208.4384                   22730207.9384
 -16054542.01247 -12488510.96845  22616529.6884                   22616528.2544
 -28570685.19948 -22192139.64345  21439010.7194   21439009.5824
  -3794832.15647  -2934427.81744  23766651.7424                   23766653.0434
 11  8 11  0 16 30.0000000  0  7G17G04G02G09G12G10G05
 -72015834.12947 -56104035.60945  22458578.1564                   22458576.4924
 -58663529.60248 -45681821.02146  20644885.6094   20644885.0864
 -41296764.01248 -32140193.88746  20897999.5394                   20897996.5664
 -30525138.70347 -23763252.04844  22724165.6334                   22724165.7074
 -16227981.48447 -12623658.58245  22583524.6024                   22583523.3284
 -28710933.90647 -22301424.30545  21412322.3444   21412321.7344
  -3988712.96147  -3085503.54144  23729757.4384                   23729759.8984
 11  8 11  0 17  0.0000000  0  7G17G04G02G09G12G10G05
 -72059974.73447 -56138430.92545  22450178.2584                   22450177.3284
 -58695321.60948 -45706594.03946  20638835.7114   20638835.3554
 -41414243.16848 -32231736.06446  20875644.0944                   20875641.1724
 -30556385.56247 -23787600.29544  22718218.8914                   22718219.5204
 -16401106.83247 -12758561.40345  22550580.2194                   22550578.9264
 -28850598.53947 -22410253.85745  21385744.7194   21385744.1564
  -4182466.34447  -3236480.04244  23692887.1334                   23692888.3954
 11  8 11  0 17 30.0000000  0  7G17G04G02G09G12G10G05
 -72103921.05147 -56172674.82645  22441815.7664                   22441814.5394
 -58726698.25448 -45731043.38746  20632865.1724   20632864.3834
 -41531282.07048 -32322935.18546  20853372.3284                   20853369.6374
 -30587125.92647 -23811553.88344  22712370.2504                   22712369.3094
 -16573914.19147 -12893216.45445  22517695.7034                   22517694.8594
 -28989675.09047 -22518625.19145  21359279.1094   21359278.7154
  -4376088.37947  -3387354.15544  23656041.7584                   23656043.5704
 11  8 11  0 18  0.0000000  0  7G17G04G02G09G12G10G05
 -72147676.40647 -56206769.94945  22433489.3754                   22433488.1724
 -58757665.73448 -45755173.90346  20626971.9614   20626971.1254
 -41647885.45347 -32413794.94946  20831183.0944                   20831179.9694
 -30617367.05147 -23835118.42444  22706614.6254                   22706614.7074
 -16746405.33247 -13027625.10245  22484871.9924                   22484869.8874
 -29128165.46147 -22626539.71645  21332925.5784   21332924.8404
  -4569580.49647  -3538127.06344  23619221.4844                   23619222.5124
 11  8 11  0 18 30.0000000  0  7G17G04G02G09G12G10G05
 -72191238.96147 -56240714.82745  22425199.5944                   22425198.0984
 -58788225.88348 -45778987.03546  20621156.8054   20621155.8404
 -41764052.92647 -32504315.05446  20809077.4454                   20809074.0474
 -30647111.05947 -23858295.62844  22700954.8054                   22700956.0554
 -16918576.61747 -13161784.53545  22452108.6644                   22452107.7774
 -29266066.15647 -22733994.78245  21306683.6484   21306682.4924
  -4762938.75447  -3688795.65645  23582426.9534                   23582427.8714
 11  8 11  0 19  0.0000000  0  7G17G04G02G09G12G10G05
 -72234607.82447 -56274508.78345  22416946.4144                   22416945.4224
 -58818379.93748 -45802483.71846  20615418.2274   20615417.7034
 -41879783.36748 -32594494.59346  20787054.6564                   20787051.4694
 -30676359.79747 -23881086.89544  22695389.6724                   22695389.6414
 -17090424.64147 -13295692.07645  22419407.6334                   22419406.3484
 -29403373.59047 -22840987.56545  21280554.6804   21280553.4654
  -4956159.09447  -3839356.78644  23545658.2114                   23545659.0274
 11  8 11  0 19 30.0000000  0  7G17G04G02G09G12G10G05
 -72277782.05947 -56308151.09645  22408731.2424                   22408729.7074
 -58848129.87548 -45825665.49746  20609757.1484   20609756.4144
 -41995077.24248 -32684333.94546  20765115.0634                   20765111.8714
 -30705116.20747 -23903494.55844  22689917.0314                   22689917.1094
 -17261946.28547 -13429345.28245  22386767.4694                   22386767.2424
 -29540085.32447 -22947516.16845  21254539.9384   21254538.7544
  -5149238.43747  -3989808.09344  23508916.0944                   23508918.2114
 11  8 11  0 20  0.0000000  0  7G17G04G02G09G12G10G05
 -72320763.78547 -56341643.38745  22400551.9614                   22400551.3794
 -58877481.00447 -45848536.53346  20604171.5634   20604171.1884
 -42109938.04347 -32773835.85546  20743257.6024                   20743254.6604
 -30733386.53946 -23925523.41444  22684537.3204                   22684537.6174
 -17433142.14847 -13562744.65945  22354189.9454                   22354189.3594
 -29676201.65248 -23053580.81645  21228637.4534   21228637.0904
  -5342176.89847  -4140149.59144  23472200.6804                   23472202.1914
 11  8 11  0 20 30.0000000  0  7G17G04G02G09G12G10G05
 -72363546.07447 -56374980.26445  22392410.6484                   22392410.3204
 -58906429.05547 -45871093.46646  20598663.4304   20598662.3444
 -42224359.60548 -32862995.48846  20721483.8984                   20721481.2274
 -30761167.03147 -23947170.60844  22679251.0554                   22679252.4964
 -17604002.64847 -13695882.68445  22321676.2344                   22321675.0084
 -29811713.70347 -23159174.60546  21202850.0944   21202850.1254
  -5534964.87947  -4290373.83644  23435514.2734                   23435515.4104
 11  8 11  0 21  0.0000000  0  7G17G04G02G09G12G10G05
 -72406127.76647 -56408160.78445  22384307.8364                   22384306.7894
 -58934975.89148 -45893337.77046  20593231.0314   20593229.9614
 -42338341.48848 -32951812.51346  20699794.0084                   20699791.0664
 -30788460.09847 -23968437.99544  22674057.8054                   22674058.0704
 -17774524.96947 -13828757.23945  22289227.0634                   22289226.4184
 -29946618.46147 -23264295.17145  21177178.5394   21177178.3204
  -5727598.96547  -4440478.17844  23398857.3364                   23398857.4804
 11  8 11  0 21 30.0000000  0  7G17G04G02G09G12G10G05
 -72448513.66047 -56441188.80945  22376242.3834                   22376240.9454
 -58963129.33247 -45915275.51546  20587873.6174   20587872.8014
 -42451889.74648 -33040291.65346  20678186.3444                   20678183.3524
 -30815274.48447 -23989332.34544  22668954.5634                   22668955.7154
 -17944712.09047 -13961370.56845  22256841.9384                   22256840.4454
 -30080919.11347 -23368944.99645  21151622.5784   21151621.7584
  -5920081.68047  -4590464.55844  23362229.0234                   23362229.4144
 11  8 11  0 22  0.0000000  0  7G17G04G02G09G12G10G05
 -72490700.42647 -56474061.64545  22368214.2274                   22368214.7384
 -58990888.35948 -45936905.92946  20582590.9694   20582590.0124
 -42565001.83248 -33128430.92546  20656661.8834                   20656658.8284
 -30841610.05147 -24009853.61144  22663943.0634                   22663943.3594
 -18114558.10947 -14093718.11545  22224521.5634                   22224519.8594
 -30214610.20347 -23473119.84146  21126181.3284   21126181.6254
  -6112407.10947  -4740328.36444  23325629.9064                   23325631.1214
 11  8 11  0 22 30.0000000  0  7G17G04G02G09G12G10G05
 -72532687.15247 -56506778.61845  22360224.4924                   22360223.8754
 -59018255.48448 -45958230.98546  20577383.2734   20577382.2504
 -42677678.25048 -33216230.72146  20635220.0004                   20635217.0664
 -30867469.80147 -24030004.12244  22659023.0944                   22659022.3364
 -18284060.30547 -14225797.74145  22192265.5164                   22192264.9614
 -30347689.17247 -23576817.69845  21100857.4774   21100857.3204
  -6304571.86346  -4890067.02444  23289061.6884                   23289063.7114
 11  8 11  0 23  0.0000000  0  7G17G04G02G09G12G10G05
 -72574477.01647 -56539342.15745  22352272.0004                   22352271.7234
 -59045236.35248 -45979255.04446  20572249.2424   20572248.0704
 -42789922.78148 -33303693.96246  20613860.6954                   20613857.6804
 -30892860.93047 -24049789.49144  22654191.0864                   22654191.2074
 -18453219.81647 -14357610.32345  22160075.6954                   22160075.0234
 -30480157.80547 -23680039.98545  21075649.4774   21075648.3164
  -6496576.87946  -5039681.20544  23252524.6564                   23252526.4414
 11  8 11  0 23 30.0000000  0  7G17G04G02G09G12G10G05
 -71040643.50847 -55344147.24645  22644150.9924                   22644150.6804
 -57496407.96948 -44772375.79246  20866981.6414   20866980.2074
 -41326307.62948 -32163214.60746  20892377.5004                   20892374.3404
 -29342360.72746 -22841607.55144  22949241.0474                   22949242.4304
 -17046603.50847 -13261545.63945  22427745.9614                   22427744.8594
 -29036584.39147 -22555177.57845  21350352.3914   21350351.8444
  -5112987.98446  -3961559.84144  23515812.3984                   23515814.1884
 11  8 11  0 24  0.0000000  0  7G17G04G02G09G12G10G05
 -71082030.82047 -55376397.13245  22636275.7814                   22636275.3204
 -57522616.51248 -44792798.03546  20861993.9224   20861993.4384
 -41437682.95748 -32250000.56946  20871183.3134                   20871180.5084
 -29366816.39147 -22860663.97744  22944587.9144                   22944588.2774
 -17215062.64147 -13392812.45945  22395689.6564                   22395688.2114
 -29167817.62547 -22657437.19445  21325379.5234   21325378.5274
  -5304657.60247  -4110912.65844  23479338.8754                   23479339.8634
 11  8 11  0 24 30.0000000  0  7G17G04G02G09G12G10G05
 -71123211.34847 -55408485.87845  22628439.2274                   22628438.8554
 -57548437.98448 -44812918.69646  20857080.4454   20857079.9104
 -41548620.30148 -32336445.23946  20850072.5004                   20850070.0704
 -29390804.63747 -22879356.17644  22940022.2424                   22940022.8364
 -17383163.18747 -13523799.83545  22363701.0314                   22363698.9264
 -29298425.32447 -22759209.39345  21300525.4844   21300524.7704
  -5496150.40647  -4260127.69144  23442899.9844                   23442900.1374
 11  8 11  0 25  0.0000000  0  7G17G04G02G09G12G10G05
 -71164185.54747 -55440413.88145  22620641.5944                   22620641.1254
 -57573875.16848 -44832739.89946  20852239.7974   20852239.0124
 -41659120.60948 -32422549.36346  20829044.9844                   20829042.1604
 -29414328.98047 -22897686.87944  22935546.2274                   22935545.7704
 -17550903.39147 -13654506.43245  22331781.0314                   22331779.5314
 -29428406.09047 -22860493.07845  21275791.4534   21275790.4024
  -5687464.20746  -4409203.26544  23406493.4694                   23406494.3244
 11  8 11  0 25 30.0000000  0  7G17G04G02G09G12G10G05
 -71204953.95747 -55472181.50645  22612883.6644                   22612882.8164
 -57598931.69548 -44852264.48946  20847471.8834   20847470.9184
 -41769185.54748 -32508314.24346  20808100.5944                   20808097.3364
 -29437394.21947 -22915659.85344  22931157.5164                   22931157.4494
 -17718281.39847 -13784930.79545  22299929.7194                   22299928.6214
 -29557758.73847 -22961287.31845  21251176.0474   21251175.3244
  -5878597.45746  -4558138.13344  23370122.2894                   23370123.7504
 11  8 11  0 26  0.0000000  0  7G17G04G02G09G12G10G05
 -71245518.27347 -55503790.09245  22605164.5634                   22605164.0904
 -57623612.42248 -44871496.23046  20842774.9534   20842774.1454
 -41878818.12948 -32593742.21046  20787237.9224                   20787234.7464
 -29460005.91847 -22933279.39444  22926854.5314                   22926854.9144
 -17885297.43747 -13915073.09745  22268147.9064                   22268146.3834
 -29686483.67648 -23061592.42745  21226680.6884   21226680.1134
  -6069549.36346  -4706931.69144  23333785.4384                   23333786.4694
 11  8 11  0 26 30.0000000  0  8G17G04G02G09G28G12G10G05
 -71285874.69547 -55535236.69745  22597485.4064                   22597484.9264
 -57647916.44148 -44890434.46146  20838150.3524   20838149.6454
 -41988015.81648 -32678831.31246  20766458.5864                   20766455.4414
 -29482164.12947 -22950545.60844  22922637.6484                   22922638.3244
   4741251.50815                  24321867.500
 -18051945.60547 -14044928.78245  22236435.9144                   22236434.5124
 -29814575.66048 -23161404.34945  21202305.5084   21202304.8094
  -6260313.94947  -4855579.29444  23297484.3284                   23297484.8164
 11  8 11  0 27  0.0000000  0  8G17G04G02G09G28G12G10G05
 -71326020.99247 -55566519.55845  22589845.3834                   22589844.8054
 -57671843.93748 -44909079.28446  20833597.4454   20833596.0864
 -42096777.14848 -32763580.39046  20745761.6094                   20745758.9804
 -29503870.23047 -22967459.53844  22918506.9064                   22918508.2194
   4756855.527 5                  24324836.867
 -18218221.51247 -14174494.34945  22204794.1644                   22204792.5514
 -29942030.61347 -23260719.86045  21178051.4384   21178051.1884
  -6450886.35547  -5004077.13744  23261218.6094                   23261219.1174
 11  8 11  0 27 30.0000000  0  8G17G04G02G09G28G12G10G05
 -71365956.69547 -55597638.30745  22582245.9144                   22582245.3554
 -57695397.53947 -44927432.76246  20829114.8364   20829114.2624
 -42205102.63348 -32847989.84046  20725148.0394                   20725144.7774
 -29525127.37947 -22984023.57144  22914461.8134                   22914463.2814
   4772735.379 5                  24327858.227
 -18384122.54347 -14303767.83845  22173224.6254                   22173222.5514
 -30068846.68047 -23359537.54445  21153918.9224   21153919.3284
  -6641263.47747  -5152422.85344  23224991.0004                   23224991.0554
 11  8 11  0 28  0.0000000  0  7G17G04G02G09G12G10G05
 -71405677.89547 -55628589.97145  22574687.3914                   22574686.7464
 -57718576.24248 -44945494.13046  20824704.5634   20824703.7774
 -42312989.77048 -32932057.74246  20704617.9454                   20704614.6844
 -29545935.25047 -23000237.59844  22910502.7974                   22910503.2814
 -18549642.70347 -14432744.55045  22141726.8134                   22141725.6484
 -30195018.31248 -23457853.08546  21129909.2974   21129908.6174
  -6831439.30547  -5300611.68444  23188802.1884                   23188802.3094
 11  8 11  0 28 30.0000000  0  7G17G04G02G09G12G10G05
 -71445183.83647 -55659373.87045  22567169.8524                   22567169.1254
 -57741382.22348 -44963265.05146  20820364.7194   20820363.7154
 -42420439.23048 -33015784.57846  20684170.8054                   20684167.9884
 -29566297.47347 -23016104.31544  22906628.1564                   22906628.6644
 -18714779.47747 -14561422.52545  22110302.1644                   22110302.0744
 -30320543.32848 -23555664.76745  21106023.3364   21106022.2194
  -7021410.75447  -5448641.25344  23152651.5554                   23152652.5434
 11  8 11  0 29  0.0000000  0  7G17G04G02G09G12G10G05
 -71484457.59047 -55689976.80345  22559696.2034                   22559694.7464
 -57763801.70748 -44980734.79646  20816098.2034   20816097.2734
 -42527435.26648 -33099158.11346  20663810.4384                   20663808.0634
 -29586200.85947 -23031613.50044  22902840.3364                   22902841.0354
 -18879514.03147 -14689787.09745  22078954.3444                   22078953.4144
 -30445403.53547 -23652958.41345  21082262.5634   21082262.1764
  -7211158.73447  -5596496.71044  23116542.9774                   23116544.9614
 11  8 11  0 29 30.0000000  0  7G17G04G02G09G12G10G05
 -71523488.23847 -55720390.36645  22552268.1174                   22552267.7274
 -57785826.14548 -44997896.72846  20811907.2504   20811906.6454
 -42633967.74248 -33182170.43746  20643537.6724                   20643534.9264
 -29605638.01647 -23046759.37644  22899141.3134                   22899142.5474
 -19043833.02347 -14817827.86845  22047685.7814                   22047684.7274
 -30569586.16848 -23749724.09845  21058631.8444   21058630.8244
  -7400668.85247  -5744166.81744  23080480.8054                   23080482.0554
 11  8 11  0 30  0.0000000  0  7G17G04G02G09G12G10G05
 -71562279.79347 -55750617.56245  22544887.6024                   22544886.2234
 -57807462.41448 -45014756.18346  20807789.8834   20807789.7154
 -42740041.91048 -33264825.61846  20623352.5084                   20623349.0554
 -29624616.96147 -23061548.25244  22895530.2114                   22895530.2734
 -19207738.55947 -14945546.44145  22016495.2344                   22016494.3754
 -30693094.23448 -23845964.13745  21035128.6174   21035127.8984
  -7589943.76247  -5891653.66544  23044463.1024                   23044464.2154
 11  8 11  0 30 30.0000000  0  7G17G04G02G09G12G10G05
 -71600824.62547 -55780652.51245  22537552.7194                   22537552.0984
 -57828706.10248 -45031309.74246  20803747.6174   20803746.8364
 -42845651.47748 -33347118.78346  20603255.7424                   20603252.6764
 -29643133.93047 -23075977.08644  22892006.2424                   22892007.0984
 -19371220.74247 -15072935.13845  21985385.3204                   21985384.5634
 -30815918.57048 -23941671.40746  21011756.4924   21011755.3554
  -7778973.03547  -6038949.11944  23008491.6094                   23008492.3324
 11  8 11  0 31  0.0000000  0  7G17G04G02G09G12G10G05
 -71639130.51247 -55810501.28844  22530263.0314                   22530261.7234
 -57849567.94948 -45047565.74246  20799777.4144   20799776.7584
 -42950805.63747 -33429057.07246  20583245.6804                   20583242.8524
 -29661200.89846 -23090055.31944  22888568.4304                   22888568.9344
 -19534286.00447 -15199998.98245  21954355.2664                   21954354.3444
 -30938065.44147 -24036850.75145  20988512.5234   20988511.9884
  -7967762.09847  -6186057.37844  22972566.0704                   22972566.7234
 11  8 11  0 31 30.0000000  0  7G17G04G02G09G12G10G05
 -71677200.43747 -55840166.17645  22523018.2114                   22523017.0234
 -57870053.50848 -45063528.51946  20795879.0084   20795878.7624
 -43055508.44148 -33510643.66346  20563321.2504                   20563318.3594
 -29678824.39147 -23103787.95544  22885215.1724                   22885215.4694
 -19696934.84047 -15326738.32345  21923404.6174                   21923403.0354
 -31059536.57448 -24131503.55046  20965397.0704   20965396.4734
  -8156311.48447  -6332978.89344  22936686.6564                   22936686.8484
 11  8 11  0 32  0.0000000  0  7G17G04G02G09G12G10G05
 -71715031.91047 -55869645.28945  22515819.3674                   22515818.5124
 -57890163.10248 -45079198.34246  20792052.6334   20792051.5984
 -43159758.33648 -33591877.33446  20543483.2894                   20543480.0084
 -29696005.48447 -23117175.89944  22881945.7814                   22881946.5824
 -19859162.14547 -15453149.18945  21892533.8524                   21892532.5704
 -31180328.09048 -24225626.79446  20942411.4224   20942410.8674
  -8344616.21547  -6479709.77444  22900852.8834                   22900853.8714
 11  8 11  0 32 30.0000000  0  7G17G04G02G09G12G10G05
 -70177204.19947 -54671338.03444  22808458.3594                   22808456.4574
 -56334479.51248 -43866977.36246  21088088.8524   21088088.3794
 -41688133.98448 -32445157.04146  20823523.7894                   20823521.1454
 -28137328.24647 -21902622.26244  23178551.8134                   23178553.5514
 -18445542.09847 -14351627.04945  22161536.6174                   22161535.5204
 -29725015.28547 -23091616.81845  21219348.0554   21219347.1764
  -6957248.10247  -5398643.58644  23164860.1254                   23164860.7734
 11  8 11  0 33  0.0000000  0  7G17G04G02G09G12G10G05
 -70214561.46147 -54700447.62244  22801350.1254                   22801348.4534
 -56353848.73848 -43882070.28846  21084403.6094   21084402.8134
 -41791485.21948 -32525690.45846  20803856.7194                   20803853.9884
 -28153639.50447 -21915332.38444  23175447.4454                   23175448.9144
 -18606924.57847 -14477379.63745  22130826.9614                   22130825.4224
 -29844446.70348 -23184680.24446  21196621.0944   21196620.3674
  -7145059.15247  -5544989.72844  23129120.6644                   23129121.0904
 11  8 11  0 33 30.0000000  0  7G17G04G02G09G12G10G05
 -70251677.55147 -54729369.26845  22794286.1174                   22794285.9614
 -56372847.80948 -43896874.78346  21080787.7894   21080787.2894
 -41894384.56248 -32605871.73546  20784275.6804                   20784272.9884
 -28169517.40647 -21927704.84044  23172426.1644                   23172427.0044
 -18767877.48447 -14602797.46446  22100198.0634                   22100197.3324
 -29963191.99648 -23277209.02946  21174024.4694   21174023.7464
  -7332615.51647  -5691137.43344  23093430.2814                   23093430.5274
 11  8 11  0 34  0.0000000  0  7G17G04G02G09G12G10G05
 -70288553.35947 -54758103.69645  22787269.5944                   22787269.1484
 -56391481.17248 -43911394.29246  21077242.1024   21077241.5084
 -41996834.73048 -32685703.03046  20764780.0474                   20764777.3554
 -28184967.14547 -21939743.67244  23169486.9224                   23169487.3284
 -18928399.75447 -14727879.73445  22069651.6024                   22069650.5204
 -30081250.98048 -23369203.02746  21151558.7194   21151558.3444
  -7519915.89847  -5837085.68744  23057788.3834                   23057788.6454
 11  8 11  0 34 30.0000000  0  7G17G04G02G09G12G10G05
 -70325187.85947 -54786650.06745  22780297.8594                   22780297.3914
 -56409749.88348 -43925629.67046  21073765.9694   21073765.2814
 -42098835.32048 -32765183.99346  20745370.0784                   20745367.1214
 -28199991.01247 -21951450.56344  23166627.5234                   23166628.5824
 -19088488.04347 -14852623.84845  22039187.8914                   22039186.2344
 -30198621.06647 -23460660.22146  21129223.7734   21129222.6374
  -7706956.71947  -5982831.66745  23022195.3914                   23022196.1564
 11  8 11  0 35  0.0000000  0  7G17G04G02G09G12G10G05
 -70361582.02747 -54815009.17545  22773372.4304                   22773371.7974
 -56427657.95348 -43939584.01446  21070358.1804   21070357.5164
 -42200389.01248 -32844316.72746  20726045.1954                   20726042.3524
 -28214593.93047 -21962829.54444  23163848.9384                   23163850.0744
 -19248141.41447 -14977029.02745  22008806.7814                   22008805.5864
 -30315302.39847 -23551580.72045  21107020.0164   21107018.8554
  -7893736.57847  -6128374.31845  22986652.3054                   22986653.0744
 11  8 11  0 35 30.0000000  0  7G17G04G02G09G12G10G05
 -70397730.09847 -54843176.52145  22766494.2504                   22766493.4224
 -56445202.59048 -43953255.16246  21067019.3444   21067018.6484
 -42301491.53148 -32923097.89946  20706805.8444                   20706802.5944
 -28228774.53147 -21973879.44544  23161150.8834                   23161151.3204
 -19407351.98047 -15101089.20345  21978509.5554                   21978509.2234
 -30431288.07447 -23641959.13246  21084948.3134   21084948.1804
  -8080247.32047  -6273707.21245  22951159.7504                   22951161.2544
 11  8 11  0 36  0.0000000  0  7G17G04G02G09G12G10G05
 -70433630.80947 -54871151.16145  22759662.2504                   22759661.6414
 -56462385.50848 -43966644.46646  21063749.3834   21063748.8524
 -42402142.96148 -33001527.57046  20687652.8444                   20687649.7344
 -28242535.14847 -21984602.03944  23158531.7974                   23158532.5354
 -19566116.57047 -15224801.85245  21948298.2344                   21948296.8134
 -30546576.05547 -23731793.91345  21063009.7194   21063008.9804
  -8266485.28947  -6418827.60645  22915720.3674                   22915721.4884
 11  8 11  0 36 30.0000000  0  7G17G04G02G09G12G10G05
 -70469287.42247 -54898935.57645  22752877.1804                   22752876.5434
 -56479212.43048 -43979756.35246  21060547.6414   21060546.9104
 -42502347.24248 -33079608.81946  20668584.1804                   20668581.4384
 -28255882.89147 -21995002.92044  23155991.7344                   23155993.1804
 -19724436.37947 -15348167.91545  21918171.2034                   21918170.0124
 -30661167.82447 -23821086.19245  21041204.5864   21041203.3284
  -8452450.96947  -6563735.84745  22880332.4064                   22880333.0084
 11  8 11  0 37  0.0000000  0  7G17G04G02G09G12G10G05
 -70504697.25047 -54926527.69645  22746138.5314                   22746138.7274
 -56495683.70348 -43992591.11546  21057413.2034   21057412.7464
 -42602103.09047 -33157340.63146  20649601.2504                   20649598.4064
 -28268819.00447 -22005083.07644  23153530.4844                   23153531.7934
 -19882306.88347 -15471183.87345  21888129.1884                   21888127.7034
 -30775059.78547 -23909833.17246  21019530.9304   21019530.6484
  -8638139.54747  -6708428.12145  22844996.5554                   22844997.6254
 11  8 11  0 37 30.0000000  0  7G17G04G02G09G12G10G05
 -70539864.53147 -54953930.85445  22739447.6334                   22739446.6844
 -56511806.54748 -44005154.40846  21054345.1024   21054344.8364
 -42701416.70348 -33234727.84846  20630702.8674                   20630699.8594
 -28281352.12947 -22014849.18344  23151145.8444                   23151146.2384
 -20039730.44547 -15593851.59345  21858172.6254                   21858171.2304
 -30888255.80947 -23998037.84346  20997991.1094   20997990.6644
  -8823553.05147  -6852906.07645  22809713.4384                   22809713.8284
 11  8 11  0 38  0.0000000  0  7G17G04G02G09G12G10G05
 -70574789.28547 -54981144.93645  22732801.1254                   22732800.6914
 -56527583.44148 -44017448.11845  21051343.0944   21051341.4614
 -42800288.92648 -33311771.12646  20611888.1414                   20611884.7194
 -28293485.64847 -22024303.92444  23148836.3054                   23148836.8914
 -20196704.67247 -15716169.17046  21828301.4144                   21828300.1094
 -31000754.38747 -24085699.03046  20976582.9304   20976581.9574
  -9008688.49247  -6997167.37145  22774483.2894                   22774483.5354
 11  8 11  0 38 30.0000000  0  7G17G04G02G09G12G10G05
 -70609465.59447 -55008165.49845  22726202.2424                   22726201.4774
 -56543011.93448 -44029470.32145  21048407.1414   21048405.9884
 -42898715.82447 -33388467.40246  20593157.7584                   20593154.6454
 -28305218.24647 -22033446.26844  23146603.7274                   23146604.1094
 -20353222.37947 -15838131.01246  21798516.8364                   21798516.0594
 -31112548.66047 -24172811.44945  20955309.1804   20955307.7344
  -9193538.07047  -7141205.90145  22739307.6024                   22739307.5554
 11  8 11  0 39  0.0000000  0  7G17G04G02G09G12G10G05
 -70643893.28147 -55034992.29045  22719650.5314                   22719650.3634
 -56558094.09848 -44041222.65445  21045537.0084   21045536.3324
 -42996698.06247 -33464817.18946  20574512.3984                   20574509.7234
 -28316553.35247 -22042278.90444  23144447.3834                   23144448.1214
 -20509280.91447 -15959735.06546  21768820.3834                   21768818.7274
 -31223637.50847 -24259374.17245  20934169.9064   20934168.8674
  -9378099.11747  -7285019.62745  22704186.8754                   22704186.6524
 11  8 11  0 39 30.0000000  0  7G17G04G02G09G12G10G05
 -70678068.71146 -55061622.51744  22713147.6414                   22713146.7074
 -56572829.39848 -44052704.72346  21042732.9614   21042732.6954
 -43094233.47348 -33540818.78146  20555952.2664                   20555949.0984
 -28327491.13347 -22050801.89544  23142365.6564                   23142367.0394
 -20664874.56647 -16080976.83946  21739211.7274                   21739210.1764
 -31334016.37548 -24345383.64446  20913165.3594   20913164.5274
  -9562365.39847  -7428603.62445  22669121.7664                   22669121.9104
 11  8 11  0 40  0.0000000  0  7G17G04G02G09G12G10G05
 -70711997.93747 -55088060.91645  22706691.0084                   22706691.7584
 -56587226.35547 -44063923.13646  21039993.3524   21039993.1134
 -43191329.44948 -33616477.99546  20537475.4144                   20537472.2934
 -28338041.70747 -22059023.15944  23140358.1954                   23140359.8404
 -20820007.30947 -16201859.47346  21709690.4844                   21709689.5204
 -31443690.47347 -24430843.97846  20892294.9694   20892293.5824
  -9746340.50447  -7571960.78145  22634112.3444                   22634113.3054
 11  8 11  0 40 30.0000000  0  7G17G04G02G09G12G10G05
 -70745682.08647 -55114308.32945  22700280.7894                   22700280.3014
 -56601288.86348 -44074880.96646  21037317.3204   21037316.7344
 -43287987.94948 -33691796.29846  20519081.6884                   20519078.5354
 -28348209.99647 -22066946.53044  23138422.9454                   23138425.7304
 -20974678.30947 -16322382.30346  21680257.6484                   21680256.0984
 -31552659.92648 -24515755.20646  20871558.6094   20871557.5664
  -9930022.99647  -7715089.90245  22599158.6884                   22599159.3754
 11  8 11  0 41  0.0000000  0  7G17G04G02G09G12G10G05
 -70779111.77747 -55140357.50744  22693920.1174                   22693918.6254
 -56615010.99248 -44085573.57245  21034706.1024   21034705.6454
 -43384201.93448 -33766768.22246  20500772.7664                   20500770.2424
 -28357991.02347 -22074568.16644  23136562.1094                   23136563.4344
 -21128876.77747 -16442536.93645  21650914.4844                   21650913.0984
 -31660915.06648 -24600109.85446  20850958.3524   20850958.2074
 -10113401.59847  -7857982.23745  22564262.9924                   22564263.8554
 11  8 11  0 41 30.0000000  0  7G17G04G02G09G12G10G05
 -70812274.89147 -55166198.93445  22687609.1254                   22687608.5204
 -56628382.62948 -44095993.05845  21032161.6954   21032161.1884
 -43479960.28548 -33841385.11146  20482550.8054                   20482547.5354
 -28367376.09047 -22081881.27744  23134775.8834                   23134776.9844
 -21282588.14847 -16562311.98745  21621664.7274                   21621662.9654
 -31768442.27048 -24683897.27646  20830496.6954   20830496.3554
 -10296461.17247  -8000625.96445  22529427.5704                   22529428.2464
 11  8 11  0 42  0.0000000  0  8G17G04G02G09G25G12G10G05
 -69269750.96947 -53964232.29145  22981141.3524                   22981141.3914
 -55065987.32848 -42878542.18746  21329475.7114   21329474.4804
 -41999841.71548 -32688045.95946  20764207.9384                   20764204.5004
 -26800949.44947 -20861289.18444  23432856.6724                   23432858.3244
   7591089.82856   5941412.65053  24791551.1024                   24791552.0664
 -19860386.00847 -15454102.49645  21892300.1174                   21892299.3874
 -30299818.01648 -23539514.71146  21109966.6334   21109966.2274
  -8903773.64547  -6915414.81545  22794447.3284                   22794447.5864
 11  8 11  0 42 30.0000000  0  8G17G04G02G09G25G12G10G05
 -69302390.44547 -53989665.68744  22974930.3444                   22974929.1524
 -55078676.47748 -42888429.85046  21327060.5004   21327060.7894
 -42094702.13348 -32761963.15946  20746156.6094                   20746153.5784
 -26809564.18746 -20868002.00344  23431218.1414                   23431219.1254
   7404771.41846   5796229.54143  24756096.7504                   24756097.1134
 -20013126.60947 -15573121.13746  21863235.2274                   21863233.9614
 -30405896.67648 -23622173.37946  21089780.2504   21089780.1174
  -9086197.64147  -7057563.26945  22759733.1174                   22759733.4654
 11  8 11  0 43  0.0000000  0  8G17G04G02G09G25G12G10G05
 -69334784.74647 -54014908.00845  22968765.9304                   22968765.6524
 -55091045.33648 -42898067.94745  21324707.0634   21324706.4964
 -42189132.74648 -32835545.45246  20728187.1254                   20728183.9804
 -26817816.63746 -20874432.57044  23429647.7194                   23429648.9104
   7218663.01646   5651210.07043  24720680.2814                   24720682.0434
 -20165395.70747 -15691772.34745  21834258.6644                   21834258.1414
 -30511266.73848 -23704279.88146  21069729.1564   21069728.7734
  -9268317.12547  -7199474.46645  22725077.0784                   22725077.1254
 11  8 11  0 43 30.0000000  0  8G17G04G02G09G25G12G10G05
 -69366936.05546 -54039961.00445  22962647.9064                   22962647.4184
 -55103098.76647 -42907460.25945  21322413.5084   21322413.3404
 -42283136.84847 -32908795.40546  20710298.8284                   20710294.9654
 -26825712.75846 -20880585.43644  23428144.2814                   23428146.3984
   7032764.11346   5506353.84443  24685305.3444                   24685306.7154
 -20317193.82047 -15810056.55745  21805372.5164                   21805371.4184
 -30615929.73048 -23785835.44646  21049812.5704   21049811.7814
  -9450131.66447  -7341148.03845  22690478.9694                   22690479.4884
 11  8 11  0 44  0.0000000  0  8G17G04G02G09G25G12G10G05
 -69398839.06647 -54064820.51245  22956577.1724                   22956576.9804
 -55114834.26247 -42916604.81145  21320180.2974   21320179.8754
 -42376710.45748 -32981709.88946  20692492.4924                   20692488.9414
 -26833251.07047 -20886459.54944  23426710.8284                   23426711.1294
   6847082.31646   5361666.78143  24649971.6564                   24649972.6024
 -20468513.30547 -15927967.81946  21776577.1094                   21776576.5904
 -30719879.59847 -23866835.31346  21030031.1484   21030030.5164
  -9631633.50047  -7482577.96145  22655940.2194                   22655940.8444
 11  8 11  0 44 30.0000000  0  8G17G04G02G09G25G12G10G05
 -69430489.94547 -54089483.58245  22950554.1644                   22950554.0824
 -55126250.38348 -42925500.52945  21318008.2194   21318007.5904
 -42469851.17248 -33054287.07246  20674768.0234                   20674765.2544
 -26840431.84447 -20892054.97844  23425343.5864                   23425345.4924
   6661623.40646   5217153.43843  24614680.2424                   24614681.9494
 -20619348.60547 -16045501.81945  21747874.5394                   21747873.3134
 -30823111.87148 -23947276.03246  21010386.6334   21010385.8634
  -9812816.42247  -7623759.36345  22621461.7034                   22621462.8364
 11  8 11  0 45  0.0000000  0  8G17G04G02G09G25G12G10G05
 -69461888.23846 -54113949.79344  22944579.1484                   22944577.6724
 -55137349.83647 -42934149.45945  21315895.7274   21315895.3244
 -42562560.37148 -33126527.99246  20657126.1024                   20657122.9264
 -26847258.56647 -20897374.59144  23424045.3284                   23424044.5664
   6476389.64546   5072815.48643  24579430.8594                   24579433.3134
 -20769697.35547 -16162656.65646  21719264.0704                   21719262.4144
 -30925625.21147 -24027156.53546  20990879.0944   20990878.5944
  -9993677.58247  -7764690.07045  22587045.4384                   22587045.4414
 11  8 11  0 45 30.0000000  0  8G17G04G02G09G25G12G10G05
 -69493034.46546 -54138219.61344  22938651.7274                   22938651.3324
 -55148135.63347 -42942554.01245  21313843.4454   21313842.7774
 -42654839.75048 -33198433.99846  20639565.9774                   20639562.8594
 -26853735.74647 -20902421.87344  23422813.3754                   23422812.6094
   6291382.44147   4928654.06043  24544226.1484                   24544228.3054
 -20919557.84447 -16279431.05946  21690746.2194                   21690745.1804
 -31027419.85247 -24106477.02546  20971508.5314   20971507.9614
 -10174214.87146  -7905368.38845  22552690.1414                   22552690.7974
 11  8 11  0 46  0.0000000  0  8G17G04G02G09G25G12G10G05
 -69523923.83246 -54162289.30244  22932774.3674                   22932773.9884
 -55158605.92247 -42950712.69445  21311851.5004   21311849.9384
 -42746685.84448 -33270002.36446  20622088.1644                   20622084.9304
 -26859862.62547 -20907196.08544  23421646.8444                   23421647.2034
   6106608.69947   4784674.54344  24509064.7814                   24509067.6914
 -21068923.23847 -16395819.68546  21662323.7274                   21662321.9734
 -31128490.33648 -24185233.24346  20952275.2734   20952274.5514
 -10354420.89547  -8045788.58345  22518398.0554                   22518398.5744
 11  8 11  0 46 30.0000000  0  8G17G04G02G09G25G12G10G05
 -69554557.43446 -54186159.67644  22926944.9144                   22926943.6254
 -55168764.28948 -42958628.30745  21309918.1024   21309917.2814
 -42838101.19548 -33341235.09546  20604692.3754                   20604689.3134
 -26865644.19546 -20911701.27444  23420546.5004                   23420547.2664
   5922069.19147   4640877.62943  24473947.9844                   24473950.6134
 -21217793.11347 -16511822.18246  21633994.2344                   21633992.6334
 -31228837.11748 -24263425.54346  20933180.4224   20933179.2074
 -10534294.46147  -8185949.74845  22484169.4774                   22484169.1294
 11  8 11  0 47  0.0000000  0  8G17G04G02G09G25G12G10G05
 -69584934.55946 -54209830.18144  22921163.5784                   22921163.3554
 -55178612.98847 -42966302.64145  21308043.8834   21308043.7814
 -42929087.02748 -33412133.15446  20587378.3754                   20587374.6844
 -26871083.91047 -20915940.10444  23419511.8594                   23419512.5824
   5737766.47746   4497265.19844  24438875.1954                   24438878.5514
 -21366164.73447 -16627436.44645  21605759.8834                   21605758.5594
 -31328458.94148 -24341052.92946  20914222.4694   20914222.1524
 -10713832.91047  -8325849.78945  22450003.3834                   22450003.4064
 11  8 11  0 47 30.0000000  0  8G17G04G02G09G25G12G10G05
 -69615052.63346 -54233298.86244  22915433.0784                   22915432.1214
 -55188152.01247 -42973735.68345  21306228.6024   21306228.1724
 -43019642.05947 -33482695.49646  20570146.1024                   20570142.6214
 -26876182.89147 -20919913.40644  23418540.9304                   23418542.5274
   5553705.06347   4353840.80844  24403849.6094                   24403852.5044
 -21514033.54747 -16742658.88646  21577621.7664                   21577620.6484
 -31427352.79747 -24418113.06046  20895403.4534   20895402.7814
 -10893030.98447  -8465484.58845  22415904.4224                   22415902.9534
 11  8 11  0 48  0.0000000  0  8G17G04G02G09G25G12G10G05
 -69644914.02746 -54256567.52144  22909750.4384                   22909750.3404
 -55197386.32847 -42980931.25445  21304471.3204   21304470.9614
 -43109769.73848 -33552924.87346  20552995.3914                   20552992.2774
 -26880947.52747 -20923626.20644  23417634.6804                   23417636.7274
   5369884.81346   4210604.29744  24368869.3444                   24368872.8524
 -21661399.77047 -16857489.71046  21549578.8754                   21549577.5354
 -31525520.60547 -24494607.45846  20876723.1564   20876722.5394
 -11071888.53147  -8604854.05845  22381868.3524                   22381868.2814
 11  8 11  0 48 30.0000000  0  8G17G04G02G09G25G12G10G05
 -69674511.06647 -54279630.15845  22904118.8914                   22904117.8244
 -55206311.03547 -42987885.60145  21302772.9064   21302773.4184
 -43199464.18747 -33622816.64746  20535927.1024                   20535924.1644
 -26885373.81247 -20927075.35744  23416792.8444                   23416794.1414
   5186315.29746   4067563.17743  24333937.9614                   24333940.4024
 -21808254.11347 -16971921.66446  21521633.4454                   21521632.0594
 -31622954.30147 -24570529.82946  20858182.0864   20858181.2584
 -11250395.09447  -8743949.99245  22347899.5084                   22347899.8874
 11  8 11  0 49  0.0000000  0  8G17G04G02G09G25G12G10G05
 -69703843.02347 -54302486.22644  22898536.7344                   22898535.9304
 -55214927.84048 -42994600.00445  21301133.3754   21301133.4804
 -43288725.75048 -33692371.10646  20518941.5944                   20518938.1844
 -26889465.08646 -20930263.43644  23416014.0164                   23416016.7814
   5002999.38746   3924719.68144  24299053.8134                   24299056.9844
 -21954593.83647 -17085952.62146  21493785.8984                   21493784.4804
 -31719652.52047 -24645879.08146  20839780.3914   20839779.7854
 -11428547.57047  -8882770.02945  22313998.3834                   22313998.9304
 11  8 11  0 49 30.0000000  0  8G17G04G02G09G25G12G10G05
 -69732905.48047 -54325132.37644  22893006.5474                   22893006.1804
 -55223235.62547 -43001073.63545  21299552.5474   21299552.5354
 -43377552.14848 -33761586.47646  20502038.2194                   20502035.2344
 -26893221.21946 -20933190.36144  23415299.4064                   23415301.2734
   4819943.10546   3782078.53043  24264218.6414                   24264223.0594
 -22100412.92247 -17199577.86946  21466037.0554                   21466036.7034
 -31815610.92248 -24720651.86546  20821520.5554   20821519.0354
 -11606339.75047  -9021309.31445  22280164.8594                   22280165.6604
 11  8 11  0 50  0.0000000  0  8G17G04G02G09G25G12G10G05
 -69761699.73047 -54347569.50445  22887527.3674                   22887526.6374
 -55231237.58648 -43007308.94945  21298029.9924   21298029.0704
 -43465945.52748 -33830464.41646  20485217.7504                   20485214.0824
 -26896647.14146 -20935860.01444  23414646.9924                   23414649.9844
   4637147.55946   3639640.53343  24229433.9064                   24229437.4454
 -22245710.31647 -17312796.59246  21438387.9694                   21438387.2854
 -31910829.84447 -24794848.41746  20803400.8984   20803399.3404
 -11783769.89847  -9159566.50845  22246401.3674                   22246401.7584
 11  8 11  0 50 30.0000000  0  8G17G04G02G09G25G12G10G05
 -69790224.15646 -54369796.41844  22882098.9774                   22882099.0944
 -55238935.39848 -43013307.25845  21296565.1334   21296564.0314
 -43553906.01648 -33899005.05846  20468479.3524                   20468475.3014
 -26899745.59847 -20938274.46944  23414059.0164                   23414060.3524
   4454616.03946   3497408.28443  24194699.5864                   24194702.4144
 -22390482.98047 -17425606.46046  21410838.8914                   21410837.9614
 -32005307.51648 -24868467.38046  20785422.3204   20785421.2504
 -11960834.50447  -9297538.87145  22212707.1254                   22212707.5164
 11  8 11  0 51  0.0000000  0  8G17G04G02G09G25G12G10G05
 -69818477.53546 -54391812.08144  22876723.2114                   22876721.7384
 -55246330.32448 -43019069.56145  21295157.6484   21295157.3524
 -43641433.96948 -33967208.66246  20451823.4774                   20451819.6454
 -26902519.26646 -20940435.84144  23413529.8594                   23413532.0314
   4272351.92646   3355384.44443  24160015.3754                   24160018.5864
 -22534727.62147 -17538004.85546  21383390.2974                   21383389.0314
 -32099042.78948 -24941507.85546  20767585.8134   20767584.5274
 -12137529.88747  -9435223.51845  22179083.1094                   22179083.1094
 11  8 11  0 51 30.0000000  0  8G17G04G02G09G25G12G10G05
 -68271034.96547 -53186012.71344  23171191.8364                   23171190.9064
 -53678000.52748 -41796994.42045  21593601.2894   21593600.5514
 -42153103.75848 -32807470.83346  20735043.7504                   20735040.2274
 -25329547.49646 -19714743.62943  23712857.1024                   23712858.0514
   5665787.68846   4441178.54443  24425178.8364                   24425180.7974
 -21103013.12147 -16422383.15146  21655836.0314                   21655834.7464
 -30616607.50048 -23786363.44946  21049683.5084   21049681.8954
 -10738423.06647  -8345010.37045  22445324.1724                   22445324.3954
 11  8 11  0 52  0.0000000  0  8G17G04G02G09G25G12G10G05
 -68298742.99646 -53207603.40944  23165918.5084                   23165918.9104
 -53684793.98047 -41802288.04945  21592308.4534   21592308.3094
 -42239767.53948 -32875001.03846  20718551.3914                   20718548.0434
 -25331679.43446 -19716404.94543  23712450.6414                   23712452.6294
   5484068.12947   4299578.90844  24390597.9454                   24390600.2544
 -21246192.41847 -16533951.42146  21628590.1254                   21628588.6684
 -30708852.81247 -23858242.89746  21032129.2664   21032129.2304
 -10914368.45747  -8482110.60145  22411842.5474                   22411842.4614
 11  8 11  0 52 30.0000000  0  8G17G04G02G09G25G12G10G05
 -68326181.64146 -53228984.19944  23160696.7894                   23160697.1174
 -53691293.87947 -41807352.92345  21591070.9774   21591071.0744
 -42326004.89848 -32942198.97546  20702141.1644                   20702137.7274
 -25333499.85246 -19717823.52344  23712104.4064                   23712105.9264
   5302620.46947   4158191.18643  24356069.8984                   24356071.0004
 -21388839.64547 -16645105.07446  21601445.2504                   21601443.9024
 -30800356.37947 -23929544.36546  21014716.8444   21014716.5434
 -11089938.63347  -8618918.46445  22378432.8984                   22378432.6524
 11  8 11  0 53  0.0000000  0  8G17G04G02G09G25G12G10G05
 -68353348.39846 -53250153.15644  23155527.8984                   23155528.0944
 -53697500.43747 -41812189.23845  21589890.0004   21589889.8014
 -42411814.65248 -33009063.71346  20685812.0164                   20685808.5204
 -25335010.16046 -19719000.47043  23711817.6024                   23711817.6094
   5121449.35946   4017018.87343  24321593.4534                   24321594.9964
 -21530950.27047 -16755840.61046  21574402.3284                   21574400.7424
 -30891115.35548 -24000265.63946  20997446.1644   20997446.1054
 -11265128.95747  -8755430.34545  22345095.4454                   22345095.5434
 11  8 11  0 53 30.0000000  0  8G17G04G02G09G25G12G10G05
 -68380235.83247 -53271104.45044  23150411.2734                   23150411.0044
 -53703408.80147 -41816793.18245  21588765.6334   21588765.2304
 -42497191.17648 -33075590.84746  20669565.6254                   20669562.4344
 -25336207.03546 -19719933.16244  23711589.3284                   23711589.9184
   4940564.16046   3876069.33943  24287172.5474                   24287173.8914
 -21672515.32847 -16866151.01946  21547463.3674                   21547461.8674
 -30981122.18747 -24070400.82346  20980319.0944   20980318.2274
 -11439929.32047  -8891638.35045  22311831.8984                   22311832.4264
 11  8 11  0 54  0.0000000  0  8G17G04G02G09G25G12G10G05
 -68406846.70746 -53291840.22944  23145347.2664                   23145346.9224
 -53709024.23848 -41821168.85945  21587697.6884   21587696.7464
 -42582138.61348 -33141783.65446  20653400.3054                   20653397.5944
 -25337096.84046 -19720626.54943  23711420.6174                   23711421.5514
   4759964.29746   3735342.13644  24252805.3444                   24252806.6954
 -21813535.80547 -16976037.08446  21520628.3204                   21520627.1134
 -31070379.38748 -24139951.87846  20963333.6484   20963332.1914
 -11614340.19147  -9027542.87745  22278642.2584                   22278642.6724
 11  8 11  0 54 30.0000000  0  8G17G04G02G09G25G12G10G05
 -68433180.96946 -53312360.48044  23140336.4304                   23140336.3984
 -53714349.55548 -41825318.49445  21586684.5704   21586683.9734
 -42666658.39548 -33207643.22246  20637317.1254                   20637313.3244
 -25337683.86746 -19721084.09644  23711308.5704                   23711309.6094
   4579651.69546   3594838.83144  24218492.7584                   24218495.1994
 -21954009.80547 -17085497.32246  21493896.8674                   21493895.7154
 -31158887.25047 -24208919.02146  20946490.9454   20946490.5554
 -11788359.08247  -9163141.95645  22245527.1724                   22245527.9694
 11  8 11  0 55  0.0000000  0  8G17G04G02G09G25G12G10G05
 -68459237.04346 -53332663.94644  23135378.2974                   23135379.0234
 -53719385.46947 -41829242.60745  21585726.0634   21585725.3524
 -42750750.36348 -33273169.42346  20621314.5634                   20621311.4654
 -25337969.79346 -19721306.95443  23711253.7664                   23711255.6254
   4399630.37546   3454562.50044  24184235.2974                   24184238.6994
 -22093933.51647 -17194528.76746  21467270.5234                   21467269.1024
 -31246643.50447 -24277300.50046  20929791.5864   20929790.7344
 -11961981.71147  -9298432.26245  22212488.7664                   22212488.3594
 11  8 11  0 55 30.0000000  0  8G17G04G02G09G25G12G10G05
 -68485008.98446 -53352746.01444  23130473.7584                   23130473.9024
 -53724128.62147 -41832938.58345  21584823.4144   21584822.6134
 -42834410.26247 -33338358.93746  20605394.7114                   20605391.3014
 -25337953.05146 -19721293.98243  23711258.0164                   23711258.8874
   4219908.14146   3314519.27244  24150034.5394                   24150038.7274
 -22233299.41047 -17303125.54446  21440749.7114                   21440748.7734
 -31333642.47347 -24345091.88446  20913235.7814   20913234.7234
 -12135199.98847  -9433407.47245  22179526.5944                   22179525.8754
 11  8 11  0 56  0.0000000  0  8G17G04G02G09G25G12G10G05
 -68510497.16446 -53372606.94044  23125623.2274                   23125623.5514
 -53728582.02347 -41836408.78545  21583975.6724   21583975.3714
 -42917639.97348 -33403213.25846  20589556.7114                   20589553.0594
 -25337638.34047 -19721048.81144  23711318.2894                   23711320.1024
   4040486.69146   3174710.39043  24115891.4844                   24115895.8954
 -22372106.25047 -17411286.71046  21414335.6484                   21414334.4414
 -31419884.61748 -24412293.54746  20896824.6414   20896823.7034
 -12308011.93747  -9568066.09145  22146640.7424                   22146641.2894
 11  8 11  0 56 30.0000000  0  8G17G04G02G09G25G12G10G05
 -68535702.77046 -53392247.72644  23120826.9224                   23120827.0354
 -53732749.48847 -41839656.17045  21583182.5314   21583182.4454
 -43000442.09448 -33467734.37846  20573800.1024                   20573796.1884
 -25337030.57446 -19720575.31544  23711433.7974                   23711436.3204
   3861367.05946   3035136.71743  24081806.6884                   24081810.0514
 -22510353.20347 -17519011.58446  21388028.1564                   21388026.8794
 -31505370.81647 -24478906.13746  20880557.2814   20880556.4534
 -12480416.20347  -9702407.00445  22113833.1564                   22113833.1454
 11  8 11  0 57  0.0000000  0  8G17G04G02G09G25G12G10G05
 -68560622.92647 -53411666.04244  23116084.8914                   23116084.2194
 -53736630.49647 -41842680.36445  21582444.1884   21582444.1724
 -43082815.44548 -33531921.39146  20558124.8364                   20558121.8094
 -25336130.36346 -19719873.95544  23711605.0864                   23711607.8874
   3682554.32446   2895802.18744  24047780.3284                   24047782.5354
 -22648035.27047 -17626296.30246  21361828.3914                   21361827.1804
 -31590098.21148 -24544927.48446  20864434.0554   20864433.2704
 -12652407.54347  -9836426.18245  22081104.8754                   22081103.4844
 11  8 11  0 57 30.0000000  0  8G17G04G02G09G25G12G10G05
 -68585254.86747 -53430859.82444  23111398.1334                   23111397.9414
 -53740224.52347 -41845480.93145  21581760.4384   21581760.0594
 -43164758.61748 -33595773.20746  20542531.5944                   20542528.1644
 -25334938.80147 -19718945.50344  23711831.6564                   23711834.4144
   3504053.44146   2756710.63144  24013813.6094                   24013815.1094
 -22785148.37148 -17733137.66446  21335736.4844                   21335735.6134
 -31674063.67647 -24610355.10146  20848456.1174   20848455.1994
 -12823980.59447  -9970119.42645  22048455.0554                   22048455.2034
 11  8 11  0 58  0.0000000  0  8G17G04G02G09G25G12G10G05
 -68609595.80547 -53449826.79644  23106765.9224                   23106765.7304
 -53743531.89547 -41848058.12245  21581130.7974   21581130.3554
 -43246270.43748 -33659288.90646  20527020.2734                   20527016.9184
 -25333457.43746 -19717791.28643  23712113.8834                   23712114.7814
   3325868.95347   2617865.59143  23979905.3754                   23979907.0234
 -22921688.07047 -17839532.21746  21309753.8204                   21309752.0274
 -31757265.07047 -24675187.34746  20832623.0864   20832622.3874
 -12995130.41847 -10103482.87745  22015886.2034                   22015886.4494
 11  8 11  0 58 30.0000000  0  8G17G04G02G09G25G12G10G05
 -68633648.54346 -53468569.19944  23102188.4534                   23102188.2974
 -53746557.47347 -41850415.73545  21580554.9064   21580554.3594
 -43327355.15248 -33722471.79746  20511590.3284                   20511587.1334
 -25331692.75846 -19716416.27143  23712449.2584                   23712451.9344
   3148000.49647   2479266.85243  23946058.4304                   23946059.2814
 -23057654.75047 -17945480.27346  21283879.9064                   21283878.0474
 -31839704.91847 -24739426.18546  20816935.4614   20816934.6414
 -13165857.02747 -10236516.53345  21983398.3984                   21983398.1094
 11  8 11  0 59  0.0000000  0  8G17G04G02G09G25G12G10G05
 -68657408.13746 -53487083.22344  23097668.0864                   23097667.1484
 -53749299.21947 -41852552.19345  21580033.5784   21580032.3054
 -43408009.52747 -33785319.34846  20496242.2734                   20496238.9774
 -25329643.74646 -19714819.71343  23712838.9144                   23712841.7734
   2970454.87947   2340919.63043  23912273.2344                   23912273.7344
 -23193042.42647 -18050977.15446  21258116.5474                   21258115.0394
 -31921378.92247 -24803068.24946  20801393.8134   20801392.9024
 -13336153.58647 -10369215.10846  21950991.9144                   21950991.9654
 11  8 11  0 59 30.0000000  0  8G17G04G02G09G25G12G10G05
 -68680880.83647 -53505373.65244  23093200.7424                   23093200.9654
 -53751765.39547 -41854473.92145  21579564.2034   21579563.9264
 -43488241.20347 -33847837.52846  20480974.6174                   20480971.3364
 -25327320.64546 -19713009.59643  23713281.5704                   23713282.6454
   2793228.24647   2202821.00743  23878547.2664                   23878548.8874
 -23327855.16047 -18156026.04046  21232462.2894                   21232461.3204
 -32002292.96947 -24866118.15245  20785996.0164   20785994.7464
 -13506023.69547 -10501581.38645  21918667.1414                   21918667.0004
 11  8 11  1  0  0.0000000  0  8G17G04G02G09G25G12G10G05
 -68704067.84446 -53523441.51144  23088788.0474                   23088788.1804
 -53753959.76247 -41856183.84145  21579146.9534   21579146.4024
 -43568052.92248 -33910028.48146  20465787.2274                   20465783.9774
 -25324728.55546 -19710989.86243  23713774.0314                   23713775.4844
   2616321.37147   2064971.52443  23844883.6644                   23844885.3834
 -23462092.52747 -18260626.57846  21206917.6644                   21206916.6804
 -32082448.96947 -24928577.37846  20770742.8754   20770742.2854
 -13675466.35247 -10633614.57145  21886422.8754                   21886423.1884
 11  8 11  1  0 30.0000000  0  8G17G04G02G09G25G12G10G05
 -68726962.81647 -53541281.78644  23084430.6174                   23084431.7664
 -53755878.27047 -41857678.82045  21578781.8984   21578781.1764
 -43647439.57447 -33971888.19646  20450680.0864                   20450677.6954
 -25321864.38746 -19708758.16043  23714319.9614                   23714320.5474
   2439743.19547   1927378.17244  23811281.1254                   23811284.9774
 -23595746.09448 -18364772.19246  21181484.7504                   21181483.2934
 -32161840.10548 -24990440.58946  20755635.0004   20755634.7034
 -13844472.34447 -10765307.47046  21854262.0704                   21854262.5744
 11  8 11  1  1  0.0000000  0  8G17G04G02G09G25G12G10G05
 -68749566.96547 -53558895.43644  23080130.2734                   23080130.4224
 -53757524.60247 -41858961.69645  21578468.5784   21578468.2344
 -43726404.19148 -34033419.05946  20435653.7504                   20435650.8134
 -25318733.50447 -19706318.57344  23714915.8834                   23714917.1724
   2263494.43447   1790041.57344  23777742.1414                   23777746.6724
 -23728815.55948 -18468462.67646  21156162.5004                   21156160.8954
 -32240467.99648 -25051709.05346  20740672.9144   20740671.7624
 -14013040.33247 -10896659.09945  21822184.1094                   21822184.6564
 11  8 11  1  1 30.0000000  0  8G17G04G02G09G25G12G10G05
 -67196456.32847 -52348679.39644  23375677.7974                   23375677.4344
 -52183478.41048 -40632432.22445  21877999.4144   21877999.2154
 -42229522.40248 -32867017.65846  20720501.1414                   20720497.8094
 -23739916.77046 -18476071.89244  24015355.1884                   24015356.8014
   3663006.25047   2880570.29844  24044060.9304                   24044064.5634
 -22285871.80148 -17344090.90646  21430745.2274                   21430743.6684
 -30742907.38748 -23884778.69346  21025648.9534   21025648.0004
 -12605739.84847  -9800061.25245  22089984.4384                   22089984.5354
 11  8 11  1  2  0.0000000  0  8G17G04G02G09G25G12G10G05
 -67218471.22347 -52365833.83944  23371488.1954                   23371488.1684
 -52184580.47347 -40633290.98445  21877789.2114   21877789.2424
 -42307640.07448 -32927888.56446  20705635.5784                   20705632.5124
 -23736256.70746 -18473220.00043  24016051.0394                   24016052.8914
   3487430.17247   2743757.87144  24010649.1024                   24010653.1724
 -22417760.46148 -17446861.29246  21405647.8984                   21405645.7234
 -30820002.41847 -23944852.72146  21010978.1414   21010977.4534
 -12773418.26247  -9930719.71946  22058076.6484                   22058076.6724
 11  8 11  1  2 30.0000000  0  8G17G04G02G09G25G12G10G05
 -67240191.13347 -52382758.48744  23367355.1024                   23367354.4344
 -52185413.60547 -40633940.20745  21877630.7344   21877630.6414
 -42385336.18448 -32988430.98346  20690850.8444                   20690847.5744
 -23732337.54746 -18470166.16743  24016796.7814                   24016798.9774
   3312194.22346   2607210.43444  23977303.0944                   23977306.6884
 -22549055.41848 -17549169.05046  21380663.5164                   21380662.1134
 -30896331.00847 -24004329.53046  20996453.5474   20996452.5744
 -12940647.78547 -10061028.38045  22026253.4534                   22026253.0824
 11  8 11  1  3  0.0000000  0  8G17G04G02G09G25G12G10G05
 -67261618.16047 -52399454.91044  23363277.8364                   23363277.5944
 -52185982.32447 -40634383.38645  21877522.8054   21877522.3444
 -42462614.52348 -33048647.88146  20676144.7734                   20676141.2734
 -23728165.23846 -18466915.09643  24017591.5164                   24017592.6684
   3137298.34846   2470927.96344  23944020.9384                   23944023.6374
 -22679757.66847 -17651014.95446  21355791.4534                   21355790.5904
 -30971895.68747 -24063211.10246  20982074.0634   20982072.9884
 -13107428.10247 -10190987.01845  21994516.8054                   21994516.1024
 11  8 11  1  3 30.0000000  0  8G17G04G02G09G25G12G10G05
 -67282746.62547 -52415918.72944  23359257.4454                   23359257.0434
 -52186283.23048 -40634617.91445  21877466.2344   21877465.9614
 -42539470.62948 -33108535.75646  20661519.9224                   20661516.6764
 -23723737.48846 -18463465.01443  24018432.8754                   24018435.9184
   2962750.60247   2334916.83644  23910806.2584                   23910808.6994
 -22809859.46148 -17752392.96946  21331033.5554                   21331033.0164
 -31046691.04747 -24121493.19146  20967840.9694   20967839.6994
 -13273751.17647 -10320589.35645  21962866.1804                   21962865.4264
 11  8 11  1  4  0.0000000  0  8G17G04G02G09G25G12G10G05
 -67303574.89847 -52432148.59844  23355294.2344                   23355293.5234
 -52186317.25047 -40634644.43045  21877459.8914   21877458.4884
 -42615904.60247 -33168094.67946  20646974.8594                   20646971.6254
 -23719056.78146 -18459817.82243  24019324.5314                   24019326.8954
   2788554.62946   2199179.80644  23877657.1884                   23877660.1454
 -22939357.84448 -17853300.79346  21306391.1024                   21306389.9574
 -31120715.88747 -24179174.85846  20953754.6254   20953753.0434
 -13439612.85947 -10449832.15745  21931303.8754                   21931302.8204
 11  8 11  1  4 30.0000000  0  8G17G04G02G09G25G12G10G05
 -67324109.53946 -52448149.64044  23351385.7584                   23351385.2274
 -52186093.09847 -40634469.79645  21877502.4534   21877502.1094
 -42691924.41048 -33227330.89146  20632508.9924                   20632505.3554
 -23714133.48446 -18455981.58343  24020261.3674                   24020264.6684
   2614706.18446   2063713.58743  23844575.2814                   23844577.5354
 -23068257.34848 -17953741.95546  21281862.1484                   21281861.2194
 -31193977.15647 -24236261.56045  20939813.0864   20939811.9144
 -13605017.43447 -10578718.79745  21899828.3364                   21899827.9534
 11  8 11  1  5  0.0000000  0  8G17G04G02G09G25G12G10G05
 -67344351.38747 -52463922.55744  23347534.4384                   23347532.8404
 -52185613.83647 -40634096.37145  21877592.9924   21877592.5084
 -42767532.55147 -33286246.32846  20618120.7894                   20618117.2424
 -23708972.10546 -18451959.83043  24021243.8674                   24021246.5984
   2441206.71147   1928519.22044  23811559.4224                   23811561.2114
 -23196557.31248 -18053715.94446  21257447.3054                   21257446.3794
 -31266475.87147 -24292754.04246  20926017.6414   20926016.3094
 -13769963.60947 -10707248.23146  21868440.0864                   21868439.5274
 11  8 11  1  5 30.0000000  0  8G17G04G02G09G25G12G10G05
 -67364298.95747 -52479466.10044  23343738.2114                   23343736.9884
 -52184880.53947 -40633524.98445  21877732.7194   21877731.9344
 -42842729.24648 -33344841.14246  20603811.7344                   20603808.1054
 -23703575.45746 -18447754.72643  24022270.7344                   24022273.5004
   2268059.75447   1793599.55444  23778610.3054                   23778612.4304
 -23324254.63348 -18153220.34946  21233147.7274                   21233146.1564
 -31338211.56648 -24348651.98345  20912366.2894   20912364.2074
 -13934447.29747 -10835417.29346  21837139.9224                   21837139.8794
 11  8 11  1  6  0.0000000  0  8G17G04G02G09G25G12G10G05
 -67383947.62946 -52494776.77044  23339998.9614                   23339999.3324
 -52183890.77347 -40632753.76645  21877921.2974   21877920.8324
 -42917510.90648 -33403112.53646  20589581.1254                   20589578.1334
 -23697942.29347 -18443365.40143  24023342.9534                   24023344.4884
   2095272.37547   1658960.11844  23745730.0944                   23745732.6414
 -23451342.76248 -18252250.04946  21208963.3754                   21208962.7154
 -31409179.72347 -24403951.81846  20898861.6954   20898860.6564
 -14098461.36347 -10963220.38646  21805929.0634                   21805929.1214
 11  8 11  1  6 30.0000000  0  8G17G04G02G09G25G12G10G05
 -67403299.65647 -52509856.37244  23336317.3134                   23336316.0824
 -52182649.52747 -40631786.57245  21878157.6094   21878157.2344
 -42991881.76647 -33461063.85946  20575428.8054                   20575425.9414
 -23692078.69546 -18438796.41443  24024458.9774                   24024460.9884
   1922844.11347   1524600.49244  23712917.8754                   23712920.5514
 -23577822.67248 -18350805.81946  21184895.3754                   21184893.5664
 -31479383.44148 -24458656.02746  20885502.6254   20885501.5084
 -14262006.25847 -11090657.91946  21774807.3914                   21774807.0314
 11  8 11  1  7  0.0000000  0  8G17G04G02G09G25G12G10G05
 -67422354.20747 -52524704.12044  23332691.0784                   23332690.3164
 -52181157.68747 -40630624.14145  21878441.6804   21878441.0864
 -43065842.23848 -33518695.40346  20561354.7504                   20561351.3094
 -23685987.29346 -18434049.98543  24025617.8444                   24025619.6604
   1750778.52047   1390523.44044  23680174.9614                   23680177.0004
 -23703691.62948 -18448885.51946  21160943.1334                   21160941.6804
 -31548821.92248 -24512763.91146  20872288.4384   20872287.8444
 -14425078.20747 -11217726.93346  21743775.9534                   21743775.1564
 11  8 11  1  7 30.0000000  0  8G17G04G02G09G25G12G10G05
 -67441111.68446 -52539320.32844  23329120.8054                   23329121.2774
 -52179417.94147 -40629268.49745  21878772.1414   21878772.1764
 -43139394.16448 -33576008.56946  20547357.9384                   20547354.6294
 -23679672.36746 -18429129.40143  24026820.3594                   24026821.8284
   1579077.39847   1256730.37744  23647501.6884                   23647503.7734
 -23828948.52048 -18546488.27946  21137107.6724                   21137105.8164
 -31617496.35548 -24566276.44546  20859220.3674   20859219.5744
 -14587675.36747 -11344425.94446  21712834.6174                   21712834.3014
 11  8 11  1  8  0.0000000  0  8G17G04G02G09G25G12G10G05
 -67459572.33646 -52553705.28244  23325608.6024                   23325609.5514
 -52177432.91447 -40627721.75245  21879150.1724   21879150.0744
 -43212539.78547 -33633005.14646  20533438.7114                   20533435.5314
 -23673138.12146 -18424037.94943  24028063.4454                   24028065.8364
   1407742.65247   1123222.78044  23614896.9774                   23614899.4534
 -23953591.89848 -18643612.97746  21113389.1024                   21113387.2624
 -31685407.66848 -24619194.35246  20846297.0474   20846296.4414
 -14749795.89847 -11470753.57946  21681984.0394                   21681983.4844
 11  8 11  1  8 30.0000000  0  8G17G04G02G09G25G12G10G05
 -67477733.78146 -52567857.07744  23322152.8914                   23322154.4064
 -52175202.37947 -40625983.71145  21879574.9064   21879574.5904
 -43285277.97347 -33689684.26346  20519597.5634                   20519593.7814
 -23666385.90646 -18418776.59643  24029348.7734                   24029350.5514
   1236779.05947    990004.37543  23582364.0704                   23582366.1214
 -24077617.78948 -18740256.52846  21089787.7974                   21089785.7114
 -31752553.81248 -24671516.00346  20833519.7814   20833518.5204
 -14911434.78147 -11596705.88946  21651224.4614                   21651225.1374
 11  8 11  1  9  0.0000000  0  8G17G04G02G09G25G12G10G05
 -67495598.82846 -52581777.96244  23318753.1334                   23318753.7934
 -52172731.52747 -40624058.40045  21880044.9534   21880043.8834
 -43357612.98048 -33746049.18746  20505832.5314                   20505829.2624
 -23659421.94146 -18413350.23943  24030673.1954                   24030675.1884
   1066185.88347    857074.59144  23549901.4454                   23549902.3444
 -24201027.30548 -18836419.76646  21066303.3524                   21066301.9144
 -31818938.18048 -24723244.08246  20820887.6644   20820886.4844
 -15072592.45747 -11722283.25846  21620557.8134                   21620557.3634
 11  8 11  1  9 30.0000000  0  8G17G04G02G09G25G12G10G05
 -67513168.46546 -52595468.61644  23315409.2274                   23315410.5084
 -52170023.52747 -40621948.31344  21880559.7734   21880559.3554
 -43429547.22748 -33802101.85046  20492143.6564                   20492140.8634
 -23652251.22346 -18407762.78743  24032038.2584                   24032040.8954
    895964.49247    724434.52044  23517508.9614                   23517510.4384
 -24323820.00048 -18932102.37946  21042936.5084                   21042935.3554
 -31884562.85248 -24774380.19446  20808399.1884   20808399.0084
 -15233267.63347 -11847484.63846  21589982.2424                   21589981.9264
 11  8 11  1 10  0.0000000  0  8G17G04G02G09G25G12G10G05
 -67530431.37946 -52608920.25544  23312125.3444                   23312125.3014
 -52167069.62947 -40619646.59145  21881122.3834   21881121.6214
 -43501071.48847 -33857835.02246  20478533.2424                   20478529.8444
 -23644866.46946 -18402008.55943  24033444.0084                   24033446.1134
    726128.13347    592094.52344  23485190.3984                   23485190.8094
 -24445983.82848 -19027294.96346  21019689.5554                   21019688.5314
 -31949417.62948 -24824916.37446  20796057.8914   20796056.7424
 -15393447.07847 -11972299.74946  21559501.3204                   21559500.8794
 11  8 11  1 10 30.0000000  0  8G17G04G02G09G25G12G10G05
 -67547394.39147 -52622138.22744  23308897.3284                   23308896.8874
 -52163878.30947 -40617159.88445  21881729.7114   21881728.9614
 -43572193.46148 -33913254.74046  20464999.2504                   20464995.7704
 -23637277.61346 -18396095.31843  24034888.0944                   24034889.4844
    556672.86346    460051.44244  23452943.8204                   23452945.5204
 -24567523.09448 -19122000.89646  20996561.2274                   20996560.4184
 -32013509.24648 -24874857.90646  20783861.6724   20783860.3674
 -15553135.03947 -12096731.85246  21529113.3524                   21529112.8714
 11  8 11  1 11  0.0000000  0  8G17G04G02G09G25G12G10G05
 -67564057.27346 -52635122.24844  23305726.4694                   23305727.4534
 -52160451.51247 -40614489.65145  21882382.1094   21882381.5004
 -43642914.64147 -33968362.13246  20451540.7194                   20451538.0514
 -23629488.23046 -18390025.80143  24036369.7424                   24036371.3554
    387601.08247    328307.19944  23420771.5084                   23420772.6644
 -24688436.06248 -19216218.77946  20973552.3134                   20973551.2234
 -32076838.25848 -24924205.18446  20771810.3524   20771809.1844
 -15712328.73847 -12220778.84446  21498820.0314                   21498819.2344
 11  8 11  1 11 30.0000000  0  8G17G04G02G09G25G12G10G05
 -67580417.78147 -52647870.72044  23302612.6564                   23302612.3954
 -52156789.28547 -40611636.00145  21883078.3594   21883078.0234
 -43713234.16448 -34023156.55246  20438159.8984                   20438156.6564
 -23621499.59046 -18383800.98043  24037889.9774                   24037891.4734
    218917.30547    196865.34244  23388671.7584                   23388674.0354
 -24808718.98848 -19309945.71746  20950663.2034                   20950661.9734
 -32139403.22348 -24972957.10346  20759904.7894   20759903.8404
 -15871023.69947 -12344437.22346  21468621.3364                   21468620.5164
 11  8 11  1 12  0.0000000  0  8G17G04G02G09G25G12G10G05
 -66021057.76646 -51432785.00744  23599348.5784                   23599349.2034
 -50577476.58647 -39381002.76844  22183612.2344   22183610.9614
 -42207734.20348 -32850039.70746  20724647.3524                   20724643.2774
 -22037898.53946 -17149826.27543  24339240.2114                   24339241.2384
   1626046.83247   1293329.93744  23656439.0704                   23656441.9844
 -23352949.00048 -18175579.48546  21227687.1174                   21227685.8134
 -30625785.49647 -23793514.74346  21047936.6954   21047935.6564
 -14453795.02347 -11240103.15046  21738311.4454                   21738310.4344
 11  8 11  1 12 30.0000000  0  8G17G04G02G09G25G12G10G05
 -66036815.35546 -51445063.69844  23596350.2584                   23596349.7664
 -50573352.12947 -39377788.93745  22184396.6414   22184395.5704
 -42277257.42247 -32904213.63546  20711416.8364                   20711413.4924
 -22029525.02746 -17143301.63143  24340833.3054                   24340836.1644
   1458143.78147   1162496.45344  23624488.5634                   23624490.5434
 -23471969.47348 -18268322.71946  21205038.6024                   21205036.3524
 -30686826.98848 -23841079.54246  21036320.4534   21036320.1524
 -14611487.71947 -11362980.52046  21708302.7814                   21708302.2854
 11  8 11  1 13  0.0000000  0  8G17G04G02G09G25G12G10G05
 -66052270.70346 -51457106.83644  23593409.3524                   23593407.6254
 -50568998.43747 -39374396.48145  22185226.3984   22185225.2234
 -42346383.53948 -32958078.14546  20698262.9304                   20698259.9614
 -22020963.46546 -17136630.38443  24342462.7424                   24342465.9454
   1290635.60947   1031970.63344  23592612.2814                   23592614.6174
 -23590355.23847 -18360571.35846  21182510.6094                   21182508.7894
 -30747107.12547 -23888051.06346  21024849.8594   21024849.5124
 -14768674.85247 -11485463.94646  21678390.8364                   21678390.5354
 11  8 11  1 13 30.0000000  0  8G17G04G02G09G25G12G10G05
 -66067426.71546 -51468916.73944  23590524.6884                   23590524.3094
 -50564421.35247 -39370829.95445  22186096.5784   22186096.0514
 -42415117.62148 -33011637.16246  20685183.1724                   20685180.0354
 -22012221.05146 -17129818.27243  24344125.7424                   24344130.7854
   1123521.19547    901751.65044  23560812.0164                   23560813.5704
 -23708108.56647 -18452327.19646  21160102.6094                   21160100.6214
 -30806630.18748 -23934432.65246  21013522.8134   21013522.0314
 -14925357.57847 -11607554.32346  21648575.0164                   21648574.4144
 11  8 11  1 14  0.0000000  0  8G17G04G02G09G25G12G10G05
 -66082280.53146 -51480491.18644  23587698.5634                   23587697.8014
 -50559619.66847 -39367088.40345  22187009.9614   22187009.8874
 -42483457.89148 -33064889.31146  20672178.3524                   20672175.2464
 -22003297.89846 -17122865.35243  24345824.2734                   24345828.6764
    956806.10947    771843.87044  23529086.4694                   23529089.7154
 -23825224.79747 -18543586.59446  21137816.2274                   21137814.6804
 -30865393.42247 -23980222.19346  21002340.6254   21002340.0204
 -15081530.23847 -11729247.25746  21618856.6094                   21618856.3954
 11  8 11  1 14 30.0000000  0  8G17G04G02G09G25G12G10G05
 -66096834.59446 -51491831.99844  23584929.2814                   23584928.6604
 -50554597.71547 -39363175.21145  22187965.3754   22187965.9884
 -42551407.88748 -33117837.35146  20659248.2424                   20659245.3164
 -21994200.18746 -17115776.37143  24347555.4774                   24347558.8094
    790490.36747    642247.25044  23497438.6644                   23497440.8634
 -23941704.69547 -18634350.13746  21115650.7584                   21115649.6884
 -30923400.05947 -24025422.15946  20991302.9144   20991301.6334
 -15237192.64148 -11850542.58746  21589235.1564                   21589234.4614
 11  8 11  1 15  0.0000000  0  8G17G04G02G09G25G12G10G05
 -66111088.92246 -51502939.28744  23582217.5084                   23582216.6564
 -50549357.42647 -39359091.90845  22188962.5784   22188963.1644
 -42618969.68048 -33170482.90546  20646391.5784                   20646388.2934
 -21984931.40246 -17108554.11743  24349319.8134                   24349322.4064
    624576.21147    512963.54644  23465865.6024                   23465867.7734
 -24057546.60947 -18724616.55946  21093606.8134                   21093605.6414
 -30980651.43447 -24070033.60146  20980407.7894   20980406.6684
 -15392342.86748 -11971438.81946  21559710.8204                   21559709.9304
 11  8 11  1 15 30.0000000  0  8G17G04G02G09G25G12G10G05
 -66125039.96946 -51513810.23144  23579561.5554                   23579560.9494
 -50543897.57047 -39354837.49545  22190001.7894   22190002.6564
 -42686140.82048 -33222824.04146  20633609.1954                   20633605.8134
 -21975491.68746 -17101198.63743  24351115.3444                   24351117.8954
    459069.55147    383997.34744  23434370.7504                   23434373.1484
 -24172745.75847 -18814382.12146  21071685.2344                   21071683.7584
 -31037144.92647 -24114054.49046  20969657.4304   20969656.3484
 -15546975.21548 -12091931.49646  21530285.0084                   21530284.7704
 11  8 11  1 16  0.0000000  0  8G17G04G02G09G25G12G10G05
 -66138691.06646 -51524447.44944  23576963.8204                   23576964.0704
 -50538223.77747 -39350416.40645  22191080.8134   22191081.5124
 -42752926.30548 -33274864.68646  20620900.2114                   20620897.1374
 -21965887.95346 -17093715.32343  24352942.8444                   24352946.1524
    293969.08247    255347.65844  23402953.0944                   23402954.2154
 -24287304.12547 -18903648.37946  21049885.5164                   21049883.9344
 -31092884.75047 -24157488.12446  20959050.4924   20959050.0204
 -15701090.69947 -12212021.43246  21500957.9614                   21500957.6134
 11  8 11  1 16 30.0000000  0  8G17G04G02G09G25G12G10G05
 -66152041.98846 -51534850.81743  23574422.7814                   23574423.4924
 -50532337.59447 -39345829.78745  22192201.2584   22192201.8954
 -42819327.68748 -33326606.03146  20608264.9304                   20608261.4734
 -21956123.70746 -17086107.00343  24354802.3054                   24354803.4654
    129277.52047    127016.58144  23371613.6804                   23371614.9574
 -24401220.40647 -18992414.28946  21028207.7664                   21028206.4654
 -31147871.78147 -24200335.14246  20948586.6174   20948586.3714
 -15854686.76248 -12331706.63146  21471729.8524                   21471729.2304
 11  8 11  1 17  0.0000000  0  8G17G04G02G09G25G12G10G05
 -66165088.46946 -51545016.90744  23571940.8984                   23571940.6764
 -50526236.73447 -39341075.91044  22193362.4534   22193362.7154
 -42885341.83248 -33378045.62346  20595702.3284                   20595699.4964
 -21946197.75846 -17078372.68643  24356691.5394                   24356692.3954
    -34998.46547      -990.65644  23340352.9384                   23340354.1374
 -24514488.43447 -19080675.08146  21006653.6174                   21006652.1174
 -31202102.84447 -24242593.11446  20938267.4064   20938265.8164
 -16007756.97348 -12450982.05846  21442601.0944                   21442600.4924
 11  8 11  1 17 30.0000000  0  8G17G04G02G09G25G12G10G05
 -66177833.34446 -51554947.98144  23569516.0704                   23569515.8524
 -50519926.05947 -39336158.50745  22194563.4384   22194563.4454
 -42950973.12948 -33429186.91446  20583213.5314                   20583209.9614
 -21936116.89146 -17070517.60643  24358610.0864                   24358611.3874
   -198859.43047   -128674.53644  23309170.7814                   23309172.6604
 -24627109.83247 -19168432.01146  20985222.5554                   20985221.2734
 -31255581.88747 -24284265.07046  20928089.8204   20928089.0044
 -16160301.77348 -12569848.09646  21413572.6174                   21413572.3984
 11  8 11  1 18  0.0000000  0  8G17G04G02G09G25G12G10G05
 -66190282.19546 -51564648.41844  23567146.4454                   23567147.8594
 -50513413.39847 -39331083.71944  22195802.3754   22195802.4384
 -43016229.03148 -33480035.67446  20570795.6484                   20570792.5744
 -21925890.48446 -17062549.16243  24360556.0944                   24360558.9454
   -362308.82447   -256037.64644  23278067.5164                   23278069.0204
 -24739089.04347 -19255688.52346  20963913.4694                   20963911.9924
 -31308315.76247 -24325356.39246  20918054.9844   20918054.4494
 -16312324.91448 -12688307.64046  21384644.0944                   21384643.6644
 11  8 11  1 18 30.0000000  0  8G17G04G02G09G25G12G10G05
 -66202427.07446 -51574112.00344  23564836.0084                   23564836.9734
 -50506692.14847 -39325846.41944  22197082.1644   22197081.3634
 -43081102.32048 -33530586.30946  20558450.5314                   20558447.5744
 -21915513.64846 -17054463.48444  24362530.5784                   24362535.1604
   -525335.87146   -383071.72344  23247044.3674                   23247045.0274
 -24850416.33247 -19342437.05246  20942728.5864                   20942727.2154
 -31360297.09847 -24365861.32646  20908163.5474   20908162.3204
 -16463815.70348 -12806352.37946  21355815.9144                   21355815.4694
 11  8 11  1 19  0.0000000  0  8G17G04G02G09G25G12G10G05
 -66214269.71546 -51583340.04244  23562582.1884                   23562582.0944
 -50499766.28947 -39320449.64444  22198399.5164   22198398.8794
 -43145596.30948 -33580841.35546  20546177.3364                   20546174.5164
 -21904991.62546 -17046264.66843  24364532.2114                   24364537.5354
   -687940.00047   -509776.21244  23216102.0314                   23216102.1414
 -24961092.32047 -19428678.05346  20921667.8134                   20921666.6024
 -31411528.95747 -24405782.25946  20898414.6174   20898414.0084
 -16614773.78148 -12923981.99146  21327089.6884                   21327088.8754
 11  8 11  1 19 30.0000000  0  8G17G04G02G09G25G12G10G05
 -66225811.20346 -51592333.43444  23560385.6804                   23560385.8054
 -50492638.74247 -39314895.74844  22199756.8204   22199755.7774
 -43209713.89148 -33630803.11546  20533976.9454                   20533973.3984
 -21894328.80546 -17037956.11743  24366561.3984                   24366567.8524
   -850120.00847   -636150.21544  23185240.2274                   23185242.3984
 -25071116.75848 -19514411.38246  20900730.6484                   20900729.5394
 -31462013.31248 -24445120.71446  20888807.4454   20888807.1134
 -16765198.09448 -13041195.69146  21298464.9694                   21298464.0864
 11  8 11  1 20  0.0000000  0  8G17G04G02G09G25G12G10G05
 -66237048.51246 -51601089.75844  23558247.8754                   23558247.9844
 -50485308.63747 -39309183.99644  22201151.0084   22201150.9184
 -43273453.08248 -33680470.01646  20521847.0634                   20521844.5274
 -21883526.02746 -17029538.54943  24368617.2584                   24368622.2934
  -1011870.50047   -762189.54544  23154460.1724                   23154462.1484
 -25180485.01248 -19599633.38646  20879918.8054                   20879917.4304
 -31511748.52747 -24483875.41145  20879342.8754   20879342.2424
 -16915083.43448 -13157989.41046  21269942.9064                   21269942.3754
 11  8 11  1 20 30.0000000  0  8G17G04G02G09G25G12G10G05
 -66247986.16046 -51609612.66244  23556166.5394                   23556166.2544
 -50477781.92647 -39303319.05144  22202583.5164   22202583.5044
 -43336820.01648 -33729846.85246  20509789.2584                   20509786.0904
 -21872590.97746 -17021017.92543  24370698.9694                   24370701.8594
  -1173193.54347   -887895.74044  23123761.0474                   23123763.0204
 -25289200.55148 -19684346.79446  20859230.7114                   20859229.4774
 -31560740.34448 -24522050.84346  20870020.5634   20870020.0704
 -17064432.09048 -13274364.93046  21241522.0944                   21241521.9774
 11  8 11  1 21  0.0000000  0  8G17G04G02G09G25G12G10G05
 -66258624.41446 -51617902.23044  23554142.2114                   23554142.4734
 -50470061.25847 -39297302.97645  22204052.7034   22204052.5004
 -43399816.20748 -33778934.79446  20497801.4304                   20497798.5164
 -21861527.37146 -17012397.11143  24372804.6564                   24372805.8444
  -1334087.09847  -1013267.31444  23093144.4384                   23093145.1604
 -25397262.44548 -19768550.84646  20838667.3134                   20838665.9344
 -31608990.32448 -24559648.22046  20860839.4384   20860837.9414
 -17213241.92648 -13390320.61146  21213204.7034                   21213204.3834
 11  8 11  1 21 30.0000000  0  8G17G04G02G09G25G12G10G05
 -66268965.15647 -51625960.01244  23552175.2894                   23552175.3404
 -50462150.10547 -39291138.47145  22205558.1254   22205558.5394
 -43462445.43048 -33827736.78646  20485883.5634                   20485880.1094
 -21850340.85246 -17003680.50143  24374933.6804                   24374932.5514
  -1494550.71147  -1138303.84144  23062609.2274                   23062610.0864
 -25504670.82448 -19852245.69546  20818228.1414                   20818227.0594
 -31656501.57848 -24596669.97146  20851798.1254   20851796.5554
 -17361512.71548 -13505856.26146  21184989.8984                   21184988.9384
 11  8 11  1 22  0.0000000  0  8G17G04G02G09G25G12G10G05
 -66279005.27346 -51633783.50344  23550262.9774                   23550265.1174
 -50454047.14547 -39284824.48344  22207100.5944   22207100.2504
 -43524705.70748 -33876251.28046  20474035.9224                   20474032.3484
 -21839031.49246 -16994868.19243  24377085.7584                   24377086.5554
  -1654578.86347  -1263001.02044  23032156.4144                   23032157.7894
 -25611421.85248 -19935428.30646  20797913.9384                   20797912.6804
 -31703272.15648 -24633114.56145  20842897.0164   20842896.7234
 -17509239.29748 -13620967.83146  21156878.4534                   21156877.3714
 11  8 11  1 22 30.0000000  0  8G17G04G02G09G25G12G10G05
 -64713322.63346 -50413771.04844  23848203.0234                   23848203.9064
 -48870332.92247 -38050761.45345  22508471.1644   22508470.6684
 -42011174.78148 -32696876.53546  20762051.1804                   20762047.9064
 -20252181.39546 -15758361.71843  24679054.0634                   24679057.5434
   -238742.15247   -159751.58944  23301581.1564                   23301582.6564
 -24142088.77748 -18790493.42946  21077518.6954                   21077517.1524
 -30173879.82047 -23441380.28045  21133931.0474   21133930.2074
 -16080992.69948 -12508048.34646  21428664.3674                   21428663.7074
 11  8 11  1 23  0.0000000  0  8G17G04G02G09G25G12G10G05
 -64722762.54746 -50421126.85944  23846407.1644                   23846407.2154
 -48861853.35947 -38044154.00744  22510085.0314   22510084.3634
 -42072702.80548 -32744820.44646  20750342.6094                   20750339.1024
 -20240637.91046 -15749366.93143  24681249.1804                   24681255.7034
   -397893.42647   -283765.47744  23271295.5084                   23271297.4884
 -24247522.03948 -18872649.21746  21057455.6644                   21057454.3204
 -30219174.01648 -23476674.45946  21125312.1094   21125311.2114
 -16227625.14848 -12622307.36246  21400761.5234                   21400760.7304
 11  8 11  1 23 30.0000000  0  8G17G04G02G09G25G12G10G05
 -64731907.16046 -50428252.52444  23844667.0554                   23844668.0824
 -48853192.51247 -38037405.26944  22511732.7274   22511732.2584
 -42133871.20348 -32792484.11546  20738702.9534                   20738699.6604
 -20228986.89845 -15740288.40943  24683467.3914                   24683473.6764
   -556607.19947   -407438.47744  23241093.2584                   23241095.5354
 -24352299.33648 -18954293.86646  21037517.1024                   21037515.5084
 -30263736.35547 -23511398.35645  21116832.1644   21116831.0084
 -16373711.96148 -12736141.19146  21372961.9844                   21372961.2464
 11  8 11  1 24  0.0000000  0  8G17G04G02G09G25G12G10G05
 -64740754.35946 -50435146.50444  23842983.1174                   23842984.4774
 -48844350.40647 -38030515.35344  22513415.6094   22513414.6174
 -42194679.41048 -32839867.11846  20727131.5234                   20727128.1054
 -20217229.97345 -15731127.43042  24685705.0474                   24685710.8444
   -714879.13347   -530767.17344  23210975.7344                   23210976.7194
 -24456417.20347 -19035424.67246  21017703.9844                   21017702.6484
 -30307566.33247 -23545551.57545  21108491.4614   21108489.6644
 -16519249.05148 -12849546.68346  21345266.8754                   21345265.9384
 11  8 11  1 24 30.0000000  0  8G17G04G02G09G25G12G10G05
 -64749305.77346 -50441809.98244  23841355.9454                   23841356.1994
 -48835330.78947 -38023487.07744  22515131.4844   22515131.7274
 -42255130.71548 -32886972.03146  20715627.4534                   20715624.8554
 -20205372.29745 -15721887.80542  24687961.6024                   24687967.0044
   -872708.55947   -653751.11345  23180942.0634                   23180943.8094
 -24559876.46148 -19116042.26046  20998016.3284                   20998015.3134
 -30350667.09847 -23579136.57046  21100289.5004   21100288.1054
 -16664235.96148 -12962523.44746  21317676.9694                   21317676.3554
 11  8 11  1 25  0.0000000  0  8G17G04G02G09G25G12G10G05
 -64757559.27046 -50448241.31844  23839785.9224                   23839785.2194
 -48826132.82447 -38016319.88244  22516881.8594   22516882.1484
 -42315224.13348 -32933798.07846  20704192.8204                   20704189.2154
 -20193414.78546 -15712570.40943  24690238.0784                   24690240.0864
  -1030090.85947   -776386.61444  23150992.1724                   23150994.6914
 -24662673.12948 -19196143.56046  20978454.8134                   20978453.2424
 -30393037.87147 -23612152.74145  21092226.7114   21092225.8134
 -16808668.13348 -13075067.95546  21290192.5234                   21290191.5944
 11  8 11  1 25 30.0000000  0  8G17G04G02G09G25G12G10G05
 -64765512.41046 -50454438.62944  23838271.6334                   23838272.9384
 -48816755.78947 -38009013.09744  22518666.3284   22518666.0784
 -42374958.68748 -32980344.48346  20692824.9144                   20692822.0084
 -20181358.14546 -15703175.75343  24692531.3364                   24692533.3164
  -1187021.08647   -898669.85244  23121129.0704                   23121131.9264
 -24764804.23448 -19275726.24346  20959019.7974                   20959018.1644
 -30434677.46147 -23644599.17845  21084303.1564   21084301.9224
 -16952540.98448 -13187176.64546  21262814.2974                   21262813.9144
 11  8 11  1 26  0.0000000  0  8G17G04G02G09G25G12G10G05
 -64773170.75046 -50460406.20344  23836814.9304                   23836815.3014
 -48807206.98447 -38001572.48544  22520483.9924   22520484.2424
 -42434341.49248 -33026616.79846  20681525.1644                   20681522.0664
 -20169211.45746 -15693710.96542  24694842.2114                   24694845.1374
  -1343502.60547  -1020603.42844  23091351.1884                   23091355.0354
 -24866273.97347 -19354793.56246  20939711.0084                   20939709.8484
 -30475593.09847 -23676481.49145  21076516.9224   21076515.8714
 -17095858.39548 -13298852.48546  21235541.4774                   21235541.2034
 11  8 11  1 26 30.0000000  0  8G17G04G02G09G25G12G10G05
 -64780531.87146 -50466142.17344  23835413.7504                   23835413.7424
 -48797485.73847 -37993997.49344  22522333.2034   22522333.3874
 -42493371.32848 -33072614.07346  20670292.0474                   20670288.8554
 -20156975.76646 -15684176.82043  24697170.7194                   24697173.5314
  -1499530.49647  -1142183.52144  23061660.4614                   23061663.6454
 -24967078.88747 -19433342.82346  20920528.3834                   20920527.0594
 -30515783.64847 -23707798.78946  21068869.2424   21068868.1294
 -17238615.38348 -13410091.65146  21208375.9224                   21208374.7894
 11  8 11  1 27  0.0000000  0  8G17G04G02G09G25G12G10G05
 -64787598.21946 -50471648.41744  23834069.0704                   23834069.8204
 -48787596.17647 -37986291.37244  22524215.4224   22524214.9774
 -42552051.65248 -33118338.98946  20659125.8914                   20659121.9924
 -20144656.50446 -15674577.62043  24699515.7274                   24699519.1054
  -1655104.62147  -1263410.08944  23032056.6334                   23032057.7504
 -25067219.94547 -19511374.81546  20901472.4454                   20901470.6644
 -30555252.76647 -23738553.92945  21061358.0474   21061357.6644
 -17380812.48848 -13520894.54846  21181317.0554                   21181315.9494
 11  8 11  1 27 30.0000000  0  8G17G04G02G09G25G12G10G05
 -64794371.74646 -50476926.52544  23832780.1174                   23832780.4844
 -48777541.92647 -37978456.89144  22526128.3984   22526128.4184
 -42610386.28148 -33163794.54546  20648025.1094                   20648021.9494
 -20132258.67646 -15664917.11043  24701874.5004                   24701879.0514
  -1810224.66447  -1384282.85244  23002537.6564                   23002538.2274
 -25166698.30547 -19588890.41646  20882542.3674                   20882540.7114
 -30594004.12147 -23768749.80445  21053984.0864   21053983.1884
 -17522449.52348 -13631261.02446  21154364.5474                   21154363.7704
 11  8 11  1 28  0.0000000  0  8G17G04G02G09G25G12G10G05
 -64800850.43446 -50481974.92444  23831547.3054                   23831547.4144
 -48767322.62947 -37970493.79944  22528072.8594   22528072.5124
 -42668374.21548 -33208979.94446  20636990.2504                   20636986.7194
 -20119783.78146 -15655196.65943  24704249.1484                   24704255.1374
  -1964886.11747  -1504798.25644  22973106.5704                   22973107.6604
 -25265510.72347 -19665887.09846  20863738.5944                   20863737.0234
 -30632037.12547 -23798385.90445  21046746.9534   21046745.4454
 -17663522.14848 -13741187.70146  21127519.2974                   21127518.6604
 11  8 11  1 28 30.0000000  0  8G17G04G02G09G25G12G10G05
 -64807031.16046 -50486791.13344  23830371.9304                   23830371.8244
 -48756936.78547 -37962400.94044  22530049.4694   22530049.3954
 -42726013.75448 -33253893.84746  20626021.9144                   20626018.4224
 -20107231.96946 -15645416.13343  24706637.1724                   24706642.4414
  -2119083.50047  -1624952.04844  22943763.6804                   22943765.0204
 -25363652.87548 -19742361.50446  20845063.1724                   20845061.3164
 -30669350.19947 -23827461.02446  21039646.4454   21039645.6454
 -17804025.48848 -13850670.79746  21100782.2274                   21100780.8284
 11  8 11  1 29  0.0000000  0  8G17G04G02G09G25G12G10G05
 -64812915.50046 -50491376.38944  23829252.0394                   23829252.8834
 -48746387.41447 -37954180.67044  22532057.1804   22532057.3094
 -42783307.78148 -33298538.53346  20615118.9694                   20615115.9144
 -20094607.87546 -15635579.43043  24709039.9454                   24709044.7114
  -2272815.85547  -1744743.49144  22914509.2344                   22914511.3444
 -25461125.34047 -19818314.07346  20826514.2664                   20826513.4964
 -30705946.19147 -23855977.36145  21032682.4304   21032681.6254
 -17943958.92248 -13959709.79446  21074153.3284                   21074152.6724
 11  8 11  1 29 30.0000000  0  8G17G04G02G09G25G12G10G05
 -64818505.84446 -50495732.51643  23828187.5944                   23828188.9024
 -48735678.63747 -37945836.13644  22534095.3054   22534093.9844
 -42840259.93448 -33342916.83846  20604281.3284                   20604278.1054
 -20081917.32846 -15625690.96043  24711455.4844                   24711458.9264
  -2426083.15247  -1864172.51445  22885343.8364                   22885345.8674
 -25557929.16447 -19893745.62646  20808093.3834                   20808091.9144
 -30741829.07047 -23883938.07245  21025854.1024   21025853.1604
 -18083322.57848 -14068304.80446  21047633.1564                   21047632.5944
 11  8 11  1 30  0.0000000  0  8G17G04G02G09G25G12G10G05
 -64823804.48846 -50499861.37644  23827179.0164                   23827180.4804
 -48724814.55947 -37937370.65244  22536162.1564   22536161.8364
 -42896874.04748 -33387031.70946  20593508.0314                   20593504.8914
 -20069166.02746 -15615755.11543  24713881.6174                   24713884.7274
  -2578885.57447  -1983239.30744  22856266.4774                   22856267.2504
 -25654066.44548 -19968657.78946  20789798.7814                   20789797.5084
 -30777003.35947 -23911346.59145  21019160.7664   21019159.1684
 -18222116.93448 -14176456.21146  21021221.7424                   21021221.4104
 11  8 11  1 30 30.0000000  0  8G17G04G02G09G25G12G10G05
 -64828809.03146 -50503761.07744  23826227.3594                   23826227.3484
 -48713794.59447 -37928783.65744  22538259.2424   22538258.3634
 -42953149.25048 -33430882.52146  20582799.2974                   20582796.2934
 -20056354.45746 -15605772.32643  24716319.8444                   24716321.4454
  -2731218.25047  -2101940.11745  22827278.4224                   22827279.8014
 -25749533.56647 -20043047.76146  20771631.9774                   20771630.6134
 -30811467.83647 -23938202.02745  21012602.1884   21012600.9804
 -18360337.91448 -14284160.84446  20994919.1094                   20994918.0554
 11  8 11  1 31  0.0000000  0  8G17G04G02G09G25G12G10G05
 -64833520.74246 -50507432.53643  23825331.2504                   23825330.0354
 -48702620.52347 -37920076.58344  22540385.4774   22540384.6174
 -43009087.50048 -33474470.76146  20572154.7344                   20572151.4534
 -20043486.78946 -15595745.79043  24718768.5704                   24718771.1764
  -2883079.53547  -2220273.57145  22798380.2274                   22798382.3954
 -25844330.15647 -20116915.21646  20753593.0944                   20753591.6914
 -30845224.84847 -23964506.19845  21006178.6564   21006177.3094
 -18497983.96948 -14391417.45146  20968725.7194                   20968725.1604
 11  8 11  1 31 30.0000000  0  8G17G04G02G09G25G12G10G05
 -64837939.12946 -50510875.49443  23824490.7974                   23824487.9024
 -48691294.11347 -37911250.78044  22542541.0314   22542540.3324
 -43064689.80948 -33517797.22946  20561573.5084                   20561570.3014
 -20030565.91046 -15585677.82243  24721227.0474                   24721230.8834
  -3034466.78147  -2338237.68945  22769572.2114                   22769573.5744
 -25938455.12148 -20190259.33546  20735681.6334                   20735680.0944
 -30878275.98047 -23990260.33446  20999888.9224   20999888.0864
 -18635053.06648 -14498224.50346  20942642.3204                   20942641.1024
 11  8 11  1 32  0.0000000  0  8G17G04G02G09G25G12G10G05
 -64842066.08646 -50514091.34443  23823705.0864                   23823703.0704
 -48679818.48047 -37902308.74044  22544725.1804   22544724.5164
 -43119959.30948 -33560864.36646  20551056.3284                   20551053.0044
 -20017596.82046 -15575572.18943  24723695.4614                   24723700.4924
  -3185379.50447  -2455831.97644  22740854.7194                   22740855.8954
 -26031909.32847 -20263080.81046  20717897.7734                   20717896.0394
 -30910624.92247 -24015467.32145  20993733.3834   20993732.7704
 -18771544.72348 -14604581.60946  20916669.4224                   20916668.3834
 11  8 11  1 32 30.0000000  0  7G17G04G02G25G12G10G05
 -64845901.36746 -50517079.87143  23822974.8674                   23822973.9264
 -48668195.21947 -37893251.64844  22546936.3364   22546936.5204
 -43174897.45748 -33603673.29246  20540602.3754                   20540598.4064
  -3335815.07447  -2573054.51444  22712227.1484                   22712228.8674
 -26124691.75047 -20335378.79246  20700241.8914                   20700240.2664
 -30942273.00847 -24040128.17246  20987710.6954   20987710.1054
 -18907456.98448 -14710487.22346  20890805.7664                   20890804.6334
 11  8 11  1 33  0.0000000  0  7G17G04G02G25G12G10G05
 -64849442.39146 -50519839.15243  23822301.2424                   23822300.0904
 -48656422.94547 -37884078.48844  22549176.6954   22549177.4344
 -43229502.29348 -33646222.52846  20530210.9614                   20530207.4574
  -3485768.31647  -2689901.18544  22683691.9844                   22683694.0234
 -26216798.44148 -20407150.23946  20682715.0944                   20682712.7074
 -30973219.17647 -24064242.09445  20981821.6334   20981821.1914
 -19042785.08248 -14815937.64546  20865053.2274                   20865053.0084
 11  8 11  1 33 30.0000000  0  7G17G04G02G25G12G10G05
 -63277261.14846 -49294762.91343  24121477.1564                   24121476.1374
 -47069075.74247 -36647184.57444  22851238.8134   22851239.8834
 -41708345.62148 -32460905.63346  20819677.5634                   20819674.4344
  -2059804.10547  -1578760.21645  22955044.5394                   22955046.3914
 -24732797.66048 -19250785.98146  20965110.7734                   20965108.8164
 -29428036.28947 -22860203.47945  21275859.7974   21275859.5044
 -17602094.70348 -13693321.71846  21139207.6564                   21139206.8954
 11  8 11  1 34  0.0000000  0  7G17G04G02G25G12G10G05
 -63280189.18046 -49297044.56443  24120919.6414                   24120919.3794
 -47056985.78547 -36637763.82244  22853539.5554   22853540.2274
 -41762263.72348 -32502919.72046  20809417.2584                   20809413.6134
  -2208761.09047  -1694830.56845  22926698.4694                   22926700.5744
 -24823526.14547 -19321483.49746  20947845.8134                   20947844.1604
 -29457559.23447 -22883208.36546  21270242.8524   21270242.0044
 -17736224.37548 -13797838.30646  21113684.2194                   21113682.4304
 11  8 11  1 34 30.0000000  0  7G17G04G02G25G12G10G05
 -63282811.34046 -49299087.82143  24120421.4534                   24120421.4454
 -47044739.74647 -36628221.47444  22855870.1954   22855870.2934
 -41815841.10548 -32544668.31446  20799221.7894                   20799218.2344
  -2357217.14147  -1810510.59145  22898447.6954                   22898449.8984
 -24913565.03947 -19391643.65746  20930711.6724                   20930709.9734
 -29486374.03547 -22905661.45345  21264759.1174   21264759.0514
 -17869752.64548 -13901886.26446  21088274.3444                   21088273.2424
 11  8 11  1 35  0.0000000  0  7G17G04G02G25G12G10G05
 -63285130.75846 -49300895.22543  24119978.8754                   24119980.0784
 -47032341.90247 -36618560.83944  22858228.8754   22858228.7504
 -41869081.72348 -32586154.50146  20789090.6254                   20789086.9024
  -2505172.62947  -1925800.52445  22870293.2274                   22870294.6684
 -25002916.02048 -19461267.79946  20913708.8674                   20913706.9104
 -29514484.94947 -22927566.10745  21259409.8674   21259409.1684
 -18002680.32448 -14005466.24346  21062978.8834                   21062977.5984
 11  8 11  1 35 30.0000000  0  7G17G04G02G25G12G10G05
 -63287148.73446 -49302467.68443  24119596.1414                   24119595.7034
 -47019795.06647 -36608784.09944  22860616.3364   22860616.3134
 -41921988.31648 -32627380.41446  20779022.7424                   20779019.3674
  -2652626.41047  -2040699.57745  22842234.2664                   22842235.2734
 -25091579.94547 -19530356.55246  20896836.8364                   20896835.2624
 -29541895.55147 -22948924.99945  21254193.6644   21254192.2974
 -18135006.71148 -14108577.67746  21037798.4304                   21037797.3524
 11  8 11  1 36  0.0000000  0  7G17G04G02G25G12G10G05
 -63288867.16846 -49303806.83143  24119268.5084                   24119269.1214
 -47007102.45347 -36598893.78444  22863032.3524   22863031.8164
 -41974564.14148 -32668348.58346  20769017.8914                   20769014.2584
  -2799578.14547  -2155207.38245  22814269.7894                   22814271.4384
 -25179557.94148 -19598910.82146  20880095.1414                   20880093.9344
 -29568609.55947 -22969741.11545  21249110.4774   21249109.2854
 -18266732.21148 -14211220.89846  21012731.2664                   21012730.5164
 11  8 11  1 36 30.0000000  0  7G17G04G02G25G12G10G05
 -63290290.59846 -49304915.99143  24118997.9384                   24118998.9454
 -46994270.18047 -36588894.65644  22865474.1724   22865474.1914
 -42026814.76248 -32709063.32346  20759074.6334                   20759071.1374
  -2946029.77047  -2269325.51145  22786400.7734                   22786402.2344
 -25266853.36348 -19666933.21146  20863483.2584                   20863481.8204
 -29594632.89147 -22990019.04445  21244158.3674   21244157.1334
 -18397859.10248 -14313397.64346  20987779.0474                   20987777.5274
 11  8 11  1 37  0.0000000  0  7G17G04G02G25G12G10G05
 -63291419.70346 -49305795.85344  24118782.8984                   24118784.6334
 -46981299.98847 -36578788.07044  22867942.1024   22867941.9224
 -42078741.76648 -32749525.91346  20749193.2034                   20749189.9614
  -3091979.59047  -2383052.60545  22758627.9924                   22758628.9494
 -25353466.13348 -19734423.67346  20847001.4144                   20846999.9534
 -29619968.54747 -23009761.12445  21239337.0234   21239337.0984
 -18528385.99248 -14415106.88546  20962940.4224                   20962939.0554
 11  8 11  1 37 30.0000000  0  7G17G04G02G25G12G10G05
 -63292257.12146 -49306448.39444  24118623.6094                   24118625.1764
 -46968196.35547 -36568577.48044  22870435.7344   22870435.3014
 -42130349.30948 -32789739.56246  20739372.8674                   20739369.4184
  -3237427.95347  -2496388.94545  22730949.8284                   22730951.7194
 -25439398.34048 -19801383.81046  20830649.1484                   20830647.5164
 -29644620.54347 -23028970.46945  21234646.0784   21234645.2664
 -18658313.92248 -14516349.40646  20938215.9454                   20938214.9224
 11  8 11  1 38  0.0000000  0  7G17G04G02G25G12G10G05
 -63292807.82446 -49306877.56644  24118518.4384                   24118519.8284
 -46954965.28547 -36558267.61044  22872953.8284   22872953.5124
 -42181643.90248 -32829709.37746  20729611.6414                   20729608.3554
  -3382377.52347  -2609336.62645  22703366.5084                   22703368.0124
 -25524654.13347 -19867816.88546  20814425.5704                   20814423.7854
 -29668595.85547 -23047652.53745  21230083.5704   21230082.3554
 -18787646.14548 -14617127.72546  20913604.6484                   20913604.1454
 11  8 11  1 38 30.0000000  0  7G17G04G02G25G12G10G05
 -63293065.05546 -49307078.04044  24118469.4694                   24118471.1764
 -46941601.03547 -36547853.91844  22875497.1254   22875496.1374
 -42232619.32448 -32869430.47646  20719911.1564                   20719908.0474
  -3526818.69947  -2721888.15645  22675880.4384                   22675882.0274
 -25609225.88347 -19933716.95346  20798331.7814                   20798330.2774
 -29691889.26247 -23065803.22345  21225650.9924   21225649.9264
 -18916373.66448 -14717434.85746  20889108.3984                   20889107.9694
 11  8 11  1 39  0.0000000  0  7G17G04G02G25G12G10G05
 -63293033.05546 -49307053.19144  24118476.7424                   24118477.8834
 -46928109.19947 -36537340.84644  22878064.4064   22878063.7384
 -42283281.04748 -32908907.13546  20710270.5864                   20710267.6414
  -3670753.37547  -2834045.02145  22648490.7894                   22648491.8554
 -25693117.12148 -19999086.72646  20782368.1174                   20782366.2154
 -29714507.21547 -23083427.59445  21221347.2114   21221346.5514
 -19044499.07847 -14817272.79846  20864726.9384                   20864725.6294
 11  8 11  1 39 30.0000000  0  7G17G04G02G25G12G10G05
 -63292711.13346 -49306802.39944  24118537.5164                   24118538.3094
 -46914490.26647 -36526728.69144  22880655.6094   22880655.3014
 -42333629.69547 -32948139.86046  20700689.8444                   20700686.5084
  -3814178.43447  -2945804.80945  22621197.9534                   22621198.4144
 -25776326.16848 -20063924.93746  20766533.6724                   20766532.0354
 -29736450.81647 -23100526.49745  21217171.3984   21217170.5594
 -19172019.43047 -14916639.26846  20840460.6724                   20840459.9184
 11  8 11  1 40  0.0000000  0  7G17G04G02G25G12G10G05
 -63292102.90646 -49306328.50443  24118653.4534                   24118653.9884
 -46900749.27347 -36516021.45744  22883270.9774   22883271.0984
 -42383669.94948 -32987132.26146  20691167.3674                   20691163.4884
  -3957095.23847  -3057168.54145  22594001.0864                   22594002.9224
 -25858856.33647 -20128234.15146  20750828.6724                   20750827.1254
 -29757725.35947 -23117104.07145  21213122.7504   21213122.3244
 -19298936.74248 -15015535.84446  20816309.4064                   20816308.3324
 11  8 11  1 40 30.0000000  0  7G17G04G02G25G12G10G05
 -63291205.80546 -49305629.45743  24118824.1414                   24118824.2624
 -46886885.10247 -36505218.23844  22885909.3834   22885909.3594
 -42433400.47748 -33025883.30846  20681704.0314                   20681700.5164
  -4099498.87947  -3168132.38945  22566902.8754                   22566904.6954
 -25940704.52348 -20192011.95546  20735253.3364                   20735251.9574
 -29778330.62147 -23133160.11845  21209201.7114   21209200.9144
 -19425246.84848 -15113959.26246  20792273.3674                   20792272.4024
 11  8 11  1 41  0.0000000  0  7G17G04G02G25G12G10G05
 -63290026.46746 -49304710.47143  24119048.6804                   24119049.4184
 -46872905.05547 -36494324.74344  22888569.4064   22888569.1684
 -42482828.54347 -33064398.69146  20672298.6804                   20672295.1414
  -4241393.14547  -3278699.34245  22539901.5474                   22539902.5274
 -26021876.19947 -20255262.58946  20719807.2344                   20719805.5824
 -29798274.50047 -23148700.81045  21205406.8834   21205405.7194
 -19550954.07048 -15211912.88046  20768351.8674                   20768350.4384
 11  8 11  1 41 30.0000000  0  7G17G04G02G25G12G10G05
 -63288564.94946 -49303571.72443  24119326.9844                   24119325.8014
 -46858810.92247 -36483342.38544  22891251.5554   22891251.3204
 -42531955.91447 -33102679.75746  20662949.8364                   20662945.8594
  -4382776.14547  -3388867.89445  22512996.8134                   22512997.7934
 -26102370.97347 -20317985.80346  20704489.4844                   20704487.7734
 -29817559.84047 -23163728.33645  21201736.6414   21201736.2344
 -19676057.11348 -15309395.73246  20744545.4774                   20744544.4574
 11  8 11  1 42  0.0000000  0  7G17G04G02G25G12G10G05
 -63286818.52746 -49302210.98043  24119658.3444                   24119659.0634
 -46844600.77747 -36472269.57344  22893955.9774   22893955.6764
 -42580780.43047 -33140724.82846  20653659.0474                   20653654.8954
  -4523642.36747  -3498633.78045  22486191.0704                   22486192.6644
 -26182185.33247 -20380178.79546  20689301.3284                   20689299.1454
 -29836185.31647 -23178241.66745  21198192.3754   21198191.2734
 -19800551.14848 -15406404.00746  20720855.0164                   20720853.9804
 11  8 11  1 42 30.0000000  0  7G17G04G02G25G12G10G05
 -63284785.68746 -49300626.97743  24120046.2894                   24120046.3404
 -46830274.39546 -36461106.19444  22896681.7504   22896681.1334
 -42629302.08247 -33178533.91546  20644425.4224                   20644421.5554
  -4663988.07447  -3607994.04445  22459484.6094                   22459485.9694
 -26261317.03547 -20441839.86746  20674242.9534                   20674241.0664
 -29854151.52047 -23192241.31945  21194773.5004   21194772.2974
 -19924432.95348 -15502935.23946  20697280.9064                   20697279.8594
 11  8 11  1 43  0.0000000  0  7G17G04G02G25G12G10G05
 -63282464.80946 -49298818.51843  24120487.7504                   24120487.7704
 -46815831.33647 -36449851.88944  22899430.5554   22899430.3404
 -42677520.38347 -33216106.61246  20635249.2584                   20635246.0704
  -4803809.39847  -3716945.70745  22432877.1724                   22432878.9734
 -26339764.16048 -20502967.49746  20659315.2424                   20659313.3484
 -29871458.66447 -23205727.40545  21191480.0004   21191479.2704
 -20047699.24248 -15598986.85946  20673824.5944                   20673822.6524
 11  8 11  1 43 30.0000000  0  8G17G04G02G29G25G12G10G05
 -63279867.75046 -49296794.93943  24120982.0394                   24120982.2814
 -46801284.61846 -36438516.83644  22902198.3754   22902199.1994
 -42725448.05547 -33253452.84646  20626129.2114                   20626125.9884
  15528260.98856  12120868.07052  24513364.3834                   24513365.9264
  -4943115.57047  -3825495.96745  22406368.1564                   22406369.9454
 -26417537.98447 -20563570.47546  20644515.3054                   20644513.8244
 -29888120.87547 -23218710.92845  21188309.2424   21188309.2734
 -20170360.16848 -15694566.75546  20650482.7974                   20650481.6094
 11  8 11  1 44  0.0000000  0  8G17G04G02G29G25G12G10G05
 -63277008.32046 -49294566.87143  24121526.6804                   24121526.6294
 -46786649.14146 -36427112.57844  22904983.7274   22904983.7774
 -42773099.82047 -33290584.09446  20617061.5314                   20617058.3914
  15379572.68046  12005006.94142  24485071.3364                   24485071.8874
  -5081918.06247  -3933653.71745  22379954.6024                   22379955.9384
 -26494651.92247 -20623659.26846  20629840.9694                   20629839.7384
 -29904153.92647 -23231204.20245  21185258.3674   21185257.7584
 -20292427.79748 -15789684.34546  20627253.7664                   20627253.1024
 11  8 11  1 44 30.0000000  0  8G17G04G02G29G25G12G10G05
 -61698467.40646 -48064535.01543  24421912.1174                   24421913.3364
 -45196506.82446 -35188040.72344  23207578.4144   23207577.0514
 -41245055.69547 -32099900.36546  20907838.6884                   20907835.3094
  16806319.07445  13116757.44542  24756571.4224                   24756572.3444
  -3644790.38347  -2813813.98745  22653431.3524                   22653432.6054
 -24995682.96547 -19455631.51246  20915084.9384                   20915083.6214
 -28344139.56647 -22015608.61445  21482119.0944   21482117.9224
 -18838476.71948 -14656735.42246  20903931.5314                   20903930.4024
 11  8 11  1 45  0.0000000  0  8G17G04G02G29G25G12G10G05
 -61695088.97746 -48061902.44743  24422555.3524                   24422555.4104
 -45181702.23446 -35176504.70644  23210395.4454   23210395.0664
 -41292164.57048 -32136608.58146  20898873.9304                   20898870.8634
  16657646.44546  13000908.74242  24728280.8754                   24728279.9924
  -3782583.80147  -2921185.44945  22627209.7034                   22627211.2504
 -25071480.01247 -19514694.14546  20900661.1024                   20900659.3674
 -28358925.28547 -22027129.94545  21479305.6724   21479305.0704
 -18959357.90248 -14750928.51046  20880928.7194                   20880927.8954
 11  8 11  1 45 30.0000000  0  8G17G04G02G29G25G12G10G05
 -61691444.26646 -48059062.41843  24423249.3284                   24423248.7934
 -45166808.30546 -35164899.07043  23213228.7584   23213228.8404
 -41338997.05147 -32173101.42546  20889962.0394                   20889958.5704
  16508988.99645  12885071.85743  24699990.8754                   24699990.9884
  -3919862.53147  -3028155.84945  22601086.3444                   22601088.5004
 -25146612.05547 -19573238.59046  20886364.5634                   20886362.8284
 -28373083.97347 -22038162.66445  21476611.0864   21476610.6844
 -19079636.80548 -14844652.29946  20858040.3204                   20858039.5514
 11  8 11  1 46  0.0000000  0  8G17G04G02G29G25G12G10G05
 -61687536.65646 -48056017.63543  24423993.0704                   24423994.0004
 -45151829.18446 -35153227.06644  23216079.1024   23216079.2274
 -41385557.21948 -32209382.09446  20881102.3444                   20881098.4224
  16360344.36746  12769244.93543  24671705.9774                   24671704.7504
  -4056627.38347  -3134725.81845  22575061.0164                   22575062.9574
 -25221081.42248 -19631266.67546  20872193.0234                   20872191.6604
 -28386620.87547 -22048710.88145  21474035.5554   21474034.0554
 -19199314.63748 -14937907.71446  20835266.1094                   20835264.7774
 11  8 11  1 46 30.0000000  0  8G17G04G02G29G25G12G10G05
 -61683357.24246 -48052760.95243  24424787.6334                   24424789.2664
 -45136756.93046 -35141482.49643  23218947.3594   23218948.2344
 -41431837.15648 -32245444.36546  20872295.2734                   20872291.6764
  16211721.62546  12653435.10244  24643423.1094                   24643424.5864
  -4192867.09047  -3240886.62345  22549135.2194                   22549137.2274
 -25294878.34847 -19688770.78646  20858150.4774                   20858148.6604
 -28399529.21147 -22058769.31545  21471578.8134   21471577.9884
 -19318381.30948 -15030686.90746  20812608.9144                   20812607.5044
 11  8 11  1 47  0.0000000  0  8G17G04G02G29G25G12G10G05
 -61678913.54746 -48049298.32042  24425632.4774                   24425633.5204
 -45121599.72746 -35129671.69043  23221831.7974   23221832.7704
 -41477845.30548 -32281294.87346  20863539.9924                   20863537.3404
  16063114.64846  12537637.48944  24615143.7584                   24615145.3204
  -4328586.52347  -3346642.00245  22523309.1094                   22523311.0084
 -25368009.46948 -19745756.07846  20844233.8364                   20844232.5044
 -28411818.18747 -22068345.12245  21469240.1644   21469239.7464
 -19436842.19948 -15122994.06346  20790066.5394                   20790065.3754
 11  8 11  1 47 30.0000000  0  8G17G04G02G29G25G12G10G05
 -61674203.09446 -48045627.96143  24426530.4384                   24426529.5004
 -45106356.78546 -35117794.15543  23224733.0004   23224733.9574
 -41523580.43748 -32316932.66046  20854837.0314                   20854833.6254
  15914525.97746  12421854.13543  24586867.2344                   24586869.3674
  -4463781.18447  -3451988.42945  22497582.4534                   22497583.4144
 -25440472.59448 -19802220.84046  20830444.7584                   20830443.1174
 -28423487.65647 -22077438.19145  21467019.8914   21467018.9654
 -19554693.70348 -15214826.38646  20767640.1024                   20767639.2504
 11  8 11  1 48  0.0000000  0  8G17G04G02G29G25G12G10G05
 -61669224.43746 -48041748.49642  24427478.1174                   24427476.1374
 -45091027.21947 -35105849.03443  23227650.0164   23227649.8754
 -41569041.80948 -32352357.11046  20846185.9534                   20846182.2504
  15765957.40246  12306086.47543  24558596.3754                   24558597.3834
  -4598447.23847  -3556922.98845  22471956.2114                   22471956.6604
 -25512266.14547 -19858163.86646  20816782.6334                   20816780.5124
 -28434538.58247 -22086049.30945  21464916.9774   21464915.7734
 -19671932.25048 -15306181.05046  20745329.9454                   20745329.0474
 11  8 11  1 48 30.0000000  0  8G17G04G02G29G25G12G10G05
 -61663982.72346 -48037664.00442  24428474.8834                   24428474.7734
 -45075617.16046 -35093841.26043  23230581.7114   23230582.0434
 -41614235.38347 -32387572.88446  20837585.8984                   20837582.1454
  15617405.46546  12190331.75544  24530328.5314                   24530330.0634
  -4732587.12947  -3661447.53745  22446430.1724                   22446430.8284
 -25583394.35948 -19913588.44846  20803247.4924                   20803245.9184
 -28444977.39547 -22094183.43245  21462930.4774   21462929.3914
 -19788561.56648 -15397061.00646  20723136.3754                   20723134.5394
 11  8 11  1 49  0.0000000  0  8G17G04G02G29G25G12G10G05
 -61658475.67646 -48033372.85843  24429524.2274                   24429522.7074
 -45060124.72346 -35081769.22443  23233530.7194   23233530.9454
 -41659159.98448 -32422579.07446  20829037.0554                   20829033.8554
  15468872.84046  12074592.04044  24502063.7734                   24502065.6374
  -4866196.14547  -3765558.41345  22421004.7814                   22421006.2234
 -25653853.90648 -19968492.00546  20789839.5004                   20789837.7234
 -28454804.17647 -22101840.63445  21461060.4454   21461058.9964
 -19904577.27348 -15487462.82646  20701059.3984                   20701057.8634
 11  8 11  1 49 30.0000000  0  8G17G04G02G29G25G12G10G05
 -61652702.41846 -48028874.19142  24430622.0234                   24430621.2234
 -45044550.86746 -35069633.84843  23236494.2344   23236492.8794
 -41703815.94548 -32457375.94646  20820539.5784                   20820536.3204
  15320360.62147  11958868.31644  24473803.1954                   24473802.4924
  -4999271.62147  -3869253.54645  22395681.1884                   22395683.0434
 -25723644.75848 -20022874.47846  20776558.5394                   20776557.2074
 -28464020.71547 -22109022.34445  21459306.4064   21459305.7234
 -20019977.53548 -15577385.08246  20679099.2114                   20679098.3794
 11  8 11  1 50  0.0000000  0  8G17G04G02G29G25G12G10G05
 -61646660.28545 -48024166.05942  24431770.8444                   24431770.7624
 -45028893.29746 -35057433.16543  23239474.2034   23239473.5044
 -41748201.02048 -32491961.71946  20812093.2734                   20812090.0744
  15171872.63746  11843163.40343  24445546.8594                   24445544.8834
  -5131808.16447  -3972528.74245  22370460.8444                   22370462.4924
 -25792763.57847 -20076733.28946  20763406.0474                   20763404.4494
 -28472625.84047 -22115727.59345  21457668.9614   21457668.1804
 -20134757.83648 -15666824.26046  20657256.9844                   20657256.1334
 11  8 11  1 50 30.0000000  0  8G17G04G02G29G25G12G10G05
 -61640350.56645 -48019249.39842  24432971.1024                   24432972.3554
 -45013154.17246 -35045168.91443  23242468.9694   23242468.1054
 -41792317.62547 -32526338.30046  20803697.7974                   20803694.8484
  15023408.17646  11727476.89143  24417294.1954                   24417294.4534
  -5263804.75447  -4075383.18445  22345342.6564                   22345343.7464
 -25861211.10547 -20130069.02846  20750380.7584                   20750379.0904
 -28480623.20747 -22121959.31145  21456147.0314   21456146.5704
 -20248918.00848 -15755780.21346  20635532.9534                   20635532.2624
 11  8 11  1 51  0.0000000  0  8G17G04G02G29G25G12G10G05
 -61633779.22745 -48014128.85242  24434222.5314                   24434223.1844
 -44997340.51246 -35032846.60843  23245477.8444   23245476.6094
 -41836172.73048 -32560511.10546  20795352.2814                   20795349.6254
  14874961.95746  11611804.55244  24389045.9384                   24389048.6524
  -5395265.10947  -4177819.79245  22320326.0084                   22320327.0864
 -25928992.86748 -20182885.98346  20737482.2504                   20737480.3364
 -28488021.25847 -22127724.02245  21454739.3284   21454737.9534
 -20362462.71548 -15844256.58046  20613926.1174                   20613924.6914
 11  8 11  1 51 30.0000000  0  8G17G04G02G29G25G12G10G05
 -61626943.32846 -48008802.21942  24435523.2344                   24435523.5124
 -44981450.09446 -35020464.51443  23248501.8674   23248500.6454
 -41879764.11747 -32594478.42246  20787057.2584                   20787054.2504
  14726537.75046  11496149.36943  24360800.7114                   24360804.3984
  -5526183.87147  -4279834.38945  22295413.1954                   22295414.6024
 -25996105.89848 -20235181.85946  20724711.2584                   20724709.3134
 -28494818.87147 -22133020.81845  21453445.9064   21453444.8244
 -20475387.08648 -15932249.56246  20592437.2034                   20592436.4884
 11  8 11  1 52  0.0000000  0  8G17G04G02G29G25G12G10G05
 -61619842.78946 -48003269.36742  24436875.5784                   24436874.4654
 -44965483.40646 -35008022.96143  23251540.5704   23251540.0944
 -41923092.39148 -32628240.71846  20778812.7814                   20778809.0314
  14578136.94546  11380512.35443  24332561.9144                   24332563.6644
  -5656558.37147  -4381424.87945  22270603.6954                   22270605.5904
 -26062549.62148 -20286956.17846  20712067.6174                   20712065.3134
 -28501017.93047 -22137851.21745  21452266.1724   21452264.8444
 -20587689.28548 -16019757.76046  20571066.9844                   20571065.8954
 11  8 11  1 52 30.0000000  0  8G17G04G02G29G25G12G10G05
 -61612483.88745 -47997535.25442  24438274.8524                   24438275.0744
 -44949448.04746 -34995527.91643  23254592.0234   23254590.8554
 -41966165.11748 -32661803.88846  20770615.8914                   20770612.9144
  14429753.52346  11264888.93743  24304325.0394                   24304326.2234
  -5786393.04347  -4482594.73845  22245897.3674                   22245899.0594
 -26128330.35248 -20338213.91446  20699549.9454                   20699547.9184
 -28506627.37947 -22142222.19445  21451198.6024   21451197.6954
 -20699374.58648 -16106785.25146  20549814.2194                   20549813.1414
 11  8 11  1 53  0.0000000  0  8G17G04G02G29G25G12G10G05
 -61604863.43445 -47991597.27742  24439725.0784                   24439725.0164
 -44933341.14546 -34982977.08143  23257655.9774   23257656.3204
 -42008979.50448 -32695165.75246  20762468.2034                   20762465.5474
  14281391.60946  11149282.26943  24276094.0634                   24276094.0904
  -5915681.97747  -4583339.35545  22221294.3984                   22221295.7814
 -26193444.13747 -20388951.92246  20687159.0164                   20687157.2274
 -28511645.81247 -22146132.66645  21450243.4144   21450242.7704
 -20810437.99648 -16193328.14146  20528679.2734                   20528678.4024
 11  8 11  1 53 30.0000000  0  7G04G02G29G25G12G10G05
 -44917168.39846 -34970374.99043  23260734.7734   23260734.3284
 -42051541.15648 -32728330.69446  20754369.5634                   20754366.4694
  14133047.05946  11033689.12843  24247863.7894                   24247864.9734
  -6044427.71547  -4683660.66645  22196794.9694                   22196795.6804
 -26257895.62548 -20439173.87746  20674894.4304                   20674892.5514
 -28516080.35947 -22149588.14845  21449399.5394   21449398.8134
 -20920882.89848 -16279389.07746  20507662.4144                   20507661.7194
 11  8 11  1 54  0.0000000  0  7G04G02G29G25G12G10G05
 -44900926.32846 -34957718.85242  23263824.4924   23263825.1764
 -42093846.85248 -32761296.17346  20746318.9844                   20746315.7074
  13984725.64846  10918113.96643  24219639.6644                   24219639.0704
  -6172623.68447  -4783553.63745  22172400.0704                   22172400.2544
 -26321680.79748 -20488876.60946  20662756.3524                   20662755.1054
 -28519928.66047 -22152586.82145  21448667.4144   21448666.1724
 -21030703.48048 -16364963.52846  20486764.4304                   20486763.0704
 11  8 11  1 54 30.0000000  0  7G04G02G29G25G12G10G05
 -44884600.40646 -34944997.35443  23266932.1024   23266932.0164
 -42135882.25848 -32794051.03646  20738320.4694                   20738316.5944
  13836443.28546  10802569.28143  24191423.1724                   24191421.1764
  -6300252.48447  -4883004.64645  22148113.0394                   22148114.0004
 -26384783.95748 -20538047.90446  20650748.1484                   20650747.0124
 -28523177.92647 -22155118.69445  21448049.1334   21448046.8444
 -21139883.34848 -16450038.72446  20465988.2974                   20465987.2504
 11  8 11  1 55  0.0000000  0  7G04G02G29G25G12G10G05
 -44868186.77746 -34932207.68443  23270055.6724   23270055.7704
 -42177643.52348 -32826592.28046  20730372.9534                   20730369.8754
  13688205.39546  10687059.29543  24163213.3134                   24163211.0824
  -6427307.09047  -4982008.20845  22123935.2034                   22123936.9574
 -26447200.48048 -20586684.16746  20638870.4924                   20638869.0704
 -28525825.74247 -22157181.91545  21447545.4384   21447543.0824
 -21248416.31648 -16534609.84946  20445334.5784                   20445333.5004
 11  8 11  1 55 30.0000000  0  7G04G02G29G25G12G10G05
 -44851690.20346 -34919353.06443  23273193.9224   23273194.1804
 -42219135.13348 -32858923.39146  20722477.4694                   20722474.4534
  13540008.75046  10571581.44343  24135012.1334                   24135010.5234
  -6553789.28148  -5080565.74245  22099866.3284                   22099868.7504
 -26508933.79748 -20634788.04146  20627123.4694                   20627121.8134
 -28527878.31647 -22158781.30745  21447154.3914   21447153.7584
 -21356304.94148 -16618678.88646  20424804.3134                   20424803.1914
 11  8 11  1 56  0.0000000  0  7G04G02G29G25G12G10G05
 -44835113.96546 -34906436.61742  23276349.0864   23276348.0904
 -42260361.05948 -32891047.47446  20714632.1724                   20714629.6254
  13391851.37546  10456134.20543  24106819.1644                   24106817.8794
  -6679699.58647  -5178677.65445  22075906.3984                   22075908.4924
 -26569987.09448 -20682362.04246  20615505.4144                   20615503.6884
 -28529340.59847 -22159920.73745  21446876.5554   21446876.1174
 -21463550.64548 -16702246.93946  20404396.0704                   20404394.9184
 11  8 11  1 56 30.0000000  0  7G04G02G29G25G12G10G05
 -43243042.89145 -33665861.77742  23579309.3984   23579309.6374
 -40725904.03548 -31695366.69746  21006629.7814                   21006627.1334
  14819155.93046  11568319.62043  24378425.9614                   24378425.7734
  -5229614.94947  -4048741.53845  22351848.2344                   22351849.9304
 -25054941.46548 -19501807.01646  20903808.6804                   20903807.1054
 -26954798.30947 -20933004.68545  21746501.8134   21746501.1294
 -19994731.71948 -15557712.68646  20683902.8204                   20683901.2704
 11  8 11  1 57  0.0000000  0  7G04G02G29G25G12G10G05
 -43226320.22746 -33652831.12942  23582492.0314   23582492.4734
 -40766611.09848 -31727086.47446  20998884.0394                   20998880.1054
  14671069.93046  11452928.01043  24350246.8984                   24350247.3364
  -5354385.16047  -4145965.05945  22328105.3834                   22328106.6374
 -25114644.57048 -19548328.91846  20892447.2344                   20892446.7384
 -26955097.30947 -20933237.68445  21746446.3754   21746444.0234
 -20100697.81648 -15640283.64246  20663738.6484                   20663737.2584
 11  8 11  1 57 30.0000000  0  7G04G02G29G25G12G10G05
 -43209526.67646 -33639745.24642  23585687.6884   23585687.6054
 -40807061.16848 -31758605.99246  20991186.0864                   20991182.5744
  14523019.53546  11337564.04744  24322072.7424                   24322074.5314
  -5478583.41847  -4242742.90645  22304471.2974                   22304472.3594
 -25173673.63747 -19594325.61446  20881214.4064                   20881212.7734
 -26954819.59847 -20933021.28745  21746497.8754   21746496.3324
 -20206023.73848 -15722355.76946  20643695.6564                   20643694.5234
 11  8 11  1 58  0.0000000  0  7G04G02G29G25G12G10G05
 -43192665.05146 -33626606.37043  23588897.2814   23588895.8674
 -40847257.59048 -31789927.87546  20983537.0704                   20983533.7304
  14375003.86346  11222227.19844  24293906.7734                   24293908.2774
  -5602209.60547  -4339074.97445  22280946.2034                   22280947.7034
 -25232031.33248 -19639799.14646  20870109.5474                   20870108.7034
 -26953969.77347 -20932359.07745  21746659.7894   21746658.1334
 -20310710.09448 -15803929.51846  20623774.5474                   20623772.8874
 11  8 11  1 58 30.0000000  0  7G04G02G29G25G12G10G05
 -43175737.48046 -33613416.06242  23592117.5864   23592118.4184
 -40887201.89848 -31821053.32546  20975935.8914                   20975932.7424
  14227022.33646  11106916.97744  24265747.0084                   24265748.4104
  -5725262.84447  -4434960.59545  22257529.3204                   22257531.3134
 -25289718.70347 -19684750.34046  20859131.6334                   20859130.8054
 -26952551.23447 -20931253.71145  21746928.9924   21746928.0004
 -20414757.09048 -15885005.08246  20603974.6884                   20603973.2664
 11  8 11  1 59  0.0000000  0  7G04G02G29G25G12G10G05
 -43158748.63745 -33600177.96542  23595350.0394   23595350.3284
 -40926899.38348 -31851986.41646  20968381.8284                   20968378.5354
  14079071.55146  10991630.72944  24237592.3754                   24237593.3634
  -5847745.24247  -4530401.37345  22234222.2274                   22234223.5434
 -25346739.87548 -19729182.43446  20848281.5944                   20848279.9844
 -26950570.46147 -20929710.26345  21747306.0084   21747305.2584
 -20518167.75448 -15965584.78246  20584296.6804                   20584295.4104
 11  8 11  1 59 30.0000000  0  7G04G02G29G25G12G10G05
 -43141693.42245 -33586888.18742  23598596.0164   23598596.0204
 -40966345.00848 -31882723.26746  20960875.6954                   20960871.9384
  13931158.51646  10876373.92844  24209445.7504                   24209446.1254
  -5969648.85248  -4625391.18445  22211024.9694                   22211026.0554
 -25403089.37948 -19773091.14646  20837558.6334                   20837556.9264
 -26948024.24647 -20927726.22045  21747790.9844   21747789.8634
 -20620935.07448 -16045663.18646  20564740.5394                   20564739.0314
 11  8 11  2  0  0.0000000  0  7G04G02G29G25G12G10G05
 -43124577.76645 -33573551.33242  23601852.5864   23601853.4064
 -41005544.77048 -31913268.53546  20953416.0234                   20953413.0864
  13783278.56646  10761142.89844  24181304.2974                   24181305.8444
  -6090977.10547  -4719932.64445  22187936.5314                   22187937.6564
 -25458772.60948 -19816480.68646  20826962.0474                   20826960.6024
 -26944920.23847 -20925307.50045  21748381.3204   21748380.4144
 -20723063.19948 -16125243.52446  20545306.0394                   20545305.0274
 11  8 11  2  0 30.0000000  0  7G04G02G29G25G12G10G05
 -43107406.26645 -33560170.95342  23605121.4614   23605120.5784
 -41044503.13748 -31943625.72246  20946002.4224                   20945998.9884
  13635429.11346  10645935.61643  24153169.2344                   24153170.1374
  -6211731.38347  -4814026.85845  22164957.7734                   22164959.5664
 -25513793.64848 -19859354.24046  20816491.9454                   20816490.8554
 -26941264.23447 -20922458.67845  21749077.3054   21749076.3054
 -20824554.52048 -16204327.64846  20525992.6804                   20525991.9144
 11  8 11  2  1  0.0000000  0  7G04G02G29G25G12G10G05
 -43090174.69146 -33546743.77742  23608401.0234   23608400.1994
 -41083216.34048 -31973791.85646  20938635.5864                   20938632.2774
  13487615.77046  10530756.45343  24125041.3054                   24125040.7114
  -6331905.04747  -4907668.64145  22142089.5474                   22142091.0474
 -25568147.84848 -19901708.17046  20806148.9304                   20806147.9654
 -26937054.28947 -20919178.21445  21749878.2974   21749877.3834
 -20925403.55148 -16282911.26446  20506801.6884                   20506800.6764
 11  8 11  2  1 30.0000000  0  7G04G02G29G25G12G10G05
 -43072887.05545 -33533272.94542  23611689.8364   23611691.2704
 -41121688.40248 -32003770.11246  20931314.6644                   20931311.0784
  13339836.20346  10415603.62743  24096919.4144                   24096918.8914
  -6451499.25047  -5000858.89445  22119331.1954                   22119332.8134
 -25621838.44948 -19943545.01746  20795931.8674                   20795930.2734
 -26932296.23447 -20915470.65645  21750783.7734   21750783.4344
 -21025612.26248 -16360995.94446  20487732.8984                   20487731.5204
 11  8 11  2  2  0.0000000  0  7G04G02G29G25G12G10G05
 -43055545.21945 -33519759.80142  23614988.4694   23614992.3164
 -41159921.42248 -32033562.09846  20924039.1254                   20924035.6844
  13192090.21946  10300476.92843  24068804.4384                   24068803.7074
  -6570513.30947  -5093597.08745  22096683.8594                   22096685.7464
 -25674867.21948 -19984866.14246  20785841.0084                   20785839.2344
 -26926993.85247 -20911338.94145  21751792.9924   21751792.0514
 -21125181.00448 -16438581.94546  20468785.5394                   20468784.2664
 11  8 11  2  2 30.0000000  0  7G04G02G29G25G12G10G05
 -43038153.46145 -33506207.84042  23618299.6024   23618300.7704
 -41197920.14547 -32063171.50846  20916808.0314                   20916805.0474
  13044374.97345  10185374.16743  24040695.0864                   24040695.4734
  -6688949.10547  -5185884.67745  22074146.2734                   22074147.6844
 -25727238.17248 -20025674.68446  20775874.9924                   20775873.2734
 -26921152.93447 -20906787.60845  21752904.7274   21752903.4344
 -21224112.75448 -16515671.60146  20449959.2584                   20449958.0124
 11  8 11  2  3  0.0000000  0  7G04G02G29G25G12G10G05
 -43020712.15246 -33492617.17242  23621618.5394   23621618.3554
 -41235684.72348 -32092598.45446  20909621.7974                   20909618.6644
  12896692.13745  10070296.65243  24012592.1954                   24012592.5594
  -6806803.95347  -5277719.62145  22051718.7034                   22051719.9384
 -25778951.38748 -20065970.70646  20766034.5084                   20766032.2814
 -26914775.31247 -20901818.00645  21754117.8674   21754116.5004
 -21322405.80547 -16592263.55246  20431254.6094                   20431253.7154
 11  8 11  2  3 30.0000000  0  7G04G02G29G25G12G10G05
 -43003225.82446 -33478991.48442  23624945.7114   23624946.2774
 -41273219.49648 -32121846.33746  20902479.3204                   20902476.3674
  12749038.37946   9955241.87543  23984495.3524                   23984496.0234
  -6924080.14147  -5369103.63645  22029402.5234                   22029403.4024
 -25830010.84048 -20105757.30246  20756318.3284                   20756316.3054
 -26907867.87547 -20896435.59845  21755432.5944   21755431.6604
 -21420063.43048 -16668360.38246  20412671.0944                   20412669.4574
 11  8 11  2  4  0.0000000  0  7G04G02G29G25G12G10G05
 -42985691.09446 -33465328.08242  23628283.4454   23628284.3014
 -41310521.67648 -32150912.97846  20895381.1094                   20895377.6564
  12601418.92246   9840213.74844  23956404.4534                   23956404.5634
  -7040771.61747  -5460032.02045  22007196.1724                   22007197.5274
 -25880413.13748 -20145031.82746  20746726.8364                   20746725.4614
 -26900429.13347 -20890639.17545  21756848.5864   21756847.3834
 -21517080.35248 -16743957.95746  20394209.3984                   20394207.9734
 11  8 11  2  4 30.0000000  0  7G04G02G29G25G12G10G05
 -42968110.45746 -33451628.90242  23631627.3364   23631629.6094
 -41347594.08247 -32179800.57646  20888326.1414                   20888322.3204
  12453832.94546   9725211.64744  23928319.9844                   23928320.0554
  -7156878.25847  -5550504.71245  21985102.2814                   21985103.2544
 -25930160.49648 -20183796.01846  20737259.9534                   20737258.3954
 -26892463.30947 -20884432.05045  21758364.1254   21758363.2274
 -21613457.43447 -16819056.96046  20375869.0554                   20375868.1414
 11  8 11  2  5  0.0000000  0  7G04G02G29G25G12G10G05
 -42950484.43046 -33437894.37542  23634981.9614   23634983.8244
 -41384437.23048 -32208509.55346  20881315.6024                   20881310.9924
  12306281.16847   9610236.27444  23900241.6174                   23900242.7424
  -7272398.23847  -5640520.27845  21963119.4304                   21963120.6564
 -25979253.38348 -20222050.22346  20727918.1884                   20727916.3134
 -26883973.21547 -20877816.39145  21759979.7034   21759978.7624
 -21709193.99247 -16893656.84446  20357651.1254                   20357650.1644
 11  8 11  2  5 30.0000000  0  7G04G02G29G25G12G10G05
 -42932813.92646 -33424125.12542  23638345.3134   23638345.6374
 -41421051.90247 -32237040.44546  20874347.8134                   20874343.8594
  12158764.71147   9495288.32843  23872169.8204                   23872170.1954
  -7387330.03947  -5730077.47945  21941248.6884                   21941249.8364
 -26027692.38348 -20259794.90446  20718700.5554                   20718699.2304
 -26874961.68747 -20870794.40545  21761693.8134   21761693.3094
 -21804289.60547 -16967757.29446  20339555.2584                   20339553.5634
 11  8 11  2  6  0.0000000  0  7G04G02G29G25G12G10G05
 -42915100.82846 -33410322.79342  23641716.5084   23641716.4614
 -41457440.42647 -32265395.15646  20867423.2034                   20867419.7114
  12011282.85247   9380367.48743  23844104.5864                   23844104.3754
  -7501673.03547  -5819175.91345  21919489.8984                   21919491.5434
 -26075479.31648 -20297031.48546  20709606.7734                   20709605.3284
 -26865432.28147 -20863368.92145  21763507.6884   21763506.9144
 -21898744.58248 -17041358.54446  20321581.0314                   20321579.8404
 11  8 11  2  6 30.0000000  0  7G04G02G29G25G12G10G05
 -42897347.92646 -33396489.30942  23645094.2814   23645093.9414
 -41493605.70348 -32293575.89646  20860541.4224                   20860538.5634
  11863834.85947   9265472.90443  23816046.4924                   23816045.1914
  -7615427.45748  -5907815.71845  21897843.0234                   21897845.0164
 -26122616.93748 -20333762.10646  20700637.3054                   20700635.6724
 -26855389.89147 -20855543.69245  21765418.4774   21765417.0984
 -21992560.28948 -17114461.65846  20303728.6724                   20303727.2894
 11  8 11  2  7  0.0000000  0  7G04G02G29G25G12G10G05
 -42879552.32846 -33382622.59842  23648480.2194   23648479.5234
 -41529544.88347 -32321580.45746  20853702.0864                   20853699.1644
  11716425.34847   9150608.29243  23787994.7344                   23787994.1134
  -7728588.04348  -5995992.78045  21876309.3204                   21876310.5634
 -26169102.18048 -20369984.36846  20691791.1564                   20691789.8054
 -26844833.57847 -20847317.98545  21767427.8754   21767425.8754
 -22085732.64148 -17187063.45746  20285998.1884                   20285996.8674
 11  8 11  2  7 30.0000000  0  7G04G02G29G25G12G10G05
 -42861718.16045 -33368725.94142  23651873.6484   23651873.0664
 -41565262.58248 -32349412.42146  20846905.2114                   20846901.8484
  11569051.57846   9035771.62943  23759950.6414                   23759950.1994
  -7841156.92648  -6083708.77845  21854888.4224                   21854889.1684
 -26214939.55148 -20405701.81746  20683068.4454                   20683066.9144
 -26833769.48047 -20838696.60745  21769532.9224   21769531.9454
 -22178264.34448 -17259166.05446  20268390.0944                   20268388.7974
 11  8 11  2  8  0.0000000  0  7G04G02G29G25G12G10G05
 -42843847.84045 -33354800.94142  23655274.3054   23655273.5004
 -41600761.03547 -32377073.54546  20840150.4384                   20840146.5004
  11421712.92246   8920962.34143  23731912.8134                   23731911.8874
  -7953133.90247  -6170963.55946  21833579.3834                   21833581.0394
 -26260131.28148 -20440916.16646  20674468.6564                   20674467.1804
 -26822202.10247 -20829683.09945  21771733.4534   21771733.1914
 -22270156.65648 -17330770.42146  20250903.4454                   20250902.6024
 11  8 11  2  8 30.0000000  0  7G04G02G29G25G12G10G05
 -41250522.941 5                  23958473.297
 -40060620.61748 -31176964.11946  21133229.0634                   21133225.3014
  12849834.82046  10033784.56643  24003676.1954                   24003674.2344
  -6489093.93748  -5030153.19545  22112177.3834                   22112178.2304
 -24729256.69548 -19248026.87346  20965784.4924                   20965782.8284
 -25234714.81247 -19592680.02245  22073822.7424   22073822.4064
 -20785986.12548 -16174273.86546  20533331.5784                   20533330.3164
 11  8 11  2  9  0.0000000  0  7G04G02G29G25G12G10G05
 -41232580.484 5                  23961888.898
 -40095681.92247 -31204284.61346  21126556.7894                   21126554.1484
  12702570.70746   9919033.38144  23975651.8444                   23975652.4774
  -6599880.58648  -5116480.46145  22091095.4924                   22091096.9264
 -24773157.29348 -19282235.14646  20957430.7194                   20957428.9224
 -25222147.37547 -19582887.24345  22076214.8834   22076213.4494
 -20876596.07448 -16244878.98746  20516089.4224                   20516087.5394
 11  8 11  2  9 30.0000000  0  7G04G02G29G25G12G10G05
 -41214600.066 5                  23965309.492
 -40130522.82447 -31231433.36446  21119926.9614                   21119924.1334
  12555348.57846   9804314.92244  23947637.0784                   23947636.8594
  -6710066.53148  -5202339.63645  22070127.2504                   22070128.9924
 -24816410.80548 -19315939.17346  20949199.6174                   20949197.7194
 -25209080.92247 -19572705.57645  22078701.1724   22078700.0554
 -20966560.92248 -16314981.44346  20498969.3834                   20498968.1054
 11  8 11  2 10  0.0000000  0  7G04G02G29G25G12G10G05
                                  23968735.828
 -40165146.81648 -31258413.06646  21113338.1884                   21113335.3754
  12408166.85547   9689627.88744  23919629.3054                   23919630.3914
  -6819652.92648  -5287731.62646  22049273.6954                   22049275.6564
 -24859020.27748 -19349141.36146  20941091.3834                   20941089.6254
 -25195520.92247 -19562139.34945  22081281.7114   22081280.8634
 -21055882.73848 -16384582.82946  20481972.0164                   20481971.1644
 11  8 11  2 10 30.0000000  0  6G02G29G25G12G10G05
 -40199553.46148 -31285223.42746  21106791.2424                   21106788.0434
  12261027.37946   9574973.76844  23891629.4144                   23891629.7384
  -6928637.07048  -5372654.33846  22028534.5634                   22028536.7664
 -24900985.60948 -19381841.60746  20933105.5394                   20933104.5784
 -25181468.90247 -19551189.74145  22083955.4454   22083954.7584
 -21144559.96948 -16453681.92647  20465097.1954                   20465096.5744
 11  8 11  2 11  0.0000000  0  6G02G29G25G12G10G05
 -40233749.35248 -31311869.56246  21100283.8284                   21100281.0164
  12113925.57446   9460349.03544  23863636.9454                   23863637.5314
  -7037023.18448  -5457111.05845  22007909.8134                   22007911.3054
 -24942313.47748 -19414045.14346  20925241.3204                   20925239.3834
 -25166933.44147 -19539863.41645  22086721.7034   22086720.1954
 -21232597.92248 -16522282.90046  20448343.8914                   20448343.0594
 11  8 11  2 11 30.0000000  0  7G04G02G29G25G12G10G05
 -41142352.12515                  23979058.492
 -40267735.38748 -31338352.14146  21093816.3834                   21093813.5864
  11966862.41446   9345754.41244  23835651.3524                   23835653.0204
  -7144809.74248  -5541100.58145  21987398.6884                   21987399.8674
 -24983004.99248 -19445752.80946  20917497.9924                   20917496.7304
 -25151917.09447 -19528162.38045  22089579.0084   22089577.9454
 -21319996.44148 -16590385.61946  20431712.6024                   20431711.7504
 11  8 11  2 12  0.0000000  0  7G04G02G29G25G12G10G05
 -41124214.77015                  23982510.898
 -40301510.89148 -31364670.68546  21087389.1024                   21087386.0004
  11819840.36346   9231191.86444  23807673.7734                   23807675.3134
  -7251993.68748  -5624620.52146  21967002.4064                   21967002.8244
 -25023059.26248 -19476963.93546  20909875.7344                   20909874.5394
 -25136421.52347 -19516087.88945  22092527.6644   22092526.5744
 -21406753.56248 -16657988.54446  20415203.4304                   20415202.2304
 11  8 11  2 12 30.0000000  0  7G04G02G29G25G12G10G05
 -41106048.820 5                  23985968.156
 -40335077.01248 -31390826.06346  21081001.8674                   21080998.3914
  11672860.05146   9116661.77644  23779703.9694                   23779705.1294
  -7358573.81648  -5707669.96945  21946720.9844                   21946721.9494
 -25062477.41848 -19507679.37946  20902374.8054                   20902373.6454
 -25120449.74647 -19503642.39945  22095567.0704   22095566.0314
 -21492868.77748 -16725091.29046  20398816.3594                   20398815.1294
 11  8 11  2 13  0.0000000  0  7G04G02G29G25G12G10G05
 -41087852.051 5                  23989431.602
 -40368431.37948 -31416816.44646  21074654.3914                   21074651.4414
  11525925.84846   9002167.66044  23751743.3204                   23751744.8714
  -7464545.60548  -5790245.36245  21926555.1174                   21926556.2664
 -25101257.41848 -19537897.56246  20894995.0784                   20894994.1484
 -25104001.28147 -19490825.40645  22098697.4384   22098696.1764
 -21578338.92648 -16791691.37947  20382551.3524                   20382550.5004
 11  8 11  2 13 30.0000000  0  7G04G02G29G25G12G10G05
                                  23992895.984
 -40401580.96547 -31442647.24046  21068345.9694                   21068342.7114
  11379032.60547   8887705.45044  23723790.7194                   23723790.7624
  -7569914.00048  -5872350.60745  21906503.8914                   21906504.7544
 -25139406.59448 -19567624.18946  20887735.8834                   20887734.1604
 -25087085.35547 -19477644.19645  22101915.4224   22101914.8674
 -21663169.97348 -16857793.47547  20366408.7424                   20366407.9144
 11  8 11  2 14  0.0000000  0  7G04G02G29G25G12G10G05
 -41051387.05115                  23996373.266
 -40434526.71547 -31468319.22746  21062076.7424                   21062073.4264
  11232181.00447   8773275.67444  23695846.3594                   23695845.7234
  -7674677.70748  -5953984.65345  21886567.9224                   21886568.7774
 -25176926.09448 -19596860.17646  20880595.9144                   20880594.7424
 -25069704.85547 -19464100.99344  22105223.5234   22105222.3794
 -21747361.68448 -16923397.39146  20350387.8674                   20350386.6764
 11  8 11  2 14 30.0000000  0  7G04G02G29G25G12G10G05
                                  23999848.180
 -40467270.49648 -31493833.83446  21055846.3284                   21055842.9184
  11085371.23047   8658878.51344  23667909.4304                   23667908.3404
  -7778836.36348  -6035147.23045  21866747.3984                   21866748.4884
 -25213818.32448 -19625607.36646  20873575.7814                   20873574.0084
 -25051863.94147 -19450199.00245  22108618.8914   22108617.8674
 -21830915.00448 -16988503.86747  20334488.2274                   20334486.2974
 11  8 11  2 15  0.0000000  0  7G04G02G29G25G12G10G05
                                  24003329.766
 -40499811.13347 -31519190.13146  21049654.2114                   21049650.9804
  10938606.54746   8544516.46043  23639981.3134                   23639979.7774
  -7882386.44548  -6115835.57445  21847042.1334                   21847044.0594
 -25250081.92248 -19653864.72046  20866674.7034                   20866673.4774
 -25033562.71547 -19435938.31544  22112101.4224   22112100.3714
 -21913827.52348 -17053111.00346  20318710.2194                   20318708.8444
 11  8 11  2 15 30.0000000  0  6G02G29G25G12G10G05
 -40532151.47748 -31544390.35946  21043499.5164                   21043496.1764
  10791885.77347   8430188.63443  23612060.5394                   23612058.2974
  -7985328.87147  -6196050.43546  21827452.7974                   21827454.4614
 -25285720.09848 -19681634.72046  20859893.4384                   20859892.0394
 -25014806.32047 -19421322.95344  22115670.4454   22115668.6054
 -21996101.03148 -17117220.20446  20303054.3674                   20303053.2384
 11  8 11  2 16  0.0000000  0  6G02G29G25G12G10G05
 -40564294.02747 -31569436.48046  21037383.0864                   21037379.3714
  10645208.32447   8315894.57044  23584149.5554                   23584148.6914
  -8087663.99647  -6275792.07246  21807979.0474                   21807980.1374
 -25320735.58248 -19708919.52846  20853230.0474                   20853228.2114
 -24995599.55147 -19406356.63344  22119324.8054   22119323.4224
 -22077737.15248 -17180832.75347  20287519.4384                   20287518.3594
 11  8 11  2 16 30.0000000  0  6G02G29G25G12G10G05
 -40596239.37148 -31594328.89946  21031304.1884                   21031300.5944
  10498575.29746   8201635.13144  23556245.3754                   23556245.8404
  -8189390.40247  -6355059.37046  21788621.2584                   21788622.9534
 -25355129.77747 -19735720.20346  20846684.9534                   20846683.7344
 -24975944.91847 -19391041.36745  22123065.0554   22123064.5744
 -22158735.62948 -17243948.43047  20272105.9924                   20272104.8164
 11  8 11  2 17  0.0000000  0  6G02G29G25G12G10G05
 -40627987.35247 -31619067.54046  21025262.5784                   21025259.2424
  10351989.12547   8087412.17544  23528351.0084                   23528351.2974
  -8290505.71147  -6433850.52045  21769379.9844                   21769381.2154
 -25388902.76647 -19762036.81746  20840258.0704                   20840257.0084
 -24955844.25446 -19375378.55544  22126890.8754   22126889.5784
 -22239095.27348 -17306566.31947  20256813.8524                   20256812.8014
 11  8 11  2 17 30.0000000  0  6G02G29G25G12G10G05
 -40659541.21947 -31643654.94546  21019258.0234                   21019254.4144
  10205447.98046   7973224.35344  23500464.5314                   23500465.2774
  -8391011.57847  -6512166.75445  21750253.7974                   21750255.5204
 -25422058.02347 -19787872.10146  20833948.7034                   20833947.4224
 -24935303.75446 -19359373.01744  22130799.1484   22130798.5234
 -22318818.79748 -17368688.51847  20241642.7734                   20241642.0084
 11  8 11  2 18  0.0000000  0  6G02G29G25G12G10G05
 -40690900.81248 -31668090.97346  21013290.4384                   21013287.3634
  10058954.13746   7859073.36244  23472587.6884                   23472586.9414
  -8490905.72347  -6590006.32145  21731244.7344                   21731246.0904
 -25454596.43448 -19813226.72446  20827757.0084                   20827755.6604
 -24914324.81647 -19343025.80744  22134791.0864   22134789.3404
 -22397905.03148 -17430314.15347  20226593.1804                   20226592.0164
 11  8 11  2 18 30.0000000  0  6G02G29G25G12G10G05
 -40722063.63348 -31692373.68246  21007360.1414                   21007356.7074
   9912512.12147   7744962.73744  23444721.1174                   23444720.9844
  -8590183.39547  -6667365.53246  21712353.0084                   21712354.0944
 -25486515.59047 -19838098.81346  20821683.1094                   20821681.6684
 -24892906.91047 -19326336.57044  22138867.3834   22138865.3874
 -22476350.26248 -17491440.29247  20211665.8524                   20211664.9614
 11  8 11  2 19  0.0000000  0  6G02G29G25G12G10G05
 -40753035.02747 -31716507.23146  21001466.3444                   21001463.4304
   9766118.25846   7630889.68244  23416862.6564                   23416863.7154
  -8688848.26248  -6744247.20246  21693577.7194                   21693579.0704
 -25517821.47348 -19862493.00846  20815725.8444                   20815724.3634
 -24871057.44947 -19309311.03944  22143025.1024   22143023.4804
 -22554159.54348 -17552070.88247  20196858.9694                   20196857.9184
 11  8 11  2 19 30.0000000  0  6G02G29G25G12G10G05
 -40783816.91447 -31740493.12046  20995608.5704                   20995605.2854
   9619772.50447   7516854.09744  23389013.8834                   23389014.9614
  -8786900.43048  -6820651.47646  21674918.9614                   21674919.6564
 -25548516.41448 -19886411.15246  20809884.5004                   20809883.1844
 -24848780.74247 -19291952.55744  22147263.9534   22147262.5944
 -22631334.15648 -17612206.93247  20182173.2194                   20182171.7584
 11  8 11  2 20  0.0000000  0  6G02G29G25G12G10G05
 -40814410.81648 -31764332.51246  20989787.6724                   20989783.6094
   9473475.60946   7402856.58544  23361174.2734                   23361175.1954
  -8884339.32848  -6896577.88046  21656376.7974                   21656378.1374
 -25578602.58248 -19909854.93946  20804159.5784                   20804158.0084
 -24826080.33647 -19274263.96644  22151583.9614   22151582.8284
 -22707874.43048 -17671848.69447  20167608.3524                   20167607.0274
 11  8 11  2 20 30.0000000  0  6G02G29G25G12G10G05
 -40844816.17648 -31788025.00546  20984001.5004                   20983997.5204
   9327230.01647   7288899.08944  23333344.9534                   23333345.0824
  -8981162.55948  -6972024.53146  21637952.2424                   21637953.6054
 -25608080.10548 -19932824.44846  20798550.4694                   20798548.7934
 -24802957.76247 -19256246.41844  22155983.7114   22155982.4494
 -22783779.19548 -17730995.23847  20153164.2814                   20153162.6094
 11  8 11  2 21  0.0000000  0  6G02G29G25G12G10G05
 -39299614.02747 -30583971.36646  21278043.6334                   21278040.4924
  10756459.96947   8402584.82744  23605318.8444                   23605319.2384
  -7501947.37948  -5819389.31846  21919437.2664                   21919438.4614
 -24061530.89547 -18727721.18346  21092848.5084                   21092846.8364
 -23203998.54747 -18010304.20344  22460255.8674   22460255.1174
 -21283627.78148 -16562046.05747  20438633.2034                   20438632.4694
 11  8 11  2 21 30.0000000  0  6G02G29G25G12G10G05
 -39329647.09848 -30607373.75746  21272328.5314                   21272325.1374
  10610317.32047   8288707.48944  23577508.3284                   23577508.8094
  -7597539.09447  -5893876.33646  21901246.7814                   21901248.4654
 -24089797.73448 -18749747.30346  21087469.7664                   21087468.6724
 -23180043.66847 -17991638.07844  22464814.7194   22464813.5784
 -21358264.87548 -16620204.81147  20424430.4224                   20424428.6294
 11  8 11  2 22  0.0000000  0  6G02G29G25G12G10G05
 -39359496.84448 -30630633.31646  21266648.0394                   21266645.0634
  10464226.17247   8174870.28344  23549708.6334                   23549708.3674
  -7692515.27348  -5967883.74946  21883173.3674                   21883174.3134
 -24117463.47348 -18771305.04046  21082205.0394                   21082203.2774
 -23155678.73047 -17972652.44544  22469450.6334   22469449.5824
 -21432270.20748 -16677871.28147  20410347.3984                   20410346.0164
 11  8 11  2 22 30.0000000  0  6G02G29G25G12G10G05
 -39389162.42248 -30653749.36146  21261002.8754                   21260999.1844
  10318189.28146   8061075.37144  23521918.8594                   23521919.3594
  -7786873.31647  -6041409.48846  21865217.7194                   21865218.5944
 -24144527.98048 -18792394.26946  21077054.9534                   21077053.4024
 -23130904.74247 -17953348.03444  22474165.2974   22474163.7704
 -21505642.29348 -16735044.31346  20396385.3524                   20396383.8754
 11  8 11  2 23  0.0000000  0  6G02G29G25G12G10G05
 -39418647.62548 -30676724.84946  21255392.0554                   21255388.3984
  10172204.91846   7947321.39044  23494138.7034                   23494139.7384
  -7880615.28547  -6114455.18446  21847379.1724                   21847380.1644
 -24170995.64548 -18813018.43446  21072018.4304                   21072016.9654
 -23105728.07847 -17933729.86944  22478956.2194   22478955.8404
 -21578384.36348 -16791726.44247  20382543.0314                   20382541.7854
 11  8 11  2 23 30.0000000  0  6G02G29G25G12G10G05
 -39447952.73047 -30699560.00346  21249815.5084                   21249811.8714
  10026274.38747   7833609.36844  23466368.3594                   23466369.3634
  -7973740.03947  -6187019.91746  21829658.1644                   21829659.5084
 -24196867.80548 -18833178.57846  21067095.0164                   21067093.2304
 -23080151.16447 -17913799.82644  22483823.3364   22483822.3134
 -21650496.27748 -16847917.52247  20368820.4144                   20368819.6484
 11  8 11  2 24  0.0000000  0  6G02G29G25G12G10G05
 -39477078.21547 -30722255.17946  21244273.4924                   21244269.2624
   9880399.56346   7719940.75144  23438609.3134                   23438609.4884
  -8066246.50448  -6259102.88146  21812054.8834                   21812055.8094
 -24222145.79748 -18852875.71646  21062284.7114                   21062283.1564
 -23054176.92646 -17893560.17344  22488766.1484   22488764.8364
 -21721978.37148 -16903617.82147  20355217.8524                   20355216.6764
 11  8 11  2 24 30.0000000  0  6G02G29G25G12G10G05
 -39506025.56647 -30744811.54146  21238765.0784                   21238761.0044
   9734580.76646   7606315.76144  23410861.1724                   23410861.7194
  -8158134.10247  -6330703.59246  21794568.9774                   21794570.2034
 -24246831.35948 -18872111.22046  21057587.2664                   21057585.8594
 -23027808.80146 -17873013.59244  22493783.6954   22493782.5394
 -21792831.23848 -16958827.84847  20341735.1724                   20341733.5984
 11  8 11  2 25  0.0000000  0  6G02G29G25G12G10G05
 -39534797.20347 -30767231.00046  21233289.9144                   21233286.5394
   9588817.53946   7492734.07944  23383123.5164                   23383123.1214
  -8249403.90247  -6401822.92346  21777201.2974                   21777202.1484
 -24270927.75048 -18890887.63346  21053002.2034                   21053000.9574
 -23001051.52347 -17852163.78244  22498875.1484   22498873.9454
 -21863056.89548 -17013549.11147  20328371.5704                   20328369.9734
 11  8 11  2 25 30.0000000  0  6G02G29G25G12G10G05
 -39563398.74247 -30789517.93846  21227846.6804                   21227843.9184
   9443106.10546   7379192.73244  23355395.8594                   23355395.3014
  -8340059.91847  -6472463.98146  21759950.2344                   21759951.0514
 -24294442.22348 -18909210.61046  21048527.0784                   21048525.7934
 -22973912.93747 -17831016.82144  22504039.8134   22504038.7584
 -21932660.49248 -17067785.67847  20315126.5474                   20315125.3164
 11  8 11  2 26  0.0000000  0  6G02G29G25G12G10G05
 -39591835.58647 -30811676.49846  21222435.6724                   21222431.5634
   9297443.18846   7265689.22144  23327677.0084                   23327676.5084
  -8430106.03547  -6542629.78046  21742815.4614                   21742815.5164
 -24317380.95348 -18927084.96446  21044162.0634                   21044159.9964
 -22946400.81647 -17809578.80044  22509274.6954   22509274.7934
 -22001647.21148 -17121541.54447  20301998.4064                   20301997.4614
 11  8 11  2 26 30.0000000  0  6G02G29G25G12G10G05
 -39620116.84847 -30833713.83546  21217054.0704                   21217050.3754
   9151821.32046   7152217.68344  23299965.3674                   23299964.7734
  -8519550.22748  -6612326.55246  21725793.7584                   21725794.9964
 -24339754.12548 -18944518.59846  21039904.7194                   21039902.7344
 -22918526.71147 -17787858.75344  22514579.3674   22514578.7664
 -22070026.26248 -17174823.90447  20288986.3674                   20288985.4104
 11  8 11  2 27  0.0000000  0  7G04G02G29G25G12G10G05
                                  24387365.383
 -39648237.33647 -30855625.87846  21211702.8594                   21211698.9654
   9006247.71947   7038783.74144  23272264.2034                   23272263.8524
  -8608385.82448  -6681549.09446  21708888.9614                   21708890.3874
 -24361557.36348 -18961508.15946  21035755.8284                   21035754.2234
 -22890287.55947 -17765854.25844  22519953.3284   22519952.3554
 -22137791.96148 -17227628.35247  20276091.1644                   20276089.5354
 11  8 11  2 27 30.0000000  0  7G04G02G29G25G12G10G05
  22077290.711 5                  24390873.891
 -39676196.01647 -30877411.85046  21206382.1954                   21206378.9884
   8860725.57447   6925389.90544  23244572.3524                   23244571.2584
  -8696610.10548  -6750295.30246  21692100.4224                   21692101.7304
 -24382790.49248 -18978053.44846  21031714.9384                   21031713.9384
 -22861684.53546 -17743566.17144  22525395.8984   22525395.9384
 -22204943.04348 -17279953.85547  20263312.6174                   20263311.4304
 11  8 11  2 28  0.0000000  0  7G04G02G29G25G12G10G05
  22095727.898 5                  24394382.250
 -39703994.85248 -30899073.27246  21201092.3594                   21201088.7504
   8715254.59847   6812035.95644  23216889.4384                   23216889.6684
  -8784223.93748  -6818565.81846  21675428.1174                   21675429.4574
 -24403456.96548 -18994157.20446  21027782.6024                   21027780.7704
 -22832722.09047 -17720998.01944  22530907.2734   22530906.8634
 -22271481.42248 -17331801.93547  20250650.9694                   20250649.3524
 11  8 11  2 28 30.0000000  0  7G04G02G29G25G12G10G05
  22114152.313 5                  24397889.148
 -39731633.21547 -30920609.66546  21195832.7504                   21195829.1024
   8569837.43047   6698723.89444  23189217.7424                   23189217.0044
  -8871225.18747  -6886358.99346  21658872.7424                   21658873.8714
 -24423556.92648 -19009819.52046  21023957.5704                   21023956.5314
 -22803401.59047 -17698150.88844  22536486.9454   22536486.7774
 -22337406.03148 -17383171.74747  20238105.6024                   20238104.4964
 11  8 11  2 29  0.0000000  0  7G04G02G29G25G12G10G05
                                  24401390.781
 -39759113.62147 -30942022.97446  21190603.5554                   21190599.7304
   8424473.75446   6585453.53444  23161555.9144                   23161556.1914
  -8957615.03548  -6953675.75746  21642433.0704                   21642434.2464
 -24443094.29348 -19025043.46746  21020239.6954                   21020238.0704
 -22773728.26647 -17675028.82544  22542133.8984   22542132.7664
 -22402719.43748 -17434065.31647  20225677.2034                   20225675.4574
 11  8 11  2 29 30.0000000  0  6G02G29G25G12G10G05
 -39786427.40647 -30963306.42346  21185405.6644                   21185403.0944
   8279174.27047   6472233.16844  23133906.5864                   23133906.3324
  -9043383.61748  -7020508.43046  21626111.3834                   21626112.6214
 -24462061.44548 -19039823.05446  21016630.4454                   21016629.0354
 -22743695.65247 -17651626.79344  22547848.5704   22547848.1994
 -22467412.78548 -17484475.70847  20213365.9924                   20213364.8054
 11  8 11  2 30  0.0000000  0  6G02G29G25G12G10G05
 -39813578.57847 -30984463.17246  21180239.3674                   21180235.9614
   8133936.50046   6359060.91644  23106268.2974                   23106268.2344
  -9128533.73048  -7086859.15046  21609908.1804                   21609909.3444
 -24480463.62548 -19054162.42046  21013128.6024                   21013127.3444
 -22713310.04747 -17627949.71644  22553630.8594   22553630.1054
 -22531490.08647 -17534406.06147  20201172.5704                   20201171.1484
 11  8 11  2 30 30.0000000  0  6G02G29G25G12G10G05
 -39840567.65247 -31005493.59946  21175103.0784                   21175099.8284
   7988762.35246   6245938.21244  23078642.5944                   23078642.1094
  -9213064.60948  -7152727.38446  21593822.5004                   21593824.2114
 -24498302.55148 -19068062.88546  21009733.9844                   21009732.4694
 -22682574.35547 -17603999.82444  22559479.5164   22559478.8714
 -22594951.51647 -17583856.53147  20189096.6724                   20189094.7974
 11  8 11  2 31  0.0000000  0  6G02G29G25G12G10G05
 -39867392.63748 -31026396.18346  21169998.2504                   21169994.8554
   7843655.48846   6132867.96844  23051029.6564                   23051028.7814
  -9296973.08248  -7218110.60646  21577855.0864                   21577856.9184
 -24515577.52748 -19081523.91446  21006446.7664                   21006444.9454
 -22651488.73047 -17579777.27144  22565394.9614   22565394.4224
 -22657795.39848 -17632825.76747  20177137.4694                   20177136.3714
 11  8 11  2 31 30.0000000  0  6G02G29G25G12G10G05
 -39894053.45348 -31047170.85746  21164925.5944                   21164921.6134
   7698618.07447   6019851.80145  23023430.5314                   23023430.3634
  -9380257.96948  -7283007.89946  21562006.3364                   21562007.7034
 -24532289.89548 -19094546.54446  21003266.4384                   21003264.0474
 -22620055.88747 -17555284.12244  22571376.5004   22571376.0984
 -22720021.46147 -17681313.59647  20165296.4224                   20165294.9344
 11  8 11  2 32  0.0000000  0  6G02G29G25G12G10G05
 -39920554.13748 -31067820.74346  21159882.0864                   21159878.5394
   7553648.44547   5906888.47844  22995843.5864                   22995843.9494
  -9462921.98448  -7347421.40546  21546276.3364                   21546277.4264
 -24548444.13748 -19107134.26446  21000192.3364                   21000190.5554
 -22588281.66447 -17530525.04144  22577423.2424   22577422.4344
 -22781633.89148 -17729323.28247  20153571.9384                   20153570.3794
 11  8 11  2 32 30.0000000  0  6G02G29G25G12G10G05
 -39946895.17648 -31088346.24246  21154870.0704                   21154866.3834
   7408747.58647   5793978.72244  22968269.5234                   22968270.2774
  -9544964.86748  -7411350.91646  21530664.0234                   21530664.9884
 -24564043.04348 -19119289.26546  20997224.2344                   20997223.1024
 -22556169.38746 -17505502.47944  22583533.6564   22583532.5204
 -22842633.30148 -17776855.27147  20141964.2664                   20141963.4494
 11  8 11  2 33  0.0000000  0  6G02G29G25G12G10G05
 -39973074.57448 -31108745.77946  21149888.1644                   21149885.2304
   7263919.25047   5681125.51644  22940710.0474                   22940710.1804
  -9626383.37548  -7474793.90846  21515170.4304                   21515171.3484
 -24579085.56248 -19131010.71746  20994361.5784                   20994360.3754
 -22523719.27046 -17480216.63444  22589708.9774   22589707.2704
 -22903017.88748 -17823908.18647  20130473.2584                   20130472.1414
 11  8 11  2 33 30.0000000  0  6G02G29G25G12G10G05
 -38423674.34848 -29901420.93446  21444729.2114                   21444725.8874
   8694587.60547   6795932.04444  23212956.8364                   23212956.8204
  -8131756.93048  -6310149.90446  21799588.6484                   21799589.7074
 -23018155.65248 -17914701.69546  21291396.4384                   21291394.7274
 -20915518.07446 -16227072.83344  22895739.2034   22895738.0594
 -21387368.76248 -16642882.86747  20418892.2584                   20418890.1764
 11  8 11  2 34  0.0000000  0  7G26G02G29G25G12G10G05
                                  23272610.88715                  24617623.266
 -38449538.69548 -29921574.97846  21439807.6484                   21439804.1764
   8549902.49246   6683190.47144  23185423.6174                   23185424.3134
  -8211932.37948  -6372624.24446  21784331.5474                   21784332.4614
 -23032098.31248 -17925566.11546  21288743.7114                   21288742.0594
 -20882408.25047 -16201272.99144  22902040.4224   22902039.7664
 -21446532.62148 -16688984.55647  20407633.3754                   20407631.5784
 11  8 11  2 34 30.0000000  0  7G26G02G29G25G12G10G05
                                  23114776.37914                  24587585.438
 -38475248.55948 -29941608.63146  21434915.0554                   21434911.8444
   8405289.12947   6570504.78144  23157905.0634                   23157905.0984
  -8291487.71948  -6434615.39746  21769192.6564                   21769193.9734
 -23045496.03548 -17936005.88546  21286193.7344                   21286192.3404
 -20848974.98846 -16175221.11344  22908402.2974   22908401.0864
 -21505088.99648 -16734612.87647  20396490.1724                   20396489.4964
 11  8 11  2 35  0.0000000  0  7G26G02G29G25G12G10G05
                                                                  24557547.805
 -38500796.05147 -29961515.79846  21430053.5784                   21430050.2074
   8260757.43447   6457882.73244  23130401.8754                   23130401.3524
  -8370414.07848  -6496116.43846  21754173.1804                   21754174.7504
 -23058342.40248 -17946016.05446  21283749.4534                   21283748.1804
 -20815212.81646 -16148912.93844  22914827.1954   22914826.2114
 -21563030.42248 -16779761.99547  20385464.7194                   20385463.2734
 11  8 11  2 35 30.0000000  0  6G02G29G25G12G10G05
 -38526185.54347 -29981299.83746  21425221.9064                   21425218.1954
   8116304.98047   6345322.39844  23102912.9064                   23102911.8594
  -8448714.98448  -6557130.10946  21739273.2974                   21739274.5704
 -23070643.35548 -17955601.21746  21281408.4534                   21281407.3404
 -20781128.52747 -16122353.75344  22921312.2504   22921311.9224
 -21620361.74247 -16824435.72646  20374554.7584                   20374553.1334
 11  8 11  2 36  0.0000000  0  6G02G29G25G12G10G05
 -38551417.65247 -30000961.22746  21420421.0864                   21420416.8714
   7971933.35547   6232825.07344  23075440.4064                   23075439.6604
  -8526390.13748  -6617656.16946  21724492.1724                   21724493.6684
 -23082400.78548 -17964762.86246  21279171.2344                   21279169.5634
 -20746724.94946 -16095545.78044  22927859.6884   22927859.6644
 -21677083.73847 -16868634.63947  20363760.5394                   20363759.4964
 11  8 11  2 36 30.0000000  0  6G02G29G25G12G10G05
 -38576490.92647 -30020498.85746  21415649.3914                   21415645.5634
   7827645.58647   6120393.08044  23047982.6644                   23047982.0314
  -8603437.52048  -6677693.07046  21709830.6024                   21709831.9924
 -23093614.83648 -17973501.09346  21277037.2664                   21277035.9494
 -20712003.38746 -16068490.02544  22934467.5704   22934465.9884
 -21733195.20748 -16912357.82447  20353083.3134                   20353081.8134
 11  8 11  2 37  0.0000000  0  6G02G29G25G12G10G05
 -38601403.87147 -30039911.55646  21410908.6414                   21410905.2934
   7683445.19947   6008029.18545  23020542.5474                   23020542.2304
  -8679854.67248  -6737238.86946  21695288.2734                   21695289.9734
 -23104286.22348 -17981816.47646  21275006.4694                   21275005.2384
 -20676964.70346 -16041187.14843  22941134.3834   22941132.8554
 -21788695.18748 -16955604.51547  20342522.1414                   20342520.7154
 11  8 11  2 37 30.0000000  0  6G02G29G25G12G10G05
 -38626151.01248 -30059195.03446  21406199.5704                   21406195.8984
   7539339.66447   5895739.21445  22993120.0234                   22993120.5234
  -8755635.63748  -6796288.94446  21680868.0314                   21680869.4064
 -23114410.62948 -17989705.63646  21273079.9384                   21273078.3164
 -20641605.78146 -16013634.76044  22947863.6564   22947862.2034
 -21843578.67648 -16998370.81647  20332077.6954                   20332075.9774
 11  8 11  2 38  0.0000000  0  7G26G02G29G25G12G10G05
                                  23509190.33615                  24377271.203
 -38650734.70347 -30078351.14645  21401520.8204                   21401517.9494
   7395328.74647   5783522.98445  22965715.3754                   22965715.5784
  -8830781.64848  -6854844.27146  21666568.4384                   21666569.4414
 -23123991.83248 -17997171.53546  21271256.8134                   21271255.3094
 -20605931.16446 -15985836.33744  22954651.8134   22954650.2544
 -21897848.01248 -17040658.57547  20321750.7814                   20321749.2734
 11  8 11  2 38 30.0000000  0  7G26G02G29G25G12G10G05
                                  23351305.207 5                  24347225.086
 -38675149.35247 -30097375.55245  21396874.7814                   21396871.5164
   7251420.07847   5671386.40644  22938330.5704                   22938329.3554
  -8905286.69548  -6912900.12146  21652390.7664                   21652391.3874
 -23133026.21148 -18004211.30346  21269537.5784                   21269536.2504
 -20569938.07446 -15957789.81344  22961500.9064   22961500.4144
 -21951498.44948 -17082464.05847  20311541.2034                   20311539.6054
 11  8 11  2 39  0.0000000  0  7G26G02G29G25G12G10G05
                                  23193431.785 5                  24317182.828
 -38699400.38747 -30116272.45246  21392260.2424                   21392256.6564
   7107610.55947   5559327.10645  22910964.5634                   22910963.9304
  -8979155.33248  -6970460.07646  21638333.4304                   21638334.7504
 -23141520.21548 -18010830.02046  21267921.2504                   21267919.6024
 -20533634.05146 -15929500.96144  22968409.5004   22968408.7974
 -22004535.63348 -17123791.67947  20301448.4144                   20301447.2304
 11  8 11  2 39 30.0000000  0  7G26G02G29G25G12G10G05
                                  23035576.582 5                  24287144.664
 -38723484.92647 -30135039.63346  21387677.2974                   21387673.6954
   6963904.80547   5447348.65345  22883618.3594                   22883617.6604
  -9052384.08248  -7027521.42246  21624398.9844                   21624399.4344
 -23149473.39148 -18017027.30946  21266407.9064                   21266406.4694
 -20497018.91846 -15900969.67444  22975377.5084   22975376.6484
 -22056957.44148 -17164639.78947  20291472.7974                   20291471.3094
 11  8 11  2 40  0.0000000  0  7G26G02G29G25G12G10G05
                                  22877738.020 5                  24257110.000
 -38747407.60547 -30153680.66446  21383124.9844                   21383121.4964
   6820299.95747   5335448.82845  22856291.1254                   22856291.1644
  -9124977.41048  -7084087.63546  21610584.9454                   21610585.7424
 -23156892.24248 -18022808.25846  21264996.1414                   21264994.6214
 -20460100.06646 -15872201.74644  22982402.5314   22982402.5904
 -22108769.07448 -17205012.44447  20281613.4534                   20281612.1484
 11  8 11  2 40 30.0000000  0  7G26G02G29G25G12G10G05
                                  22719920.58215                  24227075.664
 -38771168.07447 -30172195.31846  21378603.5474                   21378600.5594
   6676798.57447   5223629.65245  22828983.3594                   22828983.7974
  -9196934.06648  -7140157.76646  21596891.4064                   21596892.5784
 -23163777.82848 -18028173.66046  21263685.5004                   21263684.2034
 -20422879.34446 -15843198.58743  22989485.3444   22989484.9964
 -22159970.66448 -17244909.73646  20271870.3444                   20271868.3794
 11  8 11  2 41  0.0000000  0  7G26G02G29G25G12G10G05
                                                                  24197048.094
 -38794767.27047 -30190584.30446  21374112.7274                   21374109.7854
   6533401.57847   5111891.84145  22801695.8364                   22801696.1174
  -9268254.59048  -7195732.19446  21583319.6024                   21583320.6644
 -23170132.68747 -18033125.49846  21262476.4224                   21262475.1484
 -20385360.21946 -15813962.90643  22996625.1804   22996624.8754
 -22210563.61348 -17284332.77946  20262242.2504                   20262240.8324
 11  8 11  2 41 30.0000000  0  7G26G02G29G25G12G10G05
                                  22404354.02015                  24167026.828
 -38818211.27747 -30208852.34646  21369651.0784                   21369647.8524
   6390105.54747   5000232.70344  22774427.4454                   22774426.9694
  -9338944.28948  -7250815.05346  21569868.0944                   21569869.4924
 -23175964.55548 -18037669.84346  21261366.8444                   21261365.4344
 -20347551.03146 -15784501.13943  23003820.1564   23003819.4734
 -22260554.72348 -17323286.85947  20252729.7034                   20252727.7584
 11  8 11  2 42  0.0000000  0  7G26G02G29G25G12G10G05
                                  22246608.344 5                  24137007.953
 -38841497.85548 -30226997.70846  21365219.8834                   21365216.0084
   6246914.28147   4888655.17245  22747178.6094                   22747179.7664
  -9409000.77748  -7305404.50646  21556536.7034                   21556538.4884
 -23181273.44147 -18041806.62746  21260356.4614                   21260355.0784
 -20309452.21946 -15754813.76843  23011069.6724   23011069.6994
 -22309942.50048 -17361770.79847  20243331.1334                   20243329.7194
 11  8 11  2 42 30.0000000  0  7G26G02G29G25G12G10G05
                                  22088894.066 5                  24106996.914
 -38864626.23448 -30245019.82846  21360818.8204                   21360815.1564
   6103830.70747   4777161.56345  22719951.1724                   22719950.6884
  -9478422.76248  -7359499.57646  21543326.5394                   21543327.9844
 -23186060.48847 -18045536.79046  21259445.3134                   21259443.7384
 -20271065.30547 -15724901.87843  23018374.8054   23018373.3754
 -22358726.60248 -17399784.34447  20234047.8284                   20234046.3444
 11  8 11  2 43  0.0000000  0  7G26G02G29G25G12G10G05
                                  21931211.016 5                  24076989.602
 -38887600.12947 -30262921.54945  21356446.7504                   21356443.2304
   5960853.16447   4665750.55345  22692743.4774                   22692743.5394
  -9547213.57448  -7413102.77746  21530235.5394                   21530236.5634
 -23190331.02348 -18048864.49146  21258632.8054                   21258631.0084
 -20232396.27047 -15694770.13343  23025733.2734   23025731.5394
 -22406911.58648 -17437331.06547  20224878.6024                   20224876.8204
 11  8 11  2 43 30.0000000  0  7G26G02G29G25G12G10G05
                                  21773562.859 5                  24046991.625
 -38910419.65248 -30280702.99945  21352104.9064                   21352101.0314
   5817983.52347   4554423.66145  22665556.5394                   22665555.5984
  -9615373.13348  -7466214.12446  21517265.4924                   21517266.0594
 -23194087.37147 -18051791.53546  21257917.8834                   21257916.1804
 -20193448.16046 -15664420.97643  23033145.2034   23033143.9734
 -22454498.63348 -17474411.87047  20215823.2734                   20215821.7974
 11  8 11  2 44  0.0000000  0  7G26G02G29G25G12G10G05
                                  21615955.816 6                  24016999.094
 -38933081.92648 -30298361.90645  21347792.5554                   21347788.6174
   5675226.47747   4443184.47945  22638390.4774                   22638389.7934
  -9682898.10248  -7518830.99546  21504415.7734                   21504417.9964
 -23197328.36347 -18054317.00446  21257301.5234                   21257299.8054
 -20154220.48847 -15633853.92943  23040610.1644   23040607.8634
 -22501485.41048 -17511024.91547  20206882.3674                   20206880.5864
 11  8 11  2 44 30.0000000  0  7G26G02G29G25G12G10G05
                                  21458390.051 5                  23987015.563
 -38955590.56247 -30315901.08945  21343508.7194                   21343504.9384
   5532580.44147   4332031.80945  22611245.6254                   22611244.4104
  -9749791.91048  -7570956.03346  21491686.3364                   21491687.2704
 -23200059.71547 -18056445.33546  21256781.4774                   21256780.1294
 -20114719.37947 -15603073.82843  23048126.6954   23048124.4804
 -22547876.26648 -17547173.60947  20198053.7424                   20198052.3204
 11  8 11  2 45  0.0000000  0  7G26G02G29G25G12G10G05
                                  21300869.535 5                  23957039.164
 -38977945.09448 -30333320.21546  21339254.9064                   21339251.2344
   5390048.23447   4220967.81344  22584122.7734                   22584121.4304
  -9816053.73448  -7622588.62046  21479077.6564                   21479078.0394
 -23202282.62947 -18058177.48346  21256358.5394                   21256357.8054
 -20074946.75446 -15572082.16643  23055694.8984   23055692.8364
 -22593671.48848 -17582858.19547  20189339.2664                   20189337.8014
 11  8 11  2 45 30.0000000  0  7G26G02G29G25G12G10G05
                                  21143397.402 5                  23927073.570
 -39000146.57047 -30350620.06146  21335030.2504                   21335027.5274
   5247630.78547   4109993.25145  22557021.2424                   22557020.7814
  -9881684.20748  -7673729.26146  21466587.9614                   21466588.9414
 -23203999.96947 -18059515.68346  21256031.8134                   21256030.4844
 -20034905.95746 -15540881.59943  23063314.4694   23063312.4574
 -22638872.73448 -17618079.93547  20180738.2034                   20180736.1254
 11  8 11  2 46  0.0000000  0  7G26G02G29G25G12G10G05
                                  20985974.680 6                  23897118.242
 -39022197.20348 -30367802.35846  21330834.4534                   21330831.1564
   5105327.94547   3999107.97845  22529941.8054                   22529941.3014
  -9946685.54748  -7724379.65646  21454218.8834                   21454219.9494
 -23205216.54747 -18060463.65646  21255800.1094                   21255799.1094
 -19994601.59846 -15509475.54743  23070983.5704   23070982.2734
 -22683483.63748 -17652841.63947  20172248.6024                   20172247.1094
 11  8 11  2 46 30.0000000  0  7G26G02G29G25G12G10G05
                                  22404035.629 6                  24166965.594
 -37468670.82448 -29157262.31946  21626460.2114                   21626456.8524
   6538572.25447   5115921.78945  22802679.2584                   22802678.7274
  -8435630.03948  -6546933.81146  21741763.0004                   21741764.5634
 -21630508.74647 -16833418.62946  21555457.2584                   21555455.8244
 -18378612.43446 -14250263.25143  23378496.9064   23378494.3794
 -21152077.90248 -16459538.45747  20463665.6334                   20463663.6994
 11  8 11  2 47  0.0000000  0  7G26G02G29G25G12G10G05
  22246729.00845  16066788.42652  24137030.3204                   24137030.3794
 -37490413.44547 -29174204.59446  21622322.9304                   21622319.3714
   6396511.20347   5005224.90845  22775645.9224                   22775646.1884
  -8499366.41048  -6596598.52546  21729634.5314                   21729635.5784
 -21630722.80947 -16833585.44946  21555416.0864                   21555415.1884
 -18337782.99646 -14218448.14643  23386266.6724   23386263.9104
 -21195504.11348 -16493377.04546  20455401.6414                   20455399.5274
 11  8 11  2 47 30.0000000  0  7G26G02G29G25G12G10G05
  22089482.09846  15944258.39142  24107108.7974                   24107107.1414
 -37512005.67648 -29191029.70845  21618214.0234                   21618210.0314
   6254570.54747   4894621.87945  22748635.2194                   22748634.7624
  -8562473.96148  -6645773.23746  21717625.5864                   21717626.1764
 -21630442.34847 -16833366.92446  21555469.6954                   21555468.6524
 -18296698.61346 -14186434.29443  23394084.1334   23394082.1564
 -21238343.16448 -16526758.11746  20447249.9614                   20447247.9264
 11  8 11  2 48  0.0000000  0  7G26G02G29G25G12G10G05
  21932299.26246  15821778.38742  24077197.2114                   24077196.6914
 -37533446.80548 -29207737.06346  21614133.9384                   21614130.2234
   6112752.84447   4784114.62045  22721648.2034                   22721647.8054
  -8624951.80948  -6694457.27846  21705736.6094                   21705737.2074
 -21629669.45747 -16832764.67546  21555617.2814                   21555616.2544
 -18255361.11746 -14154223.28143  23401950.1644   23401948.5784
 -21280595.07448 -16559681.66946  20439209.1414                   20439208.0354
 11  8 11  2 48 30.0000000  0  7G26G02G29G25G12G10G05
  21775183.05946  15699350.29342  24047297.8284                   24047297.9024
 -37554738.17247 -29224327.73045  21610082.0634                   21610078.3984
   5971058.76647   4673703.69945  22694685.2034                   22694684.7194
  -8686801.14548  -6742651.55846  21693967.1484                   21693968.4494
 -21628406.68047 -16831780.69746  21555856.9774                   21555856.2894
 -18213773.72346 -14121817.54043  23409864.6174   23409862.4344
 -21322262.55948 -16592149.81846  20431280.3054                   20431278.8484
 11  8 11  2 49  0.0000000  0  7G26G02G29G25G12G10G05
  21618138.81346  15576978.24643  24017413.7034                   24017413.3554
 -37575878.00048 -29240800.30945  21606059.3984                   21606056.2934
   5829492.45347   4563392.34645  22667745.6414                   22667745.4734
  -8748020.15247  -6790354.69146  21682317.0474                   21682318.8164
 -21626654.85547 -16830415.65846  21556190.7664                   21556189.5354
 -18171937.37546 -14089217.83843  23417825.7194   23417823.5904
 -21363344.54348 -16624161.75347  20423462.6954                   20423461.2344
 11  8 11  2 49 30.0000000  0  7G26G02G29G25G12G10G05
  21461170.45346  15454665.29742  23987543.9614                   23987542.4384
 -37596866.01647 -29257154.62545  21602065.2664                   21602062.3204
   5688056.04747   4453182.21345  22640831.0164                   22640830.0514
  -8808608.86748  -6837566.66646  21670787.5864                   21670788.7154
 -21624415.94547 -16828671.06246  21556616.6644                   21556615.3594
 -18129854.54747 -14056426.04843  23425834.1094   23425831.8594
 -21403842.14548 -16655718.30446  20415756.2894                   20415754.5824
 11  8 11  2 50  0.0000000  0  7G26G02G29G25G12G10G05
  21304276.69146  15332410.46942  23957688.1954                   23957686.3244
 -37617707.25048 -29273394.54045  21598099.4144                   21598095.5044
   5546746.78547   4343071.16445  22613941.0554                   22613940.4104
  -8868572.17648  -6884291.32646  21659377.5554                   21659377.6644
 -21621697.06248 -16826552.47646  21557134.4614                   21557132.9384
 -18087532.62146 -14023447.93343  23433887.4534   23433885.7194
 -21443761.09448 -16686823.96146  20408160.0864                   20408157.9924
 11  8 11  2 50 30.0000000  0  7G26G02G29G25G12G10G05
  21147462.18046  15210217.45342  23927846.5704                   23927846.4454
 -37638400.57848 -29289519.19446  21594161.8134                   21594158.2154
   5405567.77047   4233061.60445  22587075.5314                   22587074.7154
  -8927909.20347  -6930527.96546  21648085.5704                   21648086.5824
 -21618499.28948 -16824060.71946  21557742.7274                   21557741.0394
 -18044972.95346 -13990284.57543  23441986.0474   23441985.5744
 -21483101.46148 -16717478.77546  20400673.6094                   20400672.2034
 11  8 11  2 51  0.0000000  0  7G26G02G29G25G12G10G05
  20990732.07846  15088090.21942  23898021.8914                   23898022.1484
 -37658944.33248 -29305527.29746  21590252.4384                   21590249.1294
   5264522.25847   4123156.10245  22560235.6564                   22560234.4344
  -8986618.62547  -6976275.54746  21636913.1804                   21636914.7544
 -21614823.04747 -16821196.12846  21558441.8524                   21558440.9024
 -18002176.83246 -13956936.97743  23450129.9844   23450129.7384
 -21521863.07848 -16747682.61946  20393297.6724                   20393295.9454
 11  8 11  2 51 30.0000000  0  7G26G02G29G25G12G10G05
  20834085.70346  14966028.13743  23868213.9844                   23868213.4104
 -37679343.15247 -29321422.49046  21586370.8984                   21586367.5044
   5123608.44147   4013353.18445  22533419.8054                   22533419.2274
  -9044704.93448  -7021537.60446  21625860.1484                   21625861.1844
 -21610675.50847 -16817964.27346  21559231.1884                   21559229.6564
 -17959150.86346 -13923410.33843  23458317.3914   23458317.1094
 -21560051.41848 -16777439.74946  20386030.6254                   20386028.4494
 11  8 11  2 52  0.0000000  0  7G26G02G29G25G12G10G05
  20677529.73846  14844036.58143  23838421.6724                   23838420.6334
 -37699593.89847 -29337202.26946  21582517.2274                   21582513.8094
   4982831.55147   3903656.94745  22506631.4924                   22506630.5204
  -9102165.21148  -7066311.83146  21614925.9924                   21614926.4144
 -21606055.74647 -16814364.47946  21560110.6174                   21560109.2194
 -17915894.52646 -13889704.15643  23466548.4774   23466548.3954
 -21597664.68748 -16806748.77946  20378873.1024                   20378870.7894
 11  8 11  2 52 30.0000000  0  7G26G02G29G25G12G10G05
  20521066.63746  14722117.33642  23808647.5394                   23808645.7774
 -37719697.64147 -29352867.52145  21578691.1884                   21578687.7854
   4842192.18447   3794067.85945  22479868.4774                   22479868.1214
  -9159000.77748  -7110599.26946  21604110.1414                   21604111.3364
 -21600967.04347 -16810399.26346  21561078.6414                   21561077.0984
 -17872411.24646 -13855821.11543  23474824.5164   23474822.9884
 -21634705.22748 -16835611.51946  20371824.6094                   20371822.2464
 11  8 11  2 53  0.0000000  0  7G26G02G29G25G12G10G05
  20364697.41846  14600271.24943  23778891.4694                   23778889.9304
 -37739657.01647 -29368420.26145  21574892.9144                   21574889.8054
   4701689.58247   3684585.39745  22453131.5704                   22453131.3134
  -9215214.91447  -7154402.47246  21593412.8984                   21593414.0234
 -21595414.57847 -16806072.69846  21562135.6094                   21562133.9884
 -17828706.39546 -13821765.40143  23483140.8674   23483138.3244
 -21671176.98448 -16864031.06046  20364884.0234                   20364882.5164
 11  8 11  2 53 30.0000000  0  7G26G02G29G25G12G10G05
  20208422.92646  14478498.85343  23749153.2504                   23749152.5474
 -37759475.23047 -29383863.02745  21571121.8444                   21571118.6604
   4561323.05547   3575208.95245  22426420.9694                   22426419.9264
  -9270810.70348  -7197723.86146  21582833.5234                   21582834.8834
 -21589403.47347 -16801388.74546  21563279.5084                   21563278.1214
 -17784785.45346 -13787541.29043  23491498.8524   23491496.6564
 -21707084.24648 -16892010.72646  20358051.0164                   20358049.5664
 11  8 11  2 54  0.0000000  0  7G26G02G29G25G12G10G05
  20052250.28946  14356805.96443  23719435.1644                   23719433.7114
 -37779148.51647 -29399192.82845  21567378.5004                   21567374.8874
   4421098.35947   3465943.01245  22399736.6884                   22399736.0314
  -9325785.02348  -7240560.97446  21572372.4614                   21572373.4884
 -21582932.23047 -16796346.22846  21564510.8444                   21564509.8164
 -17740647.76246 -13753148.27943  23499898.2974   23499896.4804
 -21742424.64848 -16919548.70246  20351326.2114                   20351323.9774
 11  8 11  2 54 30.0000000  0  7G26G02G29G25G12G10G05
  19896181.97346  14235194.38743  23689735.5864                   23689735.2234
 -37798678.12547 -29414410.71745  21563661.7194                   21563658.8134
   4281016.09447   3356788.05545  22373079.4614                   22373078.5084
  -9380139.52347  -7282915.10446  21562028.7814                   21562030.1954
 -21576005.12147 -16790948.51146  21565829.3284                   21565828.1454
 -17696297.06646 -13718589.33043  23508337.5164   23508335.8484
 -21777200.74248 -16946646.94546  20344708.4924                   20344707.0204
 11  8 11  2 55  0.0000000  0  7G26G02G29G25G12G10G05
  19740218.63946  14113664.61643  23660056.1254                   23660057.3014
 -37818067.03147 -29429518.93845  21559972.3914                   21559968.7624
   4141075.73447   3247743.68045  22346449.9774                   22346448.7464
  -9433877.27047  -7324788.66746  21551802.9064                   21551804.2034
 -21568627.23847 -16785199.50646  21567233.2584                   21567231.1054
 -17651738.24246 -13683868.23643  23516816.8204   23516815.4924
 -21811417.01648 -16973308.94646  20338197.2034                   20338195.0864
 11  8 11  2 55 30.0000000  0  7G26G02G29G25G12G10G05
  19584367.36346  13992222.08843  23630398.4924                   23630399.3874
 -37837311.76247 -29444514.81245  21556310.1724                   21556306.6724
   4001282.62147   3138814.03045  22319848.3134                   22319847.3014
  -9486995.57447  -7366179.54146  21541695.0234                   21541696.0394
 -21560797.56247 -16779098.49746  21568722.9694                   21568721.7934
 -17606971.02746 -13648984.71743  23525335.2344   23525334.4574
 -21845071.27048 -16999533.03546  20331792.8444                   20331791.4384
 11  8 11  2 56  0.0000000  0  7G26G02G29G25G12G10G05
  19428634.36346  13870871.78643  23600763.3984                   23600764.0704
 -37856409.92647 -29459396.47946  21552676.0784                   21552672.3714
   3861641.35547   3030002.72345  22293275.6024                   22293274.3674
  -9539492.46548  -7407086.18746  21531704.7504                   21531706.1484
 -21552515.97747 -16772645.32946  21570298.8594                   21570297.0744
 -17561995.06246 -13613938.60943  23533894.2274   23533893.1524
 -21878162.49648 -17025318.39646  20325496.1174                   20325494.1374
 11  8 11  2 56 30.0000000  0  7G26G02G29G25G12G10G05
  19273012.42646  13749608.00143  23571150.7894                   23571149.5744
 -37875372.03947 -29474172.14545  21549067.1954                   21549064.6454
   3722143.34847   2921303.04145  22266730.1174                   22266728.6254
  -9591378.98447  -7447517.23446  21521831.6724                   21521832.8324
 -21543795.84447 -16765850.42946  21571958.3984                   21571956.6914
 -17516823.35246 -13578739.82743  23542490.3914   23542489.3444
 -21910702.93748 -17050674.58646  20319303.5234                   20319301.5434
 11  8 11  2 57  0.0000000  0  7G26G02G29G25G12G10G05
  19117503.89846  13628432.57443  23541558.5234                   23541557.0204
 -37894200.11747 -29488843.36245  21545484.3204                   21545480.7704
   3582789.23847   2812715.52645  22240211.2584                   22240211.0394
  -9642657.37947  -7487474.41146  21512073.2114                   21512074.2774
 -21534640.93047 -16758716.75946  21573699.9614                   21573699.5234
 -17471460.19946 -13543391.88742  23551122.2894   23551121.5514
 -21942695.87148 -17075604.12346  20313215.7584                   20313213.9494
 11  8 11  2 57 30.0000000  0  7G26G02G29G25G12G10G05
  18962103.63346  13507341.52343  23511986.3834                   23511985.1604
 -37912902.41047 -29503416.57345  21541925.6884                   21541922.5124
   3443572.42247   2704235.01245  22213719.1484                   22213718.6024
  -9693336.87947  -7526964.93146  21502429.4774                   21502431.1954
 -21525062.67647 -16751253.20646  21575523.1644                   21575522.9774
 -17425916.96546 -13507903.69542  23559788.8054   23559788.6334
 -21974150.71548 -17100114.37746  20307230.1804                   20307228.1954
 11  8 11  2 58  0.0000000  0  7G26G02G29G25G12G10G05
  18806813.23046  13386336.14243  23482435.1414                   23482433.9184
 -37931481.08647 -29517893.45945  21538390.3054                   21538386.1454
   3304492.54347   2595861.20945  22187253.1804                   22187253.0124
  -9743420.25447  -7565990.93846  21492898.7894                   21492899.9654
 -21515065.61347 -16743463.31046  21577426.1644                   21577424.1804
 -17380198.36746 -13472278.82842  23568488.5164   23568488.9264
 -22005071.33248 -17124208.34246  20301346.1724                   20301343.8094
 11  8 11  2 58 30.0000000  0  7G26G02G29G25G12G10G05
  18651641.31346  13265423.02543  23452906.5864                   23452906.7274
 -37949931.25447 -29532270.23445  21534879.2114                   21534875.3714
   3165556.91447   2487599.79545  22160814.1884                   22160814.5314
  -9792903.07848  -7604548.97646  21483482.7344                   21483483.8874
 -21504646.78547 -16735344.77845  21579408.8674                   21579406.3524
 -17334301.82846 -13436515.35542  23577222.9774   23577223.2774
 -22035454.35248 -17147883.42646  20295564.6644                   20295562.7424
 11  8 11  2 59  0.0000000  0  7G26G02G29G25G12G10G05
  18496588.20746  13144602.45443  23423401.1334                   23423401.8674
 -37968256.17247 -29546549.36345  21531392.2974                   21531388.4224
   3026764.66047   2379450.05645  22134403.5864                   22134402.4144
  -9841789.30547  -7642642.12146  21474180.1564                   21474180.9104
 -21493812.89547 -16726902.76146  21581469.8524                   21581467.6604
 -17288233.28946 -13400617.78942  23585989.5784   23585988.0594
 -22065304.67248 -17171143.39146  20289884.3834                   20289881.8524
 11  8 11  2 59 30.0000000  0  8G26G15G02G29G25G12G10G05
                                  19917087.85246
  14251485.37143  23693713.8204   23693713.8554                   24655139.781
 -36411030.20747 -28333126.53045  21827722.3914                   21827718.9024
   4463547.09847   3499020.83545  22407813.9454                   22407813.1294
  -8314653.08648  -6452665.85046  21764784.3594                   21764785.1484
 -19907141.59847 -15490535.55046  21883403.6174                   21883402.6644
 -15666571.63345 -12136985.29342  23894581.9064   23894579.7114
 -20519197.73048 -15966384.72246  20584098.3524                   20584096.3404
 11  8 11  3  0  0.0000000  0  8G26G15G02G29G25G12G10G05
                                  19762293.88746
  14130866.85543  23664257.2114   23664257.0314                   24625680.109
 -36429093.99247 -28347202.18245  21824284.7034                   21824281.7154
   4325057.27347   3391106.74545  22381459.8594                   22381459.5164
  -8362337.93047  -6489822.89446  21755710.1024                   21755710.5314
 -19895474.16847 -15481444.04445  21885623.5164                   21885622.8014
 -15620155.85545 -12100817.21542  23903414.4144   23903413.3284
 -20547977.10547 -15988810.19446  20578621.7504                   20578619.8714
 11  8 11  3  0 30.0000000  0  7G26G02G29G25G12G10G05
  19607635.23847  14010353.70343  23634826.9304   23634826.5944
 -36447027.27347 -28361176.17245  21820872.5084                   21820869.3554
   4186721.85247   3283312.98745  22355135.4844                   22355135.0004
  -8409423.15647  -6526512.68646  21746750.2504                   21746751.1024
 -19883393.59447 -15472030.65246  21887922.6564                   21887922.0234
 -15573570.04345 -12064516.54742  23912278.8834   23912278.1414
 -20576223.08648 -16010820.04446  20573246.6024                   20573245.0164
 11  8 11  3  1  0.0000000  0  7G26G02G29G25G12G10G05
  19453119.86747  13889952.14243  23605423.2894   23605423.8204
 -36464825.68447 -28375045.07045  21817485.2194                   21817481.6254
   4048547.98447   3175645.08945  22328842.1024                   22328841.1374
  -8455905.31647  -6562732.54546  21737904.5864                   21737906.3914
 -19870898.51247 -15462294.24046  21890300.1334                   21890298.6484
 -15526812.59045 -12028082.15242  23921176.9844   23921175.5084
 -20603933.22348 -16032412.34746  20567973.9534                   20567971.9264
 11  8 11  3  1 30.0000000  0  7G26G02G29G25G12G10G05
  19298746.34446  13769661.12043  23576047.1954   23576046.0514
 -36482494.09047 -28388812.65145  21814123.6254                   21814119.5164
   3910532.75447   3068100.79945  22302578.4694                   22302577.3324
  -8501789.91847  -6598486.79846  21729173.3914                   21729174.3094
 -19857995.92647 -15452240.29146  21892755.2734                   21892754.0234
 -15479890.96545 -11991519.80142  23930105.8524   23930105.3444
 -20631113.76247 -16053591.98246  20562801.3674                   20562799.7074
 11  8 11  3  2  0.0000000  0  7G26G02G29G25G12G10G05
  19144519.59446  13649484.53443  23546698.8524   23546695.8444
 -36500031.44147 -28402478.12345  21810786.0234                   21810781.3594
   3772679.02747   2960682.36845  22276345.7584                   22276344.8284
  -8547076.93047  -6633775.38146  21720555.2734                   21720556.2664
 -19844687.79347 -15441870.35945  21895287.9694                   21895286.7154
 -15432806.19945 -11954830.41442  23939065.1484   23939065.5634
 -20657765.36748 -16074359.44946  20557729.6564                   20557728.0904
 11  8 11  3  2 30.0000000  0  8G26G15G02G29G25G12G10G05
  18990444.77046  13529426.32443  23517378.3524   23517377.2154
                                  24478203.609
 -36517436.21147 -28416040.25045  21807474.1024                   21807469.6994
   3634990.58647   2853392.74545  22250144.2584                   22250142.7544
  -8591765.66447  -6668597.77346  21712051.2194                   21712052.1724
 -19830975.34047 -15431185.32645  21897897.6644                   21897896.5044
 -15385559.61745 -11918014.89542  23948055.8914   23948055.9494
 -20683888.24648 -16094714.91346  20552758.8984                   20552756.6454
 11  8 11  3  3  0.0000000  0  8G26G15G02G29G25G12G10G05
  18836525.78546  13409489.52843  23488088.6564   23488087.7304   26552488.895 5
                                  24448672.758
 -36534708.13747 -28429498.87445  21804187.2584                   21804183.3794
   3497469.50847   2746233.51245  22223974.6884                   22223973.8014
  -8635856.93047  -6702954.62146  21703660.8054                   21703662.1174
 -19816860.98047 -15420187.16346  21900583.6884                   21900582.3834
                                  23957076.1094   23957077.2234
 -20709484.28948 -16114659.89546  20547888.1094                   20547886.0124
 11  8 11  3  3 30.0000000  0  8G26G15G02G29G25G12G10G05
  18682765.16046  13289676.09343  23458828.9614   23458827.6884   26397256.629 5
                                  24419134.563
 -36551848.13747 -28442854.70345  21800926.1804                   21800922.6254
   3360116.91447   2639205.56245  22197837.4774                   22197837.0274
  -8679352.74648  -6736847.48746  21695383.8594                   21695385.3524
 -19802348.56247 -15408878.77145  21903345.0634                   21903343.8094
                                  23966127.8834   23966127.1804
 -20734556.03948 -16134196.32246  20543117.0394                   20543115.6914
 11  8 11  3  4  0.0000000  0  7G26G15G02G29G25G12G05
  18529163.74647  13169986.73743  23429599.8524   23429598.6214
                                  24389585.422
 -36568859.23447 -28456110.08545  21797688.8834                   21797685.2624
   3222932.17247   2532308.41545  22171732.1804                   22171731.8244
  -8722256.91848  -6770279.31146  21687219.9384                   21687220.8364
 -19787442.89547 -15397264.00745  21906181.4774                   21906180.0824
 -20759108.34848 -16153327.98946  20538445.0704                   20538442.8524
 11  8 11  3  4 30.0000000  0  6G26G02G29G25G12G05
  18375729.74647  13050427.83943  23400402.3754   23400401.9264
 -36585736.73847 -28469261.36945  21794476.7034                   21794473.1764
   3085921.88347   2425547.20045  22145659.5634                   22145658.5434
  -8764565.86747  -6803247.33446  21679168.6094                   21679170.1094
 -19772143.25047 -15385342.20345  21909092.9224                   21909090.9654
 -20783138.03548 -16172052.40246  20533872.0234                   20533870.1254
 11  8 11  3  5  0.0000000  0  6G26G02G29G25G12G05
  18222466.05947  12931001.63643  23371237.2274   23371236.5004
 -36602481.61747 -28482309.31245  21791290.2344                   21791286.8524
   2949087.43047   2318922.99745  22119621.5084                   22119620.0594
  -8806281.52048  -6835753.04946  21671230.4144                   21671231.9064
 -19756452.87148 -15373115.93545  21912078.5234                   21912077.3164
 -20806647.82048 -16190371.72846  20529398.4924                   20529396.5234
 11  8 11  3  5 30.0000000  0  6G26G02G29G25G12G05
  18069377.15647  12811711.62144  23342105.4384   23342105.1094
 -36619093.23447 -28495253.43045  21788129.2274                   21788125.9304
   2812431.73047   2212438.09345  22093616.6644                   22093615.2154
  -8847404.30548  -6867796.77346  21663405.1254                   21663406.4224
 -19740373.66448 -15360586.70345  21915138.5784                   21915137.1094
 -20829639.21548 -16208287.09846  20525023.1484                   20525021.6994
 11  8 11  3  6  0.0000000  0  6G26G02G29G25G12G05
  17916467.30547  12692561.17644  23313007.3204   23313005.8754
 -36635570.81247 -28508093.07745  21784993.4534                   21784989.9884
   2675957.63347   2106094.69545  22067646.2664                   22067645.4804
  -8887934.54748  -6899378.79646  21655692.0314                   21655693.3834
 -19723907.48447 -15347755.91945  21918272.0004                   21918270.5314
 -20852112.84448 -16225798.99846  20520746.5704                   20520744.7854
 11  8 11  3  6 30.0000000  0  7G26G15G02G29G25G12G05
  17763739.09047  12573552.31844  23283944.1024   23283942.7424
                                  26712680.57015                  24241710.156
 -36651915.10247 -28520828.84845  21781883.4534                   21781880.1914
   2539666.29347   1999893.68845  22041710.9924                   22041709.9144
  -8927874.50048  -6930500.84546  21648092.3524                   21648092.8914
 -19707058.43748 -15334626.81345  21921478.1024                   21921476.7584
 -20874071.84848 -16242909.89546  20516568.1174                   20516566.3054
 11  8 11  3  7  0.0000000  0  7G26G15G02G29G25G12G05
  17611195.80547  12454687.46444  23254915.8674   23254915.6804
                                  26557156.418 5                  24212115.945
 -36668126.91447 -28533461.42245  21778798.2664                   21778794.4804
   2403558.54348   1893835.73145  22015810.6414                   22015809.9574
  -8967225.85548  -6961164.22846  21640603.8594                   21640604.7114
 -19689829.75847 -15321201.86745  21924756.7034                   21924755.4144
 -20895518.62148 -16259621.65946  20512486.8364                   20512485.0784
 11  8 11  3  7 30.0000000  0  7G26G15G02G29G25G12G05
  17458840.46147  12335969.06044  23225924.0164   23225923.4224
                                  26401600.90615                  24182515.320
 -36684206.64547 -28545991.07045  21775738.4454                   21775735.3984
   2267636.74247   1787922.67245  21989945.6334                   21989944.1524
  -9005990.10248  -6991370.15246  21633227.4774                   21633228.5944
 -19672224.92647 -15307483.84545  21928106.8204                   21928105.5944
 -20916455.39148 -16275936.01146  20508502.5554                   20508500.9884
 11  8 11  3  8  0.0000000  0  7G26G15G02G29G25G12G05
  17306678.68847  12217401.51944  23196968.1804   23196967.6524
                                  26246018.660 5                  24152907.961
 -36700152.43047 -28558416.31945  21772704.3134                   21772700.1724
   2131905.02747   1682157.74645  21964116.5234                   21964115.6414
  -9044166.93448  -7021118.32346  21625962.3364                   21625963.5044
 -19654244.85947 -15293473.40945  21931527.8134                   21931526.2704
 -20936882.57848 -16291853.29246  20504615.3984                   20504613.6954
 11  8 11  3  8 30.0000000  0  7G26G15G02G29G25G12G05
  17154711.59447  12098985.65844  23168049.4534   23168049.8594
                                  26090409.97714                  24123295.664
 -36715966.69548 -28570739.10945  21769695.0474                   21769690.6484
   1996362.78147   1576540.46445  21938323.8754                   21938322.0594
  -9081759.98048  -7050411.62546  21618808.8134                   21618809.6994
 -19635894.82047 -15279174.72545  21935019.9844                   21935018.4494
 -20956804.52748 -16307376.88146  20500824.0474                   20500822.8634
 11  8 11  3  9  0.0000000  0  6G26G02G29G25G12G05
  17002945.02347  11980726.03944  23139168.6884   23139169.6254
 -36731647.28947 -28582957.70245  21766711.0634                   21766706.7034
   1861014.46947   1471074.26445  21912567.6484                   21912566.0314
  -9118768.20748  -7079249.20446  21611766.3284                   21611767.4184
 -19617175.27047 -15264588.05745  21938582.3674                   21938581.1054
 -20976220.92648 -16322506.54246  20497129.6174                   20497128.1454
 11  8 11  3  9 30.0000000  0  6G26G02G29G25G12G05
  16851381.12947  11862624.37244  23110328.0234   23110326.9454
 -36747195.89147 -28595073.46745  21763752.1954                   21763748.7504
   1725860.52047   1365759.54445  21886848.6094                   21886847.6954
  -9155194.79348  -7107633.55346  21604834.4384                   21604835.6524
 -19598090.88347 -15249717.13045  21942214.0864                   21942212.9694
 -20995135.35548 -16337245.05246  20493530.1484                   20493528.6954
 11  8 11  3 10  0.0000000  0  6G26G02G29G25G12G05
  16700024.55147  11744684.22244  23081525.5394   23081524.6994
 -36762611.34047 -28607085.46445  21760818.0944                   21760814.4104
   1590903.94147   1260598.59545  21861167.7584                   21861167.0004
  -9191040.01648  -7135564.88846  21598013.5004                   21598014.7704
 -19578643.25047 -15234563.14345  21945914.8594                   21945913.6994
 -21013548.76648 -16351593.16046  20490026.4534                   20490024.7854
 11  8 11  3 10 30.0000000  0  7G26G15G02G29G25G12G05
  16548877.50047  11626907.36744  23052763.7194   23052762.6294
                                  26626458.69915                  24004813.867
 -36777894.99647 -28618994.78745  21757910.2664                   21757906.2854
   1456145.58647   1155592.11545  21835523.6644                   21835523.0204
  -9226306.60548  -7163045.36346  21591302.5704                   21591303.9614
 -19558837.28947 -15219129.95845  21949683.5234                   21949682.4144
 -21031464.61348 -16365553.54946  20486617.0164                   20486615.5664
 11  8 11  3 11  0.0000000  0  7G26G15G02G29G25G12G05
  16397943.09047  11509296.19244  23024041.8594   23024041.8794   26470763.17246
                                  19352458.23052  23975185.8594   23975186.1094
 -36793047.47347 -28630801.87345  21755026.6954                   21755022.8634
   1321587.04747   1050741.34145  21809918.2344                   21809917.0944
  -9260996.57848  -7190076.50546  21584701.1094                   21584702.1134
 -19538676.17647 -15203420.01445  21953520.6334                   21953518.8714
 -21048885.57448 -16379128.31746  20483302.0314                   20483300.2074
 11  8 11  3 11 30.0000000  0  7G26G15G02G29G25G12G05
  16247226.21947  11391854.54744  22995361.4844   22995360.2464   26315058.91446
                                  19231130.31342  23945556.5944   23945555.9344
 -36808067.43047 -28642505.71245  21752168.4064                   21752165.4344
   1187231.72747    946048.93745  21784350.6724                   21784349.4264
  -9295110.03548  -7216658.42446  21578209.3134                   21578210.2664
 -19518161.33648 -15187434.41145  21957423.9774                   21957422.4104
 -21065812.30948 -16392317.95646  20480081.0004                   20480078.6844
 11  8 11  3 12  0.0000000  0  7G26G15G02G29G25G12G05
  16096729.15246  11274584.23644  22966721.5554   22966721.4264   26159346.92646
                                  19109796.32842  23915925.6174   23915924.3054
 -36822956.45347 -28654107.55145  21749335.4774                   21749331.5984
   1053080.45347    841515.50245  21758822.6564                   21758821.4654
  -9328650.03148  -7242793.47746  21571827.3524                   21571828.3984
 -19497297.53948 -15171176.94245  21961394.5554                   21961392.8554
 -21082248.56247 -16405125.40546  20476953.1564                   20476951.2734
 11  8 11  3 12 30.0000000  0  7G26G15G02G29G25G12G05
  15946454.33646  11157487.01544  22938125.0474   22938125.8634   26003628.68445
                                  18988457.61342  23886292.2114   23886291.8284
 -36837715.87947 -28665608.38845  21746526.8674                   21746523.0084
    919133.87547    737141.58645  21733333.2344                   21733331.8984
  -9361619.27348  -7268483.78246  21565553.0394                   21565554.8634
 -19476089.02747 -15154650.84945  21965430.3754                   21965428.4654
 -21098197.45747 -16417553.09946  20473918.0084                   20473916.3054
 11  8 11  3 13  0.0000000  0  7G26G15G02G29G25G12G05
  17371831.74646  12268170.77844  23209365.7194   23209365.9654   27423333.52746
                                  20094721.28243  24156452.9304   24156454.0204
 -35276923.70347 -27449406.70745  22043535.8284                   22043531.9344
   2360819.85247   1860533.29045  22007677.4144                   22007676.2424
  -7818596.90247  -6066128.66946  21859180.6094                   21859181.7344
 -17879117.96147 -13910257.82645  22269324.0164                   22269322.4454
 -19538239.31247 -15202001.27746  20770768.2504                   20770766.4264
 11  8 11  3 13 30.0000000  0  7G26G15G02G29G25G12G05
  17222014.91846  12151430.48344  23180856.7504   23180855.5474   27267613.84846
                                  19973381.34843  24126822.0314   24126821.4414
 -35291420.66847 -27460703.05445  22040777.2894                   22040773.4964
   2227292.14847   1756485.76145  21982267.8524                   21982267.1214
  -7850426.50448  -6090930.96846  21853123.6954                   21853124.6094
 -17857225.84047 -13893199.03145  22273489.7974                   22273488.6054
 -19553217.10247 -15213672.28446  20767918.2194                   20767916.2074
 11  8 11  3 14  0.0000000  0  8G26G15G02G29G25G21G12G05
  17072430.64846  12034871.33044  23152391.8204   23152390.2974   27111895.94546
                                  19852042.85743  24097189.6724   24097188.5394
 -35305788.45747 -27471898.71645  22038042.7194                   22038039.1134
   2093975.08647   1652602.36645  21956898.1094                   21956897.1524
  -7881690.57448  -6115292.57046  21847174.3134                   21847175.3244
  28164769.69915                  25294297.602
 -17834998.05147 -13875878.68745  22277719.8754                   22277718.9964
 -19567714.51247 -15224968.95046  20765159.5234                   20765157.6524
 11  8 11  3 14 30.0000000  0  8G26G15G02G29G25G21G12G05
  16923073.02346  11918488.82044  23123969.3364   23123968.3484   26956172.91446
                                  19730700.25943  24067556.2734   24067554.5824
 -35320036.52347 -27483001.12945  22035331.3674                   22035327.6054
   1960861.27047   1548877.35346  21931567.6644                   21931566.5514
  -7912400.32447  -6139222.25346  21841330.4534                   21841331.8444
  28047830.734 5                  25272044.695
 -17812447.13347 -13858306.57545  22282011.0084                   22282009.9654
 -19581743.30547 -15235900.44446  20762489.9144                   20762487.7504
 11  8 11  3 15  0.0000000  0  8G26G15G02G29G25G21G12G05
  16773936.47346  11802278.55044  23095590.1724   23095589.3444   26800438.05546
                                  19609348.52543  24037920.7114   24037919.1954
 -35334174.17246 -27494017.48745  22032640.6804                   22032637.6094
   1827943.41847   1445305.03745  21906274.0084                   21906272.9304
  -7942566.68748  -6162728.49346  21835590.1254                   21835591.5084
  27930916.387 4                  25249794.945
 -17789585.98847 -13840492.69945  22286360.9844                   22286359.1524
 -19595314.93047 -15246475.70546  20759907.1414                   20759904.7934
 11  8 11  3 15 30.0000000  0  8G26G15G02G29G25G21G12G05
  16625028.54746  11686246.46344  23067254.0474   23067253.4454   26644698.34846
                                  19487992.99843  24008283.8594   24008283.8554
 -35348197.14547 -27504944.50445  22029972.8134                   22029969.2504
   1695227.93047   1341890.41846  21881018.9774                   21881018.3984
  -7972187.21147  -6185809.41946  21829953.2344                   21829954.7464
  27814030.359 5                  25227554.305
 -17766413.25447 -13822436.02345  22290770.7274                   22290769.8364
 -19608427.43048 -15256693.23046  20757411.7274                   20757409.8674
 11  8 11  3 16  0.0000000  0  8G26G15G02G29G25G21G12G05
  16476355.44146  11570397.32144  23038962.4924   23038961.9654   26488958.94946
                                  19366637.67244  23978647.9534   23978648.4344
 -35362103.33247 -27515780.51045  22027326.3834                   22027323.0554
   1562719.36747   1238637.01545  21855803.4924                   21855802.8714
  -8001261.31647  -6208464.54946  21824420.9304                   21824421.7234
  27697174.531 5                  25205316.219
 -17742929.57447 -13804137.07745  22295239.5234                   22295238.0474
 -19621080.76247 -15266552.95146  20755003.8674                   20755002.3094
 11  8 11  3 16 30.0000000  0  8G26G15G02G29G25G21G12G05
  16327924.02047  11454736.52844  23010716.8594   23010716.4734   26333226.18046
                                  19245287.51643  23949012.2274   23949012.5784
 -35375889.00447 -27526522.62245  22024703.2034                   22024699.6954
   1430423.21947   1135549.16145  21830628.5234                   21830627.4454
  -8029787.07847  -6230692.40246  21818992.5234                   21818993.6524
  27580351.594 6                  25183086.430
 -17719134.40647 -13785595.38945  22299767.5784                   22299766.7304
 -19633273.44148 -15276053.71146  20752683.8984                   20752682.1994
 11  8 11  3 17  0.0000000  0  8G26G15G02G29G25G21G12G05
  16179741.44546  11339269.64644  22982518.3914   22982517.7424   26177506.00846
                                  19123947.16643  23919380.1334   23919379.5044
 -35389551.12547 -27537168.44845  22022103.2504                   22022098.9614
   1298345.14547   1032631.21346  21805494.5554                   21805493.7234
  -8057763.11747  -6252491.90946  21813668.7584                   21813669.6914
  27463564.03545  21424987.71552  25160862.0474   25160861.2774
 -17695027.50047 -13766810.80145  22304354.8594                   22304354.2304
 -19645004.60948 -15285194.85546  20750451.5704                   20750449.6564
 11  8 11  3 17 30.0000000  0  8G26G15G02G29G25G21G12G05
  16031809.06347  11223997.68944  22954367.6024   22954367.0234   26021799.01246
                                  19002617.13643  23889750.4614   23889749.4304
 -35403091.64847 -27547719.49045  22019526.5554                   22019522.8794
   1166485.11747    929883.17345  21780402.5704                   21780401.8244
  -8085193.28147  -6273866.04746  21808448.9064                   21808450.0204
  27346809.39845  21334010.15642  25138644.2504   25138643.3484
 -17670614.16047 -13747787.43245  22309000.5474                   22308999.6884
 -19656278.71148 -15293979.85946  20748306.2114                   20748304.2854
 11  8 11  3 18  0.0000000  0  8G26G15G02G29G25G21G12G05
  15884130.85546  11108923.78044  22926265.6954   22926265.0274   25866108.31846
                                  18881299.82544  23860123.4844   23860122.5514
 -35416510.18747 -27558175.52745  22016973.0084                   22016969.9454
   1034845.27347    827306.68245  21755351.9384                   21755350.9264
  -8112079.22747  -6294816.12046  21803332.5164                   21803333.6994
  27230087.28546  21243057.96943  25116433.1484   25116432.1884
 -17645897.31247 -13728527.57345  22313704.5164                   22313703.2274
 -19667097.73448 -15302410.26246  20746247.5084                   20746245.3794
 11  8 11  3 18 30.0000000  0  8G26G15G02G29G25G21G12G05
  15736712.85247  10994052.64644  22898213.1174   22898211.4964   25710439.37146
                                  18759999.39043  23830500.8834   23830499.1174
 -35429804.32447 -27568534.61745  22014443.7664                   22014439.3754
    903430.22347    724905.35546  21730345.1884                   21730343.8984
  -8138420.26247  -6315341.60446  21798320.4144                   21798321.3834
  27113399.35946  21152132.35143  25094228.9924   25094228.0354
 -17620877.40247 -13709031.57145  22318465.3524                   22318463.8484
 -19677461.10947 -15310485.61546  20744274.9924                   20744273.1214
 11  8 11  3 19  0.0000000  0  8G26G15G02G29G25G21G12G05
  15589558.03947  10879386.61044  22870209.9304   22870209.4694   25554794.46546
                                  18638717.70843  23800881.2584   23800880.3834
 -35442974.45347 -27578797.07945  22011936.9534                   22011932.5864
    772242.12147    622680.92046  21705380.9924                   21705379.1524
  -8164218.68047  -6335444.25146  21793411.0234                   21793411.9734
  26996744.91046  21061232.92243  25072029.7504   25072031.1644
 -17595558.11347 -13689302.26545  22323284.2344                   22323282.3794
 -19687371.84848 -15318208.25746  20742389.4844                   20742387.0204
 11  8 11  3 19 30.0000000  0  8G26G15G02G29G25G21G12G05
  15442674.28146  10764931.76644  22842259.4384   22842258.5784   25399180.42246
                                  18517460.06943  23771269.6024   23771268.2074
 -35456016.76647 -27588959.92245  22009455.4064                   22009451.1414
    641287.13347    520638.12746  21680460.7584                   21680459.2154
  -8189472.33648  -6355122.40046  21788605.1804                   21788606.2464
  26880127.69545  20970362.56543  25049837.8594   25049838.6684
 -17569938.31647 -13669338.79645  22328159.1334                   22328157.7274
 -19696828.39548 -15325576.96846  20740589.5944                   20740587.5004
 11  8 11  3 20  0.0000000  0  8G26G15G02G29G25G21G12G05
  15296062.31346  10650688.77444  22814358.7034   22814359.3984   25243597.14546
                                  18396226.45043  23741662.8444   23741661.6564
 -35468933.77347 -27599025.15245  22006997.7894                   22006992.9774
    510564.10947    418776.09246  21655584.5784                   21655583.4844
  -8214185.94948  -6374379.74346  21783902.3444                   21783903.3954
  26763543.77746  20879518.08743  25027652.4924   25027651.9534
 -17544023.59447 -13649145.51545  22333091.0784                   22333089.1174
 -19705835.73448 -15332595.67946  20738875.3984                   20738874.0514
 11  8 11  3 20 30.0000000  0  8G26G15G02G29G25G21G12G05
  15149723.67646  10536658.69144  22786512.1484   22786511.5594   25088045.28546
                                  18275017.32243  23712062.6484   23712061.0984
 -35481727.76247 -27608994.50945  22004562.3674                   22004558.2504
    380073.04747    317094.78046  21630753.3364                   21630751.8244
  -8238363.62948  -6393219.48146  21779301.2034                   21779302.9414
  26646990.37946  20788697.34143  25005473.3134   25005472.5234
 -17517819.96547 -13628727.13945  22338076.6254                   22338075.8954
 -19714398.37148 -15339267.86646  20737246.2274                   20737244.6454
 11  8 11  3 21  0.0000000  0  8G26G15G02G29G25G21G12G05
  15003666.51247  10422847.94344  22758718.7584   22758717.3594   24932532.61746
                                  18153838.75144  23682469.2584   23682468.2774
 -35494393.91447 -27618864.27145  22002152.1414                   22002148.2424
    249821.10247    215599.80046  21605967.1954                   21605965.3134
  -8262002.59848  -6411639.45146  21774803.1954                   21774804.6604
  26530471.74646  20697903.73943  24983300.2734   24983299.7114
 -17491325.46547 -13608082.10145  22343118.4694                   22343117.0984
 -19722513.68448 -15345591.47646  20735701.9304                   20735700.3714
 11  8 11  3 21 30.0000000  0  8G26G15G02G29G25G21G12G05
  14857901.77747  10309265.10444  22730979.5864   22730980.2234   24777068.96546
                                  18032698.36343  23652885.2584   23652883.8364
 -35506924.83247 -27628628.61345  21999768.0554                   21999763.9264
    119817.53147    114298.36846  21581228.4694                   21581226.9494
  -8285097.69948  -6429635.61946  21770408.2344                   21770409.0984
  26413994.64545  20607142.44142  24961135.1484   24961136.0044
 -17464536.30547 -13587207.42545  22348215.6024                   22348215.1094
 -19730176.93048 -15351562.81846  20734243.8914                   20734242.1764
 11  8 11  3 22  0.0000000  0  8G26G15G02G29G25G21G12G05
  14712440.65647  10195918.82644  22703299.8134   22703299.9924   24621664.67646
                                  17911604.24143  23623312.9614   23623311.6484
 -35519313.13747 -27638281.84345  21997410.2194                   21997406.3284
     -9927.55548     13198.34746  21556538.3284                   21556537.2934
  -8307643.23048  -6447203.55446  21766118.0944                   21766118.8324
  26297565.69146  20516418.68643  24938979.4064   24938979.7934
 -17437447.77047 -13566099.50445  22353371.2734                   22353370.0744
 -19737382.96948 -15357177.91846  20732872.3364                   20732870.4694
 11  8 11  3 22 30.0000000  0  8G26G15G02G29G25G21G12G05
  14567285.13747  10082810.71644  22675677.9064   22675677.6374   24466321.32846
                                  17790557.59143  23593751.8364   23593751.1174
 -35531560.12547 -27647824.93245  21995080.0234                   21995076.1294
   -139413.65248    -87699.87246  21531898.0554                   21531896.2974
  -8329642.82448  -6464346.09146  21761931.5864                   21761932.3674
  26181183.15246  20425731.16743  24916831.9844   24916831.1564
 -17410064.38347 -13544761.82445  22358582.0944                   22358580.6174
 -19744135.80148 -15362439.86246  20731587.4694                   20731585.1374
 11  8 11  3 23  0.0000000  0  8G26G15G02G29G25G21G12G05
  14422439.22747   9969943.80245  22648114.5004   22648113.8984   24311041.70546
                                  17669560.61343  23564203.0474   23564201.8054
 -35543665.60947 -27657257.76745  21992776.2344                   21992772.0394
   -268638.62548   -188394.59946  21507307.2584                   21507305.7114
  -8351098.21948  -6481064.58246  21757848.6024                   21757849.7234
  26064846.62146  20335079.43743  24894694.4844   24894692.4774
 -17382388.76247 -13523196.43045  22363848.8364                   22363846.9574
 -19750437.23848 -15367350.05946  20730388.5234                   20730386.1094
 11  8 11  3 23 30.0000000  0  8G26G15G02G29G25G21G12G05
  14277904.04747   9857319.00844  22620610.2974   22620609.9614   24155826.43046
                                  17548613.70143  23534666.1724   23534665.3634
 -35555631.99248 -27666582.22845  21990499.4924                   21990495.7464
   -397602.57448   -288885.95746  21482766.5394                   21482764.3754
  -8372013.83248  -6497362.44346  21753868.6564                   21753869.8834
  25948552.85546  20244460.97742  24872563.8444   24872561.6134
 -17354427.19547 -13501408.21745  22369169.2274                   22369167.7194
 -19756292.23448 -15371912.38946  20729274.0394                   20729271.8134
 11  8 11  3 24  0.0000000  0  8G26G15G02G29G25G21G12G05
  14133681.89847   9744938.13844  22593165.8054   22593164.7934   24000676.66046
                                  17427717.88343  23505141.7034   23505140.3984
 -35567460.45347 -27675799.22445  21988248.6174                   21988245.3324
   -526304.52747   -389173.14746  21458275.6174                   21458273.1804
  -8392393.15648  -6513242.42646  21749990.5164                   21749991.4804
  25832300.27345  20153874.65642  24850440.4614   24850438.3794
 -17326183.73847 -13479400.33745  22374544.2344                   22374542.2624
 -19761704.52048 -15376129.73246  20728244.0164                   20728241.9264
 11  8 11  3 24 30.0000000  0  8G26G15G02G29G25G21G12G05
  13989776.33647   9632803.99544  22565781.3984   22565779.9804   23845595.59846
                                  17306875.50543  23475631.0234   23475629.8444
 -35579150.86747 -27684908.64445  21986023.8444                   21986019.9454
   -654742.38748   -489254.55546  21433834.5164                   21433832.4414
  -8412238.41848  -6528706.22846  21746214.4844                   21746215.4264
  25716087.75046  20063319.52042  24828326.3834   24828322.9654
 -17297661.68747 -13457175.39245  22379971.6174                   22379970.8754
 -19766676.38348 -15380003.89446  20727297.6724                   20727296.3524
 11  8 11  3 25  0.0000000  0  8G26G15G02G29G25G21G12G05
  13846187.28947   9520916.46944  22538456.8054   22538456.3754   23690582.57446
                                  17186086.19943  23446133.3284   23446131.5594
 -35590706.91847 -27693913.36145  21983824.8364                   21983821.1414
   -782917.46948   -589131.21746  21409443.4924                   21409441.3444
  -8431555.09448  -6543758.18746  21742538.0864                   21742539.7974
  25599911.78945  19972792.85942  24806218.0004   24806215.4064
 -17268867.54747 -13434738.43145  22385451.0554                   22385449.2624
 -19771213.87148 -15383539.56346  20726434.6644                   20726432.9304
 11  8 11  3 25 30.0000000  0  8G26G15G02G29G25G21G12G05
  13702921.69547   9409280.99244  22511194.9304   22511194.4024   23535643.67246
                                  17065354.57944  23416649.7194   23416647.7584
 -35602125.20747 -27702810.75145  21981651.6954                   21981648.6294
   -910824.50048   -688799.01046  21385103.4694                   21385101.2974
  -8450342.25448  -6558397.51546  21738963.0394                   21738964.3984
  25483774.89145  19882296.66842  24784118.9064   24784115.1804
 -17239801.40647 -13412089.47645  22390982.3364                   22390981.0044
 -19775316.55548 -15386736.42946  20725654.1804                   20725652.1884
 11  8 11  3 26  0.0000000  0  8G26G15G02G29G25G21G12G05
  13559979.85247   9297897.74045  22483994.2814   22483993.5784   23380778.05946
                                  16944680.10543  23387179.2734   23387178.0204
 -35613408.91047 -27711603.23145  21979504.7424                   21979500.7544
  -1038464.79748   -788258.96546  21360814.1484                   21360812.1914
  -8468605.33248  -6572628.48046  21735487.9844                   21735488.7734
  25367672.79745  19791827.63342  24762025.6484   24762021.5124
 -17210469.41047 -13389233.40445  22396564.1954                   22396562.8634
 -19778989.46148 -15389598.39846  20724955.2344                   20724953.3284
 11  8 11  3 26 30.0000000  0  8G26G15G02G29G25G21G12G05
  13417365.10247   9186769.42545  22456855.2814   22456854.5744   23225988.79746
                                  16824065.09144  23357724.0784   23357723.2114
 -35624558.13747 -27720290.94345  21977382.7344                   21977379.3484
  -1165836.05548   -887509.26046  21336576.1644                   21336574.0944
  -8486346.73848  -6586452.93646  21732111.8984                   21732112.8634
  25251604.73445  19701385.13342  24739937.7584   24739934.4384
 -17180875.25047 -13366173.05045  22402195.1174                   22402193.8164
 -19782235.46148 -15392127.72246  20724337.2584                   20724334.9774
 11  8 11  3 27  0.0000000  0  8G26G15G02G29G25G21G12G05
  14850506.93847  10303503.39444  22729572.7344   22729571.8054   24646705.03546
                                  17931116.67544  23628076.7194   23628077.3954
 -34060151.18047 -26501272.55045  22275079.8054                   22275076.5044
    282489.59447    241056.20646  21612182.7734                   21612181.7384
  -6928146.81648  -5372271.16546  22028627.2034   22028628.6684   26710995.35945
                                  20838572.66442  25017651.3444   25017647.3204
 -15575601.85547 -12115310.68045  22707669.1884                   22707667.5904
 -18209635.75848 -14166725.32146  21023593.1484                   21023590.7194
 11  8 11  3 27 30.0000000  0  8G26G15G02G29G25G21G12G05
  14708554.18847  10192890.91644  22702560.3594   22702558.7664   24492073.83647
                                  17810624.83644  23598652.3674   23598652.5594
 -34071034.43047 -26509753.00845  22273008.8594                   22273004.3954
    155659.98848    142227.95246  21588048.3204                   21588046.6684
  -6944854.49248  -5385290.11445  22025448.0314   22025449.0864   26594990.80945
                                  20748179.59442  24995576.7894   24995572.3484
 -15545495.64547 -12091851.32045  22713397.5234                   22713396.5394
 -18212038.60248 -14168597.62046  21023135.6024                   21023134.1844
 11  8 11  3 28  0.0000000  0  8G26G15G02G29G25G21G12G05
  14566940.29747  10082542.46244  22675612.4064   22675610.5514   24337528.74647
                                  17690200.18544  23569242.8914   23569242.5944
 -34081781.89147 -26518127.66045  22270963.7974                   22270959.9304
     29107.31648     43615.49846  21563966.3914                   21563964.7854
  -6961045.97748  -5397906.85246  22022366.7974   22022368.0784   26479019.92245
                                  20657812.89142  24973507.0864   24973504.5004
 -15515135.80547 -12068194.32045  22719175.5864                   22719173.4344
 -18214020.78548 -14170142.15846  21022758.2974                   21022756.7624
 11  8 11  3 28 30.0000000  0  8G26G15G02G29G25G21G12G05
  14425667.27347   9972459.62444  22648728.4304   22648727.5274   24183070.84046
                                  17569843.37744  23539850.5474   23539849.9574
 -34092395.27047 -26526397.83945  22268944.2114                   22268940.5234
    -97168.25848    -54781.03546  21539936.8834                   21539935.4184
  -6976725.37948  -5410124.55046  22019383.1954   22019384.7074   26363079.97746
                                  20567470.16442  24951445.5394   24951444.2704
 -15484527.20347 -12044343.46445  22725000.1954                   22724998.8014
 -18215586.66048 -14171362.27946  21022460.3984                   21022458.7274
 11  8 11  3 29  0.0000000  0  8G26G15G02G29G25G21G12G05
  14284736.99647   9862643.87944  22621909.8984   22621909.6914   24028701.30146
                                  17449555.46744  23510474.8204   23510475.3554
 -34102876.02347 -26534564.64945  22266949.4454                   22266946.0824
   -223165.98047   -152961.06246  21515960.3914                   21515958.8324
  -6991896.53548  -5421946.24045  22016496.0634   22016497.2344   26247168.89146
                                  20477149.85942  24929388.6334   24929387.8404
 -15453674.26647 -12020302.24145  22730870.7664                   22730870.0314
 -18216740.16048 -14172261.08646  21022240.9614                   21022239.0084
 11  8 11  3 29 30.0000000  0  8G26G15G02G29G25G21G12G05
  14144154.37547   9753099.02345  22595158.0084   22595157.6174   23874424.65247
                                  17329339.95544  23481116.6954   23481117.4804
 -34113222.77047 -26542627.04145  22264981.2584                   22264977.3284
   -348882.50047   -250921.96846  21492036.9454                   21492035.4924
  -7006560.41048  -5433372.62546  22013706.0474   22013706.6524   26131287.86746
                                  20386852.97043  24907338.0394   24907337.8714
 -15422578.89547 -11996072.09345  22736788.4304                   22736786.8324
 -18217482.41448 -14172839.43146  21022099.4224                   21022097.6414
 11  8 11  3 30  0.0000000  0  8G26G15G02G29G25G21G12G05
  14003924.34447   9643828.91445  22568473.0394   22568473.2074   23720244.90246
                                  17209199.97544  23451777.2274   23451777.1684
 -34123434.03147 -26550583.83745  22263037.3914                   22263033.9454
   -474313.90647   -348660.70746  21468167.9774                   21468166.9924
  -7020717.97748  -5444404.47146  22011011.5164   22011012.8324   26015437.32046
                                  20296579.96542  24885291.1804   24885292.4064
 -15391242.92647 -11971654.47745  22742750.7974                   22742751.2344
 -18217814.41448 -14173098.10746  21022036.7344                   21022034.0434
 11  8 11  3 30 30.0000000  0  8G26G15G02G29G25G21G12G05
  13864047.35547   9534833.86945  22541855.2034   22541855.1604   23566161.70346
                                  17089135.23444  23422456.7584   23422455.6374
 -34133512.87947 -26558437.48645  22261119.5234                   22261116.2304
   -599461.61747   -446178.39846  21444353.6414                   21444351.9344
  -7034374.89848  -5455046.21046  22008412.6174   22008413.6914   25899613.44546
                                  20206327.66843  24863250.1724   24863251.6524
 -15359672.11747 -11947053.87245  22748759.3444                   22748758.3244
 -18217741.93448 -14173041.62046  21022050.4534                   21022048.0784
 11  8 11  3 31  0.0000000  0  8G26G15G02G29G25G21G12G05
  13724526.01247   9426115.96244  22515305.7504   22515304.4774   23412177.66046
                                  16969147.67644  23393154.5784   23393153.7894
 -34143459.86747 -26566188.39945  22259226.4694                   22259222.5164
   -724323.94148   -543473.70946  21420593.2274                   21420591.5204
  -7047534.19148  -5465300.19045  22005908.6334   22005909.5594   25783814.83646
                                  20116095.14043  24841213.7344   24841214.6764
 -15327872.19147 -11922274.69645  22754810.1724                   22754808.9384
 -18217268.52048 -14172672.73046  21022140.2114                   21022138.6954
 11  8 11  3 31 30.0000000  0  8G26G15G02G29G25G21G12G05
  13585366.08247   9317679.69744  22488824.2194   22488822.7934   23258297.29347
                                  16849240.93244  23363871.5864   23363871.3874
 -34153272.86747 -26573834.87245  22257359.8054                   22257355.6564
   -848896.61747   -640543.29846  21396887.3204                   21396885.7624
  -7060196.25048  -5475166.72246  22003499.5704   22003500.1454   25668043.22346
                                  20025883.58743  24819182.4694   24819183.4964
 -15295843.15647 -11897317.02045  22760905.3284                   22760904.6294
 -18216394.35247 -14171991.54446  21022306.7504                   21022304.9734
 11  8 11  3 32  0.0000000  0  8G26G15G02G29G25G21G12G05
  13446572.92647   9209529.26445  22462412.4844   22462411.4384   23104525.49647
                                  16729418.82344  23334610.0704   23334609.2384
 -34162949.85547 -26581375.41345  22255518.1644                   22255514.3404
   -973175.36347   -737383.84146  21373238.0704                   21373236.3324
  -7072361.40248  -5484646.03446  22001184.1334   22001184.9614   25552299.84446
                                  19935693.99543  24797158.1724   24797158.2774
 -15263586.08247 -11872181.64345  22767043.8364                   22767042.8594
 -18215119.78147 -14170998.38346  21022549.6174                   21022547.2074
 11  8 11  3 32 30.0000000  0  8G26G15G02G29G25G21G12G05
  13308147.01247   9101664.93145  22436070.7974   22436070.7034   22950862.04747
                                  16609681.07444  23305369.3204   23305367.5634
 -34172493.93047 -26588812.34145  22253701.8134                   22253697.8284
  -1097161.34048   -833996.24546  21349644.5784                   21349642.6024
  -7084035.34048  -5493742.60546  21998962.6954   21998963.8834   25436580.84046
                                  19845523.48143  24775137.5314   24775136.7384
 -15231107.44947 -11846873.60645  22773223.8134                   22773222.8244
 -18213450.60947 -14169697.73946  21022866.7584                   21022864.6134
 11  8 11  3 33  0.0000000  0  8G26G15G02G29G25G21G12G05
  13170096.15647   8994092.86745  22409800.3054   22409801.0164   22797313.96947
                                  16490033.28244  23276149.8914   23276148.3954
 -34181900.77047 -26596142.36145  22251912.2274                   22251908.3594
  -1220848.06647   -930375.48446  21326107.1564                   21326105.5864
  -7095216.30148  -5502455.04245  21996835.2894   21996835.9224   25320889.77046
                                  19755374.56043  24753121.6484   24753121.4694
 -15198406.50047 -11821392.37045  22779446.9064                   22779445.8754
 -18211385.31648 -14168088.43346  21023259.6024                   21023257.4654
 11  8 11  3 33 30.0000000  0  8G26G15G02G29G25G21G12G05
  13032420.05947   8886812.82544  22383601.2034   22383601.7704   22643880.87147
                                  16370475.09944  23246952.1564   23246950.9184
 -34191173.84047 -26603368.10345  22250146.6024                   22250143.2274
  -1344236.87148  -1026522.56646  21302627.0784                   21302625.3014
  -7105910.29348  -5510787.99046  21994799.7584   21994800.9494   25205222.88746
                                  19665244.67543  24731111.2194   24731109.8874
 -15165489.78947 -11795743.00845  22785710.5634                   22785709.6954
 -18208929.80147 -14166175.06846  21023726.9534                   21023725.0044
 11  8 11  3 34  0.0000000  0  8G26G15G02G29G25G21G12G05
  12895121.66847   8779827.08145  22357474.8444   22357474.4264   22490564.88347
                                  16251008.18644  23217777.0474   23217775.8444
 -34200313.73447 -26610490.12045  22248407.3524                   22248403.6604
  -1467326.35947  -1122436.42146  21279204.1804                   21279201.9494
  -7116120.55948  -5518744.04045  21992856.7584   21992858.2734   25089578.62945
                                  19575132.38643  24709105.5234   24709102.6134
 -15132361.17247 -11769928.48145  22792015.6724                   22792013.2464
 -18206087.56647 -14163960.36946  21024268.1174                   21024265.3484
 11  8 11  3 34 30.0000000  0  8G26G15G02G29G25G21G12G05
  12758206.52347   8673140.02045  22331420.4694   22331420.5004   22337370.95347
                                  16131636.37344  23188624.7344   23188623.8244
 -34209318.40647 -26617506.72545  22246693.8524                   22246689.7074
  -1590112.20748  -1218113.67046  21255838.9384                   21255836.9224
  -7125847.56647  -5526323.51745  21991005.9694   21991007.0354   24973958.21946
                                  19485038.75443  24687103.0864   24687099.6134
 -15099021.96147 -11743949.86845  22798358.7504                   22798358.0904
 -18202859.09848 -14161444.68346  21024882.2424                   21024880.0354
 11  8 11  3 35  0.0000000  0  8G26G15G02G29G25G21G12G05
  12621678.13347   8566754.28644  22305439.8754   22305438.5634   22184302.22347
                                  16012362.13944  23159496.1334   23159495.7344
 -34218187.44547 -26624417.65245  22245006.2664                   22245002.7154
  -1712592.14848  -1313552.54946  21232531.5704                   21232529.7304
  -7135093.66847  -5533528.26145  21989246.2664   21989247.2194   24858361.39846
                                  19394963.33543  24665106.1884   24665102.2154
 -15065475.34047 -11717809.66045  22804743.2194                   22804741.6294
 -18199246.68048 -14158629.83846  21025569.9614                   21025567.1644
 11  8 11  3 35 30.0000000  0  8G26G15G02G29G25G21G12G05
  12485542.18047   8460674.35844  22279534.3984   22279531.4414   22031363.36747
                                  15893189.02444  23130393.7194   23130392.4924
 -34226918.66447 -26631221.21845  22243345.2504                   22243341.6094
  -1834762.13347  -1408749.89646  21209283.4454                   21209281.6564
  -7143859.51648  -5540358.78845  21987578.0084   21987579.5084   24742789.59446
                                  19304907.57243  24643113.3054   24643110.0904
 -15031722.45747 -11691508.68245  22811165.6954                   22811164.3554
 -18195250.64847 -14155516.06546  21026330.4534                   21026328.3014
 11  8 11  3 36  0.0000000  0  8G26G15G02G29G25G21G12G05
  12349799.41447   8354900.80145  22253703.3204   22253701.8244   21878555.08247
                                  15774117.68944  23101315.0084   23101314.5864
 -34235514.51647 -26637919.29045  22241709.3834                   22241705.6214
  -1956622.07447  -1503705.68346  21186094.0944                   21186092.3524
  -7152149.97748  -5546818.90346  21986001.1174   21986001.6954   24627239.83246
                                  19214868.87843  24621124.7584   24621121.6454
 -14997768.90247 -11665051.38645  22817626.6024                   22817626.1644
 -18190876.00447 -14152107.27446  21027162.9924                   21027161.1374
 11  8 11  3 36 30.0000000  0  8G26G15G02G29G25G21G12G05
  12214452.72747   8249435.89245  22227948.0554   22227947.8094   21725879.11347
                                  15655149.40644  23072261.7974   23072262.5514
 -34243975.85247 -26644512.53445  22240099.3754                   22240095.4024
  -2078170.73848  -1598418.87546  21162964.0394                   21162962.8714
  -7159968.63748  -5552911.36545  21984513.1804   21984513.9884   24511710.59046
                                  19124846.18943  24599139.3284   24599137.2624
 -14963618.80947 -11638440.92745  22824125.9384                   22824124.3914
 -18186126.52047 -14148406.41046  21028066.6094                   21028064.4654
 11  8 11  3 37  0.0000000  0  8G26G15G02G29G25G21G12G05
  12079508.79347   8144284.83045  22202268.5784   22202268.2624   21573342.07047
                                  15536289.42144  23043234.9844   23043234.8324
 -34252298.80947 -26650997.96445  22238515.1954                   22238511.0784
  -2199402.56647  -1692885.21746  21139894.7424                   21139892.8754
  -7167314.66048  -5558635.53845  21983115.0944   21983116.5044   24396204.62946
                                  19034841.64343  24577158.9454   24577159.1844
 -14929271.90247 -11611677.10345  22830661.4844                   22830660.1174
 -18181001.32048 -14144412.77246  21029041.9144                   21029039.9454
 11  8 11  3 37 30.0000000  0  8G26G15G02G29G25G21G12G05
  11944970.41047   8039449.77245  22176666.9694   22176665.6254   21420945.79747
                                  15417539.09044  23014234.8524   23014234.5634
 -34260484.28947 -26657376.25445  22236957.8834                   22236953.3244
  -2320316.32048  -1787103.71046  21116885.6954                   21116884.1884
  -7174191.33247  -5563993.98145  21981806.2424   21981807.9184   24280720.62546
                                  18944854.25143  24555183.1884   24555183.6724
 -14894731.97746 -11584762.87145  22837234.3914                   22837233.6174
 -18175503.67248 -14140128.88746  21030088.4064                   21030086.0824
 11  8 11  3 38  0.0000000  0  8G26G15G02G29G25G21G12G05
  11810838.09447   7934931.14745  22151142.2814   22151141.1134   21268690.95747
                                  15298899.02944  22985261.9694   22985261.0594
 -34268535.03147 -26663649.56245  22235425.7814                   22235422.0314
  -2440912.50047  -1881074.74146  21093936.4144                   21093935.2584
  -7180604.12148  -5568990.97745  21980586.0474   21980587.0984   24165255.32045
                                  18854881.41643  24533211.3284   24533212.0704
 -14860005.59047 -11557703.38045  22843842.4384                   22843841.6914
 -18169638.81248 -14135558.87946  21031204.0634                   21031202.0124
 11  8 11  3 38 30.0000000  0  8G26G15G02G29G25G21G12G05
  11677118.17247   7830733.85345  22125696.3674   22125695.4224   21116582.87547
                                  15180373.32144  22956316.2344   22956315.6294
 -34276448.09447 -26669815.57745  22233919.9144                   22233916.6954
  -2561185.89848  -1974794.23646  21071049.7274                   21071048.4264
  -7186552.94147  -5573626.42345  21979453.6414   21979454.4614   24049810.71946
                                  18764924.68043  24511242.0944   24511243.0274
 -14825092.91047 -11530498.69745  22850486.8984                   22850485.1254
 -18163406.58247 -14130702.59746  21032390.0234                   21032388.1644
 11  8 11  3 39  0.0000000  0  8G26G15G02G29G25G21G12G05
  11543813.16847   7726859.86445  22100329.1644   22100328.2424   20964624.00447
                                  15061963.86244  22927399.6644   22927399.2344
 -34284224.09447 -26675874.82845  22232439.6724                   22232436.8164
  -2681135.14847  -2068261.15446  21048223.6334                   21048222.7464
  -7192041.19547  -5577902.98545  21978409.5234   21978410.7704   23934385.60246
                                  18674983.10643  24489277.4614   24489277.9064
 -14789997.89847 -11503151.92945  22857164.5474                   22857163.4264
 -18156810.23847 -14125562.62446  21033645.5634                   21033643.2074
 11  8 11  3 39 30.0000000  0  8G26G15G02G29G25G21G12G05
  11410923.57047   7623309.57645  22075040.8364   22075039.9884   20812813.85947
                                  14943670.26744  22898510.4304   22898510.4414
 -34291865.87547 -26681829.46145  22230985.9064                   22230982.2934
  -2800761.19148  -2161476.22246  21025459.9064                   21025458.4494
  -7197074.66048  -5581825.19445  21977452.2974   21977453.1524   23818976.05545
                                  18585053.73442  24467315.4614   24467315.5784
 -14754726.52047 -11475667.78244  22863876.0944                   22863874.9344
 -18149855.60948 -14120143.43946  21034968.9304                   21034966.6254
 11  8 11  3 40  0.0000000  0  8G26G15G02G29G25G21G12G05
  11278457.63747   7520089.44445  22049834.0474   22049833.0744   20661160.30547
                                  14825498.73844  22869652.5944   22869650.9024
 -34299368.59447 -26687675.73645  22229557.9454                   22229554.4924
  -2920057.16048  -2254434.10146  21002758.5084                   21002756.9184
  -7201651.18748  -5585391.35045  21976580.7664   21976582.1684   23703586.63745
                                  18495139.91442  24445358.0554   24445356.6954
 -14719277.69547 -11448045.31345  22870622.0164                   22870620.9924
 -18142540.56248 -14114443.41446  21036361.0164                   21036358.8094
 11  8 11  3 40 30.0000000  0  8G26G15G02G29G25G21G12G05
  12721842.44547   8644804.93745  22324501.1884   22324499.8054   22085090.85247
                                  15935055.05344  23140617.5474   23140615.4304
 -32731312.29347 -25465813.70744  22527949.4144                   22527946.3244
  -1463597.47747  -1119530.43446  21279913.7424                   21279912.0164
  -5630354.02747  -4361003.94045  22275588.6564   22275590.1604   25163639.84846
                                  19632843.85542  24723197.1724   24723193.8594
 -13108236.39147 -10192688.42444  23177193.0084                   23177190.5164
 -16559448.49247 -12880865.19246  21337613.5864                   21337611.1724
 11  8 11  3 41  0.0000000  0  8G26G15G02G29G25G21G12G05
  12590231.92247   8542251.33945  22299455.9144   22299454.9844   21933757.62147
                                  15817133.09944  23111819.3364   23111817.4734
 -32738538.03147 -25471444.12845  22526574.8134                   22526571.7894
  -1582228.52747  -1211970.19946  21257338.9924                   21257337.2504
  -5634026.79748  -4363865.86845  22274890.0004   22274891.7974   25048286.79746
                                  19542958.40343  24701246.3444   24701243.0864
 -13072444.00847 -10164798.29744  23184004.1724                   23184002.3284
 -16551421.87548 -12874610.69246  21339140.7344                   21339137.9844
 11  8 11  3 41 30.0000000  0  9G26G15G02G29G25G21G12G18G05
  12459051.68447   8440033.03945  22274493.0784   22274491.5824   21782586.50847
                                  15699337.42144  23083052.2814   23083051.1484
 -32745627.66047 -25476968.54445  22525225.5004                   22525221.8954
  -1700526.34447  -1304150.31146  21234827.6724                   21234825.8794
  -5637254.30547  -4366380.81145  22274275.6484   22274277.4414   24932948.60546
                                  19453084.60343  24679298.6254   24679294.8164
 -13036487.05947 -10136779.88444  23190845.9924                   23190845.2344
  31274139.73056  24397908.55253  24804926.1334                   24804925.3484
 -16543045.93748 -12868084.00646  21340734.6174                   21340732.9384
 11  8 11  3 42  0.0000000  0  9G26G15G02G29G25G21G12G18G05
  12328297.19547   8338146.46045  22249611.7034   22249609.3164   21631572.29747
                                  15581664.10144  23054315.1884   23054314.7854
 -32752589.21947 -25482393.13645  22523899.9844                   22523897.0394
  -1818496.68747  -1396075.21646  21212378.7114                   21212376.9454
  -5640047.33647  -4368557.21645  22273744.4924   22273744.9184   24817616.86346
                                  19363215.75943  24657351.2424   24657347.9924
 -13000376.74647 -10108641.99744  23197717.3754                   23197716.5314
  31127759.77746  24283846.28243  24777070.7894                   24777071.0004
 -16534331.28548 -12861293.38546  21342392.5784                   21342390.7234
 11  8 11  3 42 30.0000000  0  9G26G15G02G29G25G21G12G18G05
  12197965.73047   8236589.52745  22224810.2734   22224808.6254   21480712.16447
                                  15464110.81845  23025607.3754   23025607.3244
 -32759428.05147 -25487722.08345  22522599.1644                   22522594.8164
  -1936143.11747  -1487747.73146  21189991.1174                   21189989.0004
  -5642414.31647  -4370401.62745  22273294.2974   22273295.8834   24702284.92246
                                  19273346.81643  24635404.8754   24635400.9694
 -12964122.13347 -10080391.65044  23204616.9064                   23204616.1094
  30981554.03946  24169919.94643  24749248.6954                   24749249.3324
 -16525286.17248 -12854245.26146  21344114.0394                   21344111.8244
 11  8 11  3 43  0.0000000  0  9G26G15G02G29G25G21G12G18G05
  12068060.69947   8135364.87745  22200089.8524   22200088.3834   21330009.11347
                                  15346679.94544  22996929.9924   22996929.5474
 -32766144.44947 -25492955.67445  22521321.1644                   22521317.8364
  -2053463.58647  -1579166.22846  21167665.4454                   21167663.4654
  -5644358.35247  -4371916.47845  22272923.6884   22272925.3014   24586952.25846
                                  19183477.22043  24613456.9844   24613453.7074
 -12927726.66447 -10052031.55544  23211543.5234                   23211541.9304
  30835523.21546  24056129.84543  24721458.9224                   24721459.1884
 -16515913.56248 -12846941.93346  21345897.8834                   21345896.1844
 11  8 11  3 43 30.0000000  0  9G26G15G02G29G25G21G12G18G05
  11938592.97747   8034480.95745  22175452.8674   22175450.6764   21179473.44147
                                  15229379.46845  22968283.5634   22968283.1644
 -32772730.69547 -25498087.84045  22520068.1954                   22520064.6134
  -2170448.44948  -1670323.19046  21145404.0474                   21145402.3404
  -5645874.56247  -4373097.95545  22272635.8364   22272636.9264   24471625.35246
                                  19093612.21643  24591510.9224   24591507.5944
 -12891186.06247 -10023558.34144  23218496.1644                   23218495.6214
  30689676.16445  23942482.86643  24693706.2584                   24693704.4384
 -16506208.16848 -12839379.29846  21347744.7584                   21347742.1294
 11  8 11  3 44  0.0000000  0  9G26G15G02G29G25G21G12G18G05
  11809563.05147   7933938.14845  22150899.6804   22150897.6844   21029105.29347
                                  15112209.51245  22939669.9614   22939669.5784
 -32779189.11747 -25503120.39045  22518839.1414                   22518835.0594
  -2287098.32047  -1761219.11746  21123206.2584                   21123204.7584
  -5646968.62147  -4373950.47745  22272427.5634   22272429.1174   24356301.50046
                                  19003749.49143  24569565.8984   24569562.9184
 -12854505.81647  -9994976.34044  23225476.3914                   23225475.3874
  30544011.37146  23828978.03142  24665987.2424                   24665984.4804
 -16496175.55948 -12831561.68046  21349653.7974                   21349651.5394
 11  8 11  3 44 30.0000000  0  9G26G15G02G29G25G21G12G18G05
  11680971.26647   7833736.76645  22126429.2894   22126428.5004   20878904.53547
                                  14995170.03145  22911087.9064   22911086.9654
 -32785522.89547 -25508055.82145  22517633.4844                   22517629.6524
  -2403413.87547  -1851854.54746  21101072.3984                   21101070.6724
  -5647646.48848  -4374478.70345  22272298.7034   22272299.0784   24240976.88346
                                  18913886.38443  24547619.6644   24547617.8404
 -12817692.64547  -9966290.77744  23232481.0474                   23232480.6954
  30398526.26245  23715613.12542  24638301.2114                   24638298.5234
 -16485821.68748 -12823493.73146  21351623.8204                   21351621.4534
 11  8 11  3 45  0.0000000  0  9G26G15G02G29G25G21G12G18G05
  11552825.66847   7733883.07945  22102042.8754   22102043.2034   20728879.14547
                                  14878267.15945  22882538.3914   22882537.8014
 -32791727.00847 -25512890.19545  22516452.9384                   22516448.9104
  -2519388.50847  -1942224.34446  21079002.8594                   21079001.1454
  -5647906.06247  -4374680.98045  22272249.1564   22272250.5394   24125655.81646
                                  18824025.89843  24525674.7504   24525673.6134
 -12780744.89147  -9937500.35744  23239512.3284                   23239511.6604
  30253227.12146  23602393.12942  24610652.6254                   24610649.1844
 -16475143.99648 -12815173.45046  21353655.5084                   21353653.7034
 11  8 11  3 45 30.0000000  0  9G26G15G02G29G25G21G12G18G05
  11425131.70347   7634381.32245  22077743.8524   22077743.2974   20579034.16447
                                  14761504.93645  22854023.2344   22854023.3524
 -32797799.18747 -25517621.78645  22515297.9224                   22515294.1844
  -2635017.84047  -2032325.06546  21056999.3594                   21056997.6094
  -5647748.15247  -4374557.93945  22272279.1414   22272280.3094   24010339.77046
                                  18734169.27843  24503732.1094   24503729.9574
 -12743663.87547  -9908606.03244  23246569.1564                   23246567.4734
  30108117.09046  23489320.54342  24583039.2114                   24583036.2854
 -16464142.88348 -12806601.15746  21355749.4534                   21355747.0944
 11  8 11  3 46  0.0000000  0  9G26G15G02G29G25G21G12G18G05
  11297893.85247   7535234.94845  22053531.9064   22053530.5984   20429373.68847
                                  14644886.44145  22825544.6884   22825542.3834
 -32803737.93747 -25522249.37045  22514167.3984                   22514164.1054
  -2750298.44147  -2122154.03746  21035062.0634                   21035060.1604
  -5647174.34847  -4374110.83545  22272388.2814   22272388.7304   23895029.48446
                                  18644317.26643  24481788.1174   24481786.9414
 -12706451.10247  -9879609.04144  23253650.3674                   23253648.8914
  29963198.36345  23376396.96942  24555461.4384                   24555459.3444
 -16452820.01648 -12797778.14146  21357904.0554                   21357902.2854
 11  8 11  3 46 30.0000000  0  9G26G15G02G29G25G21G12G18G05
  11171113.44147   7436445.00045  22029406.2814   22029404.7114   20279898.55947
                                  14528412.40345  22797100.3754   22797097.8284
 -32809545.02347 -25526774.38645  22513062.3524                   22513059.2704
  -2865230.06247  -2211711.06446  21013191.2194                   21013189.2384
  -5646189.58247  -4373343.49145  22272575.7664   22272576.6174   23779722.37946
                                  18554467.72743  24459845.9304   24459843.6914
 -12669111.94947  -9850513.63544  23260755.4144                   23260754.9844
  29818470.14845  23263621.84442  24527920.7894                   24527919.5354
 -16441179.98448 -12788707.98746  21360119.1644                   21360117.2274
 11  8 11  3 47  0.0000000  0  9G26G15G02G29G25G21G12G18G05
  11044796.28147   7338016.05745  22005368.7734   22005367.0744   20130614.51247
                                  14412087.23144  22768692.6414   22768690.4344
 -32815218.07447 -25531194.94744  22511982.7894                   22511979.3134
  -2979807.83648  -2300992.39646  20991387.7034                   20991385.7894
  -5644794.05947  -4372256.10645  22272840.9924   22272841.8164   23664420.46146
                                  18464622.19843  24437904.1094   24437901.5664
 -12631647.20747  -9821320.31044  23267885.3134                   23267883.2424
  29673936.21555  23150998.18852  24500416.0704                   24500415.7424
 -16429222.78148 -12779390.68146  21362394.7894                   21362392.6334
 11  8 11  3 47 30.0000000  0  9G26G15G02G29G25G21G12G18G05
  10918944.96147   7239950.11545  21981419.4384   21981418.5704   19981523.72747
                                  14295912.65245  22740321.5394   22740319.5514
 -32820757.14847 -25535511.11745  22510928.9064                   22510925.5044
  -3094030.64548  -2389997.13846  20969651.8284                   20969650.1454
  -5642991.54347  -4370851.54045  22273183.8984   22273184.9024   23549122.42246
                                  18374779.59443  24415963.8594   24415960.0434
 -12594060.50847  -9792031.97544  23275037.2734                   23275036.7584
  29529596.85545  23038526.09442  24472948.8754                   24472950.3094
 -16416951.51648 -12769828.65946  21364729.0704                   21364727.1094
 11  8 11  3 48  0.0000000  0  9G26G15G02G29G25G21G12G18G05
  10793563.66447   7142250.43345  21957560.9304   21957560.2664   19832630.10947
                                  14179891.71945  22711987.9844   22711985.9774
 -32826161.21547 -25539722.08145  22509900.4614                   22509897.0784
  -3207895.01248  -2478722.56746  20947983.8524                   20947982.3874
  -5640783.76247  -4369131.23845  22273604.1884   22273605.9414   23433828.89546
                                  18284940.63843  24394022.8674   24394022.4614
 -12556354.01247  -9762650.32344  23282212.1724                   23282212.5004
  29385454.18046  22926207.27543  24445519.6334                   24445521.3674
 -16404367.77348 -12760023.17446  21367124.0864                   21367121.4224
 11  8 11  3 48 30.0000000  0  9G26G15G02G29G25G21G12G18G05
  10668657.90647   7044921.28145  21933792.3984   21933790.5984   19683938.93447
                                  14064028.49745  22683692.5004   22683691.9804
 -32831427.94147 -25543826.04144  22508898.2664                   22508893.5864
  -3321396.64847  -2567165.36346  20926385.8134                   20926383.4144
  -5638171.63747  -4367095.85245  22274101.5784   22274102.7234   23318541.59046
                                  18195106.36743  24372085.4614   24372083.9064
 -12518528.85947  -9733176.15144  23289410.3834                   23289409.9064
  29241511.48046  22814044.29843  24418127.9064                   24418130.3324
 -16391472.09848 -12749974.59946  21369578.2194                   21369575.6954
 11  8 11  3 49  0.0000000  0  9G26G15G02G29G25G21G12G18G05
  10544226.82847   6947962.02745  21910113.9384   21910112.9534   19535449.16447
                                  13948322.22745  22655436.4144   22655435.5314
 -32836561.34447 -25547826.07145  22507920.9454                   22507916.9694
  -3434537.73448  -2655327.21546  20904855.5554                   20904853.7194
  -5635162.10947  -4364750.77045  22274674.2114   22274674.6844   23203255.60546
                                  18105273.19043  24350147.5704   24350145.1174
 -12480592.21546  -9703615.15344  23296629.1414                   23296628.3754
  29097765.42246  22702034.52443  24390774.3054                   24390775.5784
 -16378271.03948 -12739688.07146  21372090.4064                   21372088.2074
 11  8 11  3 49 30.0000000  0  9G26G15G02G29G25G21G12G18G05
  10420277.40647   6851378.08545  21886526.8984   21886525.9224   19387167.10947
                                  13832777.81445  22627219.0394   22627218.5944
 -32841557.33247 -25551719.09045  22506970.6724                   22506967.7934
  -3547312.11748  -2743203.32846  20883395.3204                   20883393.3324
  -5631754.24247  -4362095.33045  22275322.5164   22275324.2584   23087974.80945
                                  18015444.00343  24328209.5084   24328207.7504
 -12442543.67646  -9673966.93944  23303869.5314                   23303869.2424
  28954220.80546  22590181.69942  24363459.7194                   24363457.6604
 -16364763.65648 -12729162.86346  21374660.6724                   21374658.6954
 11  8 11  3 50  0.0000000  0  9G26G15G02G29G25G21G12G18G05
  10296810.77747   6755170.36145  21863031.9534   21863030.8324   19239094.32047
                                  13717396.49745  22599041.0084   22599041.3204
 -32846417.75447 -25555506.44045  22506045.8594                   22506041.9884
  -3659719.27348  -2830793.29746  20862004.6484                   20862002.9654
  -5627952.96547  -4359133.32245  22276045.5084   22276047.5594   22972696.26646
                                  17925616.67643  24306272.8364   24306271.1414
 -12404388.41447  -9644235.62244  23311130.8134                   23311130.3714
  28810877.05946  22478485.35243  24336181.6884                   24336177.6804
 -16350954.54348 -12718402.51746  21377288.6484                   21377286.6914
 11  8 11  3 50 30.0000000  0  9G26G15G02G29G25G21G12G18G05
  10173831.83647   6659342.67745  21839629.5314   21839628.0394   19091235.08247
                                  13602181.54345  22570904.2894   22570904.1484
 -32851140.77047 -25559186.71044  22505147.0554                   22505142.4344
  -3771755.95748  -2918094.58346  20840684.7584                   20840683.0394
  -5623759.85547  -4355865.97145  22276843.9844   22276845.6484   22857421.09846
                                  17835791.95743  24284337.2194   24284336.0044
 -12366127.93746  -9614422.24644  23318411.0394                   23318409.0004
  28667736.14146  22366947.00543  24308942.1334                   24308936.4494
 -16336844.29348 -12707407.51746  21379973.6024                   21379971.9224
 11  8 11  3 51  0.0000000  0  9G26G15G02G29G25G21G12G18G05
  10051343.76247   6563897.45345  21816320.5394   21816319.4224   18943592.27047
                                  13487135.23545  22542808.7194   22542807.9224
 -32855726.27047 -25562759.85145  22504274.2584                   22504270.5904
  -3883420.05948  -3005105.55346  20819435.9614                   20819433.7344
  -5619177.83647  -4352295.62345  22277715.8444   22277717.0354   22742148.56846
                                  17745969.28943  24262400.9774   24262400.7154
 -12327765.23446  -9584529.25644  23325711.7034                   23325710.2774
  28524799.32046  22255567.82442  24281742.2114                   24281736.5084
 -16322435.81248 -12696180.13246  21382715.0864                   21382713.5124
 11  8 11  3 51 30.0000000  0  9G26G15G02G29G25G21G12G18G05
   9929351.14847   6468838.29245  21793106.5944   21793106.0354   18796170.67647
                                  13372261.32945  22514755.8364   22514753.8484
 -32860172.18047 -25566224.20245  22503428.1484                   22503425.4774
  -3994707.62148  -3091823.13146  20798258.2974                   20798256.3984
  -5614208.14547  -4348423.17645  22278662.0314   22278662.1994   22626880.08646
                                  17656149.71643  24240466.7894   24240464.8874
 -12289301.96146  -9554557.88243  23333030.1954                   23333030.1374
  28382069.55946  22144349.96142  24254580.7424                   24254577.3324
 -16307729.87948 -12684720.96646  21385513.7274                   21385511.9494
 11  8 11  3 52  0.0000000  0  9G26G15G02G29G25G21G12G18G05
   9807855.92247   6374166.73745  21769987.2034   21769986.3244   18648972.02347
                                  13257561.14245  22486744.9304   22486742.4144
 -32864479.76247 -25569580.75345  22502609.1644                   22502605.3794
  -4105617.76648  -3178246.61446  20777152.8834                   20777150.9414
  -5608855.02347  -4344251.92445  22279680.2504   22279680.5394   22511613.88346
                                  17566331.88743  24218532.2664   24218529.4694
 -12250742.52346  -9524511.58644  23340368.2814                   23340367.6134
  28239546.58246  22033293.21743  24227459.7034                   24227459.1844
 -16292730.42648 -12673033.09146  21388368.0554                   21388365.6054
 11  8 11  3 52 30.0000000  0  9G26G15G02G29G25G21G12G18G05
   9686864.12147   6279887.45145  21746963.0554   21746961.6094   18502002.15247
                                  13143039.19245  22458777.3054   22458775.4614
 -32868646.12147 -25572827.27344  22501816.0474                   22501811.9064
  -4216145.30148  -3264371.96846  20756120.4924                   20756118.1724
  -5603118.64547  -4339782.04145  22280771.5554   22280773.0904   22396352.28146
                                  17476517.80643  24196599.0164   24196595.8874
 -12212087.19546  -9494390.57144  23347724.9924                   23347723.6414
  28097233.95346  21922400.37743  24200377.8914                   24200378.8164
 -16277437.23048 -12661116.32646  21391278.3524                   21391275.8014
 11  8 11  3 53  0.0000000  0  9G26G15G02G29G25G21G12G18G05
   9566374.93447   6185999.81145  21724034.7424   21724033.1764   18355259.98847
                                  13028694.70545  22430853.2734   22430851.6174
 -32872675.10947 -25575966.77344  22501049.8754                   22501045.2274
  -4326292.50048  -3350200.97146  20735160.2664                   20735158.0514
  -5597006.02747  -4335018.98245  22281934.8594   22281936.6024   22281091.19946
                                  17386703.99243  24174664.5004   24174663.1884
 -12173343.20347  -9464200.41844  23355097.6414                   23355095.9654
  27955128.76646  21811669.25143  24173335.6884                   24173337.9574
 -16261856.77748 -12648975.71946  21394243.1954                   21394240.9144
 11  8 11  3 53 30.0000000  0  9G26G15G02G29G25G21G12G18G05
   9446394.50047   6092508.60445  21701202.2034   21701200.8834   18208751.49647
                                  12914532.28245  22402973.2194   22402972.0314
 -32876563.14547 -25578996.44944  22500309.7424                   22500305.4454
  -4436053.98048  -3435729.40246  20714273.1484                   20714271.1724
  -5590517.08247  -4329962.68945  22283170.0634   22283172.0394   22165832.86346
                                  17296892.34243  24152731.4694   24152730.5164
 -12134510.32047  -9433941.07044  23362486.5784                   23362485.8284
  27813235.17246  21701102.92543  24146335.4534                   24146335.8324
 -16245988.35548 -12636610.73246  21397262.8444                   21397260.9844
 11  8 11  3 54  0.0000000  0  9G26G15G02G29G25G21G12G18G05
   9326924.58647   5999415.20445  21678468.8134   21678467.0784   18062478.26647
                                  12800553.19145  22375138.6254   22375137.3444
 -32880311.19547 -25581916.99145  22499595.3594                   22499592.1564
  -4545428.88348  -3520956.62846  20693460.0474                   20693457.9344
  -5583656.37147  -4324616.68845  22284475.9304   22284476.8714   22050575.36746
                                  17207081.42243  24130798.1334   24130797.2194
 -12095593.48047  -9403616.27644  23369893.0634                   23369892.5594
  27671552.52346  21590701.01043  24119373.1884                   24119374.1094
 -16229836.27348 -12624024.68846  21400336.4534                   21400334.4494
 11  8 11  3 54 30.0000000  0  9G26G15G02G29G25G21G12G18G05
  10783390.42247   7134323.70145  21955624.4774   21955623.0274   19491866.32447
                                  13914362.13745  22647141.4774   22647141.8714
 -31308500.71147 -24357129.65045  22798701.2974                   22798697.9574
  -3078993.10548  -2378279.39846  20972513.2734                   20972511.4304
  -4001008.69947  -3091384.73745  22585643.5164   22585645.0594   23510740.42246
                                  18344872.41543  24408659.1644   24408657.2234
 -10481178.45347  -8145630.55045  23677106.3364                   23677105.0084
  29105504.96546                  22708066.61343  24392246.5944   24392246.4534
 -14637985.28548 -11383621.34146  21703255.6954                   21703254.2344
 11  8 11  3 55  0.0000000  0  9G26G15G02G29G25G21G12G18G05
  10664949.24247   7042031.93645  21933085.9694   21933084.9344   19346071.56347
                                  13800755.89345  22619397.7504   22619397.7034
 -31311970.16447 -24359833.10945  22798041.9844                   22798037.9734
  -3187589.75848  -2462900.16846  20951847.8284                   20951846.1214
  -3993414.55547  -3085467.22145  22587088.8524   22587089.6484   23395482.20346
                                  18255060.84343  24386726.6334   24386723.7704
 -10442103.96547  -8115182.87044  23684541.2274                   23684539.4804
  28964245.85546                  22597994.75443  24365365.9064   24365364.3134
 -14621274.58648 -11370599.99746  21706435.8754                   21706433.8484
 11  8 11  3 55 30.0000000  0  9G26G15G02G29G25G21G12G18G05
  10547029.44947   6950146.40045  21910646.9454   21910645.1134   19200522.99247
                                  13687341.48845  22591701.3364   22591701.3754
 -31315297.24247 -24362425.68345  22797408.2504                   22797403.9064
  -3295791.75048  -2547213.43146  20931257.7584                   20931256.0594
  -3985455.75847  -3079265.58545  22588603.3524   22588604.0634   23280225.38746
                                  18165250.42243  24364794.2344   24364791.5044
 -10402952.61347  -8084675.35445  23691992.4224                   23691990.5234
  28823202.51246                  22488090.91243  24338526.3754   24338523.0944
 -14604285.85248 -11357362.01446  21709668.4224                   21709666.6454
 11  8 11  3 56  0.0000000  0  9G26G15G02G29G25G21G12G18G05
  10429635.34447   6858670.49245  21888307.1564   21888306.1024   19055224.56347
                                  13574121.97145  22564051.7274   22564051.1644
 -31318480.80947 -24364906.40145  22796803.2584                   22796799.1764
  -3403595.82048  -2631216.59546  20910742.9384                   20910741.8874
  -3977134.37547  -3072781.39945  22590186.1094   22590187.5554   23164970.69146
                                  18075441.56143  24342861.9694   24342860.2344
 -10363726.69547  -8054109.74445  23699456.3134                   23699455.6094
  28682376.95746                  22378356.86543  24311726.9144   24311723.6844
 -14587020.62148 -11343908.57846  21712953.6644                   21712951.8094
 11  8 11  3 56 30.0000000  0  9G26G15G02G29G25G21G12G18G05
  10312769.90647   6767606.56245  21866068.8054   21866068.0594   18910179.15247
                                  13461099.62445  22536450.3054   22536448.9144
 -31321520.49647 -24367274.99145  22796224.7194                   22796220.8714
  -3510999.68448  -2714907.91246  20890305.0554                   20890303.6844
  -3968453.27747  -3066016.92445  22591838.8364   22591840.2154   23049717.83246
                                  17985634.20643  24320929.3524   24320926.9454
 -10324429.01247  -8023488.19344  23706934.5704                   23706932.5084
  28541770.21146                  22268793.27042  24284969.9614   24284966.8874
 -14569481.15248 -11330241.44846  21716291.5234                   21716289.4574
 11  8 11  3 57  0.0000000  0  9G26G15G02G29G25G21G12G18G05
  10196438.08647   6676958.43745  21843931.0314   21843930.4694   18765392.03147
                                  13348278.57245  22508897.8834   22508896.6604
 -31324414.21947 -24369529.86745  22795673.2664                   22795669.7114
  -3617999.38348  -2798284.30246  20869944.1024                   20869942.0234
  -3959413.72747  -3058973.11745  22593559.0554   22593560.1914   22934468.03546
                                  17895829.31243  24298998.2734   24298996.5234
 -10285061.02347  -7992811.82844  23714425.6724                   23714424.3524
  28401385.11746                  22159402.37843  24258256.1954   24258252.6134
 -14551668.47748 -11316361.43446  21719681.4224                   21719678.4734
 11  8 11  3 57 30.0000000  0  9G26G15G02G29G25G21G12G18G05
  10080641.37147   6586727.26845  21821895.7814   21821894.5124   18620864.56347
                                  13235659.81945  22481395.3284   22481394.6254
 -31327163.23847 -24371671.99145  22795150.3834                   22795146.9774
  -3724594.11748  -2881345.13346  20849659.1174                   20849658.1524
  -3950020.21147  -3051653.50745  22595346.6414   22595348.0664   22819219.89546
                                  17806025.58743  24277067.0314   24277064.3594
 -10245627.29346  -7962084.30944  23721929.2424                   23721928.7734
  28261221.11346                  22050183.78043  24231583.5944   24231581.0594
 -14533586.51648 -11302271.60746  21723122.1724                   21723120.8914
